<?xml version="1.0" encoding="UTF-8" standalone="yes"?>
<gpx
 xmlns="http://www.topografix.com/GPX/1/1"
 creator="OziExplorer Version 3956f - http://www.oziexplorer.com"
 version="1.1"
 xmlns:xsi="http://www.w3.org/2001/XMLSchema-instance"
 xsi:schemaLocation="http://www.topografix.com/GPX/1/1 http://www.topografix.com/GPX/1/1/gpx.xsd">
<metadata>
 <time>2021-04-17T05:15:26Z</time>
 <bounds minlat="31.774430" minlon="34.989130" maxlat="31.825160" maxlon="35.088320"/>
</metadata>
<trk>
 <name>Eshtaol+Kisalon,42km.850m</name>
 <desc>Eshtaol+Kisalon,42km.850m</desc>
<trkseg>
<trkpt lat="31.8114200" lon="35.0133100">
<ele>275.440002</ele>
<time>2021-04-17T08:15:26.992Z</time>
</trkpt>
<trkpt lat="31.8112900" lon="35.0136000">
<ele>275.919983</ele>
<time>2021-04-17T08:15:26.992Z</time>
</trkpt>
<trkpt lat="31.8109800" lon="35.0141300">
<ele>276.510010</ele>
<time>2021-04-17T08:15:26.992Z</time>
</trkpt>
<trkpt lat="31.8105300" lon="35.0149400">
<ele>283.160004</ele>
<time>2021-04-17T08:15:26.993Z</time>
</trkpt>
<trkpt lat="31.8104700" lon="35.0151900">
<ele>285.110016</ele>
<time>2021-04-17T08:15:26.993Z</time>
</trkpt>
<trkpt lat="31.8103500" lon="35.0154900">
<ele>284.700012</ele>
<time>2021-04-17T08:15:26.993Z</time>
</trkpt>
<trkpt lat="31.8102800" lon="35.0157800">
<ele>283.200012</ele>
<time>2021-04-17T08:15:26.993Z</time>
</trkpt>
<trkpt lat="31.8101500" lon="35.0161200">
<ele>284.570007</ele>
<time>2021-04-17T08:15:26.993Z</time>
</trkpt>
<trkpt lat="31.8100100" lon="35.0165600">
<ele>284.130005</ele>
<time>2021-04-17T08:15:26.993Z</time>
</trkpt>
<trkpt lat="31.8098200" lon="35.0170700">
<ele>286.190002</ele>
<time>2021-04-17T08:15:26.993Z</time>
</trkpt>
<trkpt lat="31.8096700" lon="35.0175400">
<ele>287.519989</ele>
<time>2021-04-17T08:15:26.993Z</time>
</trkpt>
<trkpt lat="31.8096400" lon="35.0177100">
<ele>288.350006</ele>
<time>2021-04-17T08:15:26.993Z</time>
</trkpt>
<trkpt lat="31.8095600" lon="35.0180900">
<ele>290.319977</ele>
<time>2021-04-17T08:15:26.993Z</time>
</trkpt>
<trkpt lat="31.8094800" lon="35.0182500">
<ele>292.010010</ele>
<time>2021-04-17T08:15:26.993Z</time>
</trkpt>
<trkpt lat="31.8099500" lon="35.0183800">
<ele>291.489990</ele>
<time>2021-04-17T08:15:26.993Z</time>
</trkpt>
<trkpt lat="31.8100000" lon="35.0184000">
<ele>291.479980</ele>
<time>2021-04-17T08:15:26.993Z</time>
</trkpt>
<trkpt lat="31.8100400" lon="35.0184200">
<ele>291.619995</ele>
<time>2021-04-17T08:15:26.993Z</time>
</trkpt>
<trkpt lat="31.8100800" lon="35.0184500">
<ele>291.839996</ele>
<time>2021-04-17T08:15:26.993Z</time>
</trkpt>
<trkpt lat="31.8101200" lon="35.0184900">
<ele>292.130005</ele>
<time>2021-04-17T08:15:26.993Z</time>
</trkpt>
<trkpt lat="31.8101500" lon="35.0185200">
<ele>292.339996</ele>
<time>2021-04-17T08:15:26.993Z</time>
</trkpt>
<trkpt lat="31.8101900" lon="35.0185700">
<ele>292.699982</ele>
<time>2021-04-17T08:15:26.993Z</time>
</trkpt>
<trkpt lat="31.8102200" lon="35.0186100">
<ele>292.989990</ele>
<time>2021-04-17T08:15:26.993Z</time>
</trkpt>
<trkpt lat="31.8102400" lon="35.0186700">
<ele>293.369995</ele>
<time>2021-04-17T08:15:26.993Z</time>
</trkpt>
<trkpt lat="31.8102700" lon="35.0187100">
<ele>293.690002</ele>
<time>2021-04-17T08:15:26.993Z</time>
</trkpt>
<trkpt lat="31.8102900" lon="35.0187700">
<ele>294.160004</ele>
<time>2021-04-17T08:15:26.993Z</time>
</trkpt>
<trkpt lat="31.8104100" lon="35.0191000">
<ele>297.319977</ele>
<time>2021-04-17T08:15:26.993Z</time>
</trkpt>
<trkpt lat="31.8104300" lon="35.0191500">
<ele>297.729980</ele>
<time>2021-04-17T08:15:26.993Z</time>
</trkpt>
<trkpt lat="31.8104500" lon="35.0191900">
<ele>298.329987</ele>
<time>2021-04-17T08:15:26.993Z</time>
</trkpt>
<trkpt lat="31.8104700" lon="35.0192300">
<ele>299.119995</ele>
<time>2021-04-17T08:15:26.993Z</time>
</trkpt>
<trkpt lat="31.8104800" lon="35.0192600">
<ele>299.739990</ele>
<time>2021-04-17T08:15:26.993Z</time>
</trkpt>
<trkpt lat="31.8104800" lon="35.0192700">
<ele>299.980011</ele>
<time>2021-04-17T08:15:26.993Z</time>
</trkpt>
<trkpt lat="31.8105000" lon="35.0193100">
<ele>300.700012</ele>
<time>2021-04-17T08:15:26.993Z</time>
</trkpt>
<trkpt lat="31.8105300" lon="35.0193400">
<ele>301.040009</ele>
<time>2021-04-17T08:15:26.993Z</time>
</trkpt>
<trkpt lat="31.8105500" lon="35.0193700">
<ele>301.459991</ele>
<time>2021-04-17T08:15:26.993Z</time>
</trkpt>
<trkpt lat="31.8105900" lon="35.0194100">
<ele>302.040009</ele>
<time>2021-04-17T08:15:26.993Z</time>
</trkpt>
<trkpt lat="31.8106200" lon="35.0194400">
<ele>302.450012</ele>
<time>2021-04-17T08:15:26.993Z</time>
</trkpt>
<trkpt lat="31.8106700" lon="35.0194600">
<ele>302.470001</ele>
<time>2021-04-17T08:15:26.994Z</time>
</trkpt>
<trkpt lat="31.8118000" lon="35.0201800">
<ele>312.679993</ele>
<time>2021-04-17T08:15:26.994Z</time>
</trkpt>
<trkpt lat="31.8118500" lon="35.0199300">
<ele>317.350006</ele>
<time>2021-04-17T08:15:26.994Z</time>
</trkpt>
<trkpt lat="31.8118500" lon="35.0198700">
<ele>317.709991</ele>
<time>2021-04-17T08:15:26.994Z</time>
</trkpt>
<trkpt lat="31.8119100" lon="35.0195800">
<ele>319.719971</ele>
<time>2021-04-17T08:15:26.994Z</time>
</trkpt>
<trkpt lat="31.8121300" lon="35.0188000">
<ele>320.899994</ele>
<time>2021-04-17T08:15:26.994Z</time>
</trkpt>
<trkpt lat="31.8121400" lon="35.0187800">
<ele>321.109985</ele>
<time>2021-04-17T08:15:26.994Z</time>
</trkpt>
<trkpt lat="31.8121800" lon="35.0187100">
<ele>321.989990</ele>
<time>2021-04-17T08:15:26.994Z</time>
</trkpt>
<trkpt lat="31.8122500" lon="35.0186900">
<ele>323.160004</ele>
<time>2021-04-17T08:15:26.994Z</time>
</trkpt>
<trkpt lat="31.8123400" lon="35.0186100">
<ele>323.420013</ele>
<time>2021-04-17T08:15:26.994Z</time>
</trkpt>
<trkpt lat="31.8126100" lon="35.0190300">
<ele>328.700012</ele>
<time>2021-04-17T08:15:26.994Z</time>
</trkpt>
<trkpt lat="31.8128700" lon="35.0191600">
<ele>329.720001</ele>
<time>2021-04-17T08:15:26.994Z</time>
</trkpt>
<trkpt lat="31.8133600" lon="35.0194500">
<ele>327.269989</ele>
<time>2021-04-17T08:15:26.994Z</time>
</trkpt>
<trkpt lat="31.8136700" lon="35.0195500">
<ele>328.190002</ele>
<time>2021-04-17T08:15:26.994Z</time>
</trkpt>
<trkpt lat="31.8139900" lon="35.0197400">
<ele>319.820007</ele>
<time>2021-04-17T08:15:26.994Z</time>
</trkpt>
<trkpt lat="31.8146000" lon="35.0196100">
<ele>315.540009</ele>
<time>2021-04-17T08:15:26.994Z</time>
</trkpt>
<trkpt lat="31.8148200" lon="35.0194200">
<ele>319.200012</ele>
<time>2021-04-17T08:15:26.994Z</time>
</trkpt>
<trkpt lat="31.8149900" lon="35.0194000">
<ele>317.899994</ele>
<time>2021-04-17T08:15:26.994Z</time>
</trkpt>
<trkpt lat="31.8155700" lon="35.0192900">
<ele>303.929993</ele>
<time>2021-04-17T08:15:26.994Z</time>
</trkpt>
<trkpt lat="31.8158200" lon="35.0191700">
<ele>302.290009</ele>
<time>2021-04-17T08:15:26.994Z</time>
</trkpt>
<trkpt lat="31.8160600" lon="35.0191100">
<ele>297.070007</ele>
<time>2021-04-17T08:15:26.994Z</time>
</trkpt>
<trkpt lat="31.8164800" lon="35.0191000">
<ele>295.040009</ele>
<time>2021-04-17T08:15:26.994Z</time>
</trkpt>
<trkpt lat="31.8167300" lon="35.0190700">
<ele>291.440002</ele>
<time>2021-04-17T08:15:26.994Z</time>
</trkpt>
<trkpt lat="31.8168900" lon="35.0189500">
<ele>289.559998</ele>
<time>2021-04-17T08:15:26.994Z</time>
</trkpt>
<trkpt lat="31.8173500" lon="35.0186200">
<ele>291.850006</ele>
<time>2021-04-17T08:15:26.994Z</time>
</trkpt>
<trkpt lat="31.8173700" lon="35.0186100">
<ele>292.019989</ele>
<time>2021-04-17T08:15:26.994Z</time>
</trkpt>
<trkpt lat="31.8175400" lon="35.0185600">
<ele>291.529999</ele>
<time>2021-04-17T08:15:26.994Z</time>
</trkpt>
<trkpt lat="31.8178800" lon="35.0183100">
<ele>287.380005</ele>
<time>2021-04-17T08:15:26.995Z</time>
</trkpt>
<trkpt lat="31.8181900" lon="35.0182300">
<ele>285.419983</ele>
<time>2021-04-17T08:15:26.995Z</time>
</trkpt>
<trkpt lat="31.8189400" lon="35.0181600">
<ele>276.250000</ele>
<time>2021-04-17T08:15:26.995Z</time>
</trkpt>
<trkpt lat="31.8192400" lon="35.0179300">
<ele>272.410004</ele>
<time>2021-04-17T08:15:26.995Z</time>
</trkpt>
<trkpt lat="31.8195900" lon="35.0175400">
<ele>274.459991</ele>
<time>2021-04-17T08:15:26.995Z</time>
</trkpt>
<trkpt lat="31.8196400" lon="35.0174500">
<ele>274.860016</ele>
<time>2021-04-17T08:15:26.995Z</time>
</trkpt>
<trkpt lat="31.8200000" lon="35.0170500">
<ele>273.619995</ele>
<time>2021-04-17T08:15:26.995Z</time>
</trkpt>
<trkpt lat="31.8201800" lon="35.0168900">
<ele>269.199982</ele>
<time>2021-04-17T08:15:26.995Z</time>
</trkpt>
<trkpt lat="31.8204400" lon="35.0167100">
<ele>265.389984</ele>
<time>2021-04-17T08:15:26.995Z</time>
</trkpt>
<trkpt lat="31.8206600" lon="35.0165300">
<ele>263.820007</ele>
<time>2021-04-17T08:15:26.995Z</time>
</trkpt>
<trkpt lat="31.8207900" lon="35.0163800">
<ele>263.860016</ele>
<time>2021-04-17T08:15:26.995Z</time>
</trkpt>
<trkpt lat="31.8208300" lon="35.0162700">
<ele>264.399994</ele>
<time>2021-04-17T08:15:26.995Z</time>
</trkpt>
<trkpt lat="31.8208400" lon="35.0162300">
<ele>264.589996</ele>
<time>2021-04-17T08:15:26.995Z</time>
</trkpt>
<trkpt lat="31.8208400" lon="35.0161200">
<ele>264.989990</ele>
<time>2021-04-17T08:15:26.995Z</time>
</trkpt>
<trkpt lat="31.8207900" lon="35.0160000">
<ele>263.700012</ele>
<time>2021-04-17T08:15:26.995Z</time>
</trkpt>
<trkpt lat="31.8207300" lon="35.0159100">
<ele>262.600006</ele>
<time>2021-04-17T08:15:26.995Z</time>
</trkpt>
<trkpt lat="31.8205600" lon="35.0158000">
<ele>261.149994</ele>
<time>2021-04-17T08:15:26.995Z</time>
</trkpt>
<trkpt lat="31.8204600" lon="35.0156700">
<ele>261.670013</ele>
<time>2021-04-17T08:15:26.995Z</time>
</trkpt>
<trkpt lat="31.8204300" lon="35.0156000">
<ele>261.600006</ele>
<time>2021-04-17T08:15:26.995Z</time>
</trkpt>
<trkpt lat="31.8204100" lon="35.0155100">
<ele>261.000000</ele>
<time>2021-04-17T08:15:26.995Z</time>
</trkpt>
<trkpt lat="31.8204100" lon="35.0153700">
<ele>259.540009</ele>
<time>2021-04-17T08:15:26.995Z</time>
</trkpt>
<trkpt lat="31.8204300" lon="35.0152900">
<ele>258.500000</ele>
<time>2021-04-17T08:15:26.996Z</time>
</trkpt>
<trkpt lat="31.8204900" lon="35.0151700">
<ele>258.100006</ele>
<time>2021-04-17T08:15:26.996Z</time>
</trkpt>
<trkpt lat="31.8205600" lon="35.0150800">
<ele>257.720001</ele>
<time>2021-04-17T08:15:26.996Z</time>
</trkpt>
<trkpt lat="31.8207000" lon="35.0149700">
<ele>258.429993</ele>
<time>2021-04-17T08:15:26.996Z</time>
</trkpt>
<trkpt lat="31.8210100" lon="35.0147900">
<ele>259.929993</ele>
<time>2021-04-17T08:15:26.996Z</time>
</trkpt>
<trkpt lat="31.8211500" lon="35.0146800">
<ele>258.899994</ele>
<time>2021-04-17T08:15:26.996Z</time>
</trkpt>
<trkpt lat="31.8213900" lon="35.0144500">
<ele>253.099991</ele>
<time>2021-04-17T08:15:26.996Z</time>
</trkpt>
<trkpt lat="31.8214900" lon="35.0143100">
<ele>254.539993</ele>
<time>2021-04-17T08:15:26.996Z</time>
</trkpt>
<trkpt lat="31.8216100" lon="35.0140000">
<ele>255.399994</ele>
<time>2021-04-17T08:15:26.996Z</time>
</trkpt>
<trkpt lat="31.8218600" lon="35.0129200">
<ele>253.760010</ele>
<time>2021-04-17T08:15:26.996Z</time>
</trkpt>
<trkpt lat="31.8219500" lon="35.0125300">
<ele>253.899994</ele>
<time>2021-04-17T08:15:26.996Z</time>
</trkpt>
<trkpt lat="31.8220000" lon="35.0122600">
<ele>254.690002</ele>
<time>2021-04-17T08:15:26.996Z</time>
</trkpt>
<trkpt lat="31.8220000" lon="35.0121100">
<ele>254.720001</ele>
<time>2021-04-17T08:15:26.996Z</time>
</trkpt>
<trkpt lat="31.8219800" lon="35.0120000">
<ele>254.769989</ele>
<time>2021-04-17T08:15:26.996Z</time>
</trkpt>
<trkpt lat="31.8218300" lon="35.0115500">
<ele>256.559998</ele>
<time>2021-04-17T08:15:26.996Z</time>
</trkpt>
<trkpt lat="31.8216900" lon="35.0109000">
<ele>255.179993</ele>
<time>2021-04-17T08:15:26.996Z</time>
</trkpt>
<trkpt lat="31.8215800" lon="35.0106400">
<ele>255.960007</ele>
<time>2021-04-17T08:15:26.996Z</time>
</trkpt>
<trkpt lat="31.8215000" lon="35.0104000">
<ele>256.100006</ele>
<time>2021-04-17T08:15:26.996Z</time>
</trkpt>
<trkpt lat="31.8214800" lon="35.0102900">
<ele>255.759995</ele>
<time>2021-04-17T08:15:26.996Z</time>
</trkpt>
<trkpt lat="31.8214900" lon="35.0101100">
<ele>254.939987</ele>
<time>2021-04-17T08:15:26.996Z</time>
</trkpt>
<trkpt lat="31.8215200" lon="35.0099300">
<ele>254.510010</ele>
<time>2021-04-17T08:15:26.996Z</time>
</trkpt>
<trkpt lat="31.8215600" lon="35.0098300">
<ele>254.239990</ele>
<time>2021-04-17T08:15:26.996Z</time>
</trkpt>
<trkpt lat="31.8216600" lon="35.0096800">
<ele>252.479996</ele>
<time>2021-04-17T08:15:26.996Z</time>
</trkpt>
<trkpt lat="31.8217600" lon="35.0095900">
<ele>251.960007</ele>
<time>2021-04-17T08:15:26.997Z</time>
</trkpt>
<trkpt lat="31.8223200" lon="35.0091800">
<ele>246.940002</ele>
<time>2021-04-17T08:15:26.997Z</time>
</trkpt>
<trkpt lat="31.8224200" lon="35.0090600">
<ele>246.360001</ele>
<time>2021-04-17T08:15:26.997Z</time>
</trkpt>
<trkpt lat="31.8225600" lon="35.0088600">
<ele>245.819992</ele>
<time>2021-04-17T08:15:26.997Z</time>
</trkpt>
<trkpt lat="31.8228100" lon="35.0081600">
<ele>244.349991</ele>
<time>2021-04-17T08:15:26.997Z</time>
</trkpt>
<trkpt lat="31.8229400" lon="35.0078800">
<ele>245.099991</ele>
<time>2021-04-17T08:15:26.997Z</time>
</trkpt>
<trkpt lat="31.8230500" lon="35.0076800">
<ele>245.040009</ele>
<time>2021-04-17T08:15:26.997Z</time>
</trkpt>
<trkpt lat="31.8232900" lon="35.0073000">
<ele>241.860016</ele>
<time>2021-04-17T08:15:26.997Z</time>
</trkpt>
<trkpt lat="31.8239800" lon="35.0061500">
<ele>241.199997</ele>
<time>2021-04-17T08:15:26.997Z</time>
</trkpt>
<trkpt lat="31.8243900" lon="35.0056000">
<ele>235.099991</ele>
<time>2021-04-17T08:15:26.997Z</time>
</trkpt>
<trkpt lat="31.8245900" lon="35.0053600">
<ele>232.750000</ele>
<time>2021-04-17T08:15:26.997Z</time>
</trkpt>
<trkpt lat="31.8248100" lon="35.0049800">
<ele>231.929993</ele>
<time>2021-04-17T08:15:26.997Z</time>
</trkpt>
<trkpt lat="31.8248700" lon="35.0048400">
<ele>232.290009</ele>
<time>2021-04-17T08:15:26.997Z</time>
</trkpt>
<trkpt lat="31.8249300" lon="35.0046500">
<ele>232.300003</ele>
<time>2021-04-17T08:15:26.997Z</time>
</trkpt>
<trkpt lat="31.8249600" lon="35.0044800">
<ele>231.970001</ele>
<time>2021-04-17T08:15:26.997Z</time>
</trkpt>
<trkpt lat="31.8251300" lon="35.0030700">
<ele>228.899994</ele>
<time>2021-04-17T08:15:26.997Z</time>
</trkpt>
<trkpt lat="31.8251600" lon="35.0026200">
<ele>230.629990</ele>
<time>2021-04-17T08:15:26.997Z</time>
</trkpt>
<trkpt lat="31.8250700" lon="35.0022100">
<ele>230.660004</ele>
<time>2021-04-17T08:15:26.997Z</time>
</trkpt>
<trkpt lat="31.8249100" lon="35.0017700">
<ele>229.240005</ele>
<time>2021-04-17T08:15:26.997Z</time>
</trkpt>
<trkpt lat="31.8246800" lon="35.0011700">
<ele>226.759995</ele>
<time>2021-04-17T08:15:26.997Z</time>
</trkpt>
<trkpt lat="31.8244700" lon="35.0007300">
<ele>225.110001</ele>
<time>2021-04-17T08:15:26.997Z</time>
</trkpt>
<trkpt lat="31.8244200" lon="35.0006200">
<ele>224.820007</ele>
<time>2021-04-17T08:15:26.997Z</time>
</trkpt>
<trkpt lat="31.8243800" lon="35.0004800">
<ele>224.449997</ele>
<time>2021-04-17T08:15:26.998Z</time>
</trkpt>
<trkpt lat="31.8241400" lon="34.9998200">
<ele>224.540009</ele>
<time>2021-04-17T08:15:26.998Z</time>
</trkpt>
<trkpt lat="31.8239700" lon="34.9994600">
<ele>226.199997</ele>
<time>2021-04-17T08:15:26.998Z</time>
</trkpt>
<trkpt lat="31.8238700" lon="34.9993000">
<ele>229.100006</ele>
<time>2021-04-17T08:15:26.998Z</time>
</trkpt>
<trkpt lat="31.8235800" lon="34.9989800">
<ele>237.429993</ele>
<time>2021-04-17T08:15:26.998Z</time>
</trkpt>
<trkpt lat="31.8235300" lon="34.9988800">
<ele>237.029999</ele>
<time>2021-04-17T08:15:26.998Z</time>
</trkpt>
<trkpt lat="31.8235100" lon="34.9987900">
<ele>235.940002</ele>
<time>2021-04-17T08:15:26.998Z</time>
</trkpt>
<trkpt lat="31.8235200" lon="34.9987000">
<ele>234.360001</ele>
<time>2021-04-17T08:15:26.998Z</time>
</trkpt>
<trkpt lat="31.8235800" lon="34.9982800">
<ele>227.779999</ele>
<time>2021-04-17T08:15:26.998Z</time>
</trkpt>
<trkpt lat="31.8235600" lon="34.9981400">
<ele>228.289993</ele>
<time>2021-04-17T08:15:26.998Z</time>
</trkpt>
<trkpt lat="31.8234400" lon="34.9978900">
<ele>230.940002</ele>
<time>2021-04-17T08:15:26.998Z</time>
</trkpt>
<trkpt lat="31.8233700" lon="34.9976800">
<ele>232.000000</ele>
<time>2021-04-17T08:15:26.998Z</time>
</trkpt>
<trkpt lat="31.8233200" lon="34.9975200">
<ele>232.130005</ele>
<time>2021-04-17T08:15:26.998Z</time>
</trkpt>
<trkpt lat="31.8232000" lon="34.9969600">
<ele>228.549988</ele>
<time>2021-04-17T08:15:26.998Z</time>
</trkpt>
<trkpt lat="31.8232500" lon="34.9965200">
<ele>226.389999</ele>
<time>2021-04-17T08:15:26.998Z</time>
</trkpt>
<trkpt lat="31.8235100" lon="34.9958400">
<ele>220.300003</ele>
<time>2021-04-17T08:15:26.998Z</time>
</trkpt>
<trkpt lat="31.8228300" lon="34.9956900">
<ele>218.460007</ele>
<time>2021-04-17T08:15:26.998Z</time>
</trkpt>
<trkpt lat="31.8224800" lon="34.9954800">
<ele>213.529999</ele>
<time>2021-04-17T08:15:26.998Z</time>
</trkpt>
<trkpt lat="31.8224400" lon="34.9954800">
<ele>213.139999</ele>
<time>2021-04-17T08:15:26.998Z</time>
</trkpt>
<trkpt lat="31.8221500" lon="34.9955200">
<ele>211.550003</ele>
<time>2021-04-17T08:15:26.998Z</time>
</trkpt>
<trkpt lat="31.8216000" lon="34.9961400">
<ele>209.210007</ele>
<time>2021-04-17T08:15:26.998Z</time>
</trkpt>
<trkpt lat="31.8212900" lon="34.9964000">
<ele>210.010010</ele>
<time>2021-04-17T08:15:26.998Z</time>
</trkpt>
<trkpt lat="31.8211400" lon="34.9964500">
<ele>208.750000</ele>
<time>2021-04-17T08:15:26.998Z</time>
</trkpt>
<trkpt lat="31.8208400" lon="34.9964700">
<ele>215.989990</ele>
<time>2021-04-17T08:15:26.998Z</time>
</trkpt>
<trkpt lat="31.8204600" lon="34.9964000">
<ele>223.589996</ele>
<time>2021-04-17T08:15:26.998Z</time>
</trkpt>
<trkpt lat="31.8199700" lon="34.9962900">
<ele>216.119995</ele>
<time>2021-04-17T08:15:26.999Z</time>
</trkpt>
<trkpt lat="31.8195400" lon="34.9962700">
<ele>217.110001</ele>
<time>2021-04-17T08:15:26.999Z</time>
</trkpt>
<trkpt lat="31.8195200" lon="34.9962700">
<ele>217.030014</ele>
<time>2021-04-17T08:15:26.999Z</time>
</trkpt>
<trkpt lat="31.8191700" lon="34.9965700">
<ele>223.259995</ele>
<time>2021-04-17T08:15:26.999Z</time>
</trkpt>
<trkpt lat="31.8191500" lon="34.9964500">
<ele>221.300003</ele>
<time>2021-04-17T08:15:26.999Z</time>
</trkpt>
<trkpt lat="31.8190200" lon="34.9962300">
<ele>221.269989</ele>
<time>2021-04-17T08:15:26.999Z</time>
</trkpt>
<trkpt lat="31.8188900" lon="34.9960000">
<ele>222.580002</ele>
<time>2021-04-17T08:15:26.999Z</time>
</trkpt>
<trkpt lat="31.8188400" lon="34.9958300">
<ele>222.550003</ele>
<time>2021-04-17T08:15:26.999Z</time>
</trkpt>
<trkpt lat="31.8188100" lon="34.9957000">
<ele>223.539993</ele>
<time>2021-04-17T08:15:26.999Z</time>
</trkpt>
<trkpt lat="31.8187200" lon="34.9955400">
<ele>224.690002</ele>
<time>2021-04-17T08:15:26.999Z</time>
</trkpt>
<trkpt lat="31.8187200" lon="34.9953700">
<ele>225.539993</ele>
<time>2021-04-17T08:15:26.999Z</time>
</trkpt>
<trkpt lat="31.8187500" lon="34.9952500">
<ele>226.100006</ele>
<time>2021-04-17T08:15:26.999Z</time>
</trkpt>
<trkpt lat="31.8188500" lon="34.9949800">
<ele>231.159988</ele>
<time>2021-04-17T08:15:26.999Z</time>
</trkpt>
<trkpt lat="31.8188500" lon="34.9948500">
<ele>234.770004</ele>
<time>2021-04-17T08:15:26.999Z</time>
</trkpt>
<trkpt lat="31.8188300" lon="34.9947700">
<ele>236.149994</ele>
<time>2021-04-17T08:15:26.999Z</time>
</trkpt>
<trkpt lat="31.8187800" lon="34.9947100">
<ele>235.710007</ele>
<time>2021-04-17T08:15:26.999Z</time>
</trkpt>
<trkpt lat="31.8186700" lon="34.9946000">
<ele>235.699997</ele>
<time>2021-04-17T08:15:26.999Z</time>
</trkpt>
<trkpt lat="31.8185300" lon="34.9945600">
<ele>234.739990</ele>
<time>2021-04-17T08:15:26.999Z</time>
</trkpt>
<trkpt lat="31.8183500" lon="34.9945500">
<ele>233.149994</ele>
<time>2021-04-17T08:15:26.999Z</time>
</trkpt>
<trkpt lat="31.8182800" lon="34.9945200">
<ele>233.649994</ele>
<time>2021-04-17T08:15:26.999Z</time>
</trkpt>
<trkpt lat="31.8181400" lon="34.9945000">
<ele>233.559998</ele>
<time>2021-04-17T08:15:26.999Z</time>
</trkpt>
<trkpt lat="31.8180700" lon="34.9944700">
<ele>233.720001</ele>
<time>2021-04-17T08:15:26.999Z</time>
</trkpt>
<trkpt lat="31.8177900" lon="34.9944100">
<ele>239.659988</ele>
<time>2021-04-17T08:15:26.999Z</time>
</trkpt>
<trkpt lat="31.8176200" lon="34.9943500">
<ele>242.710007</ele>
<time>2021-04-17T08:15:26.999Z</time>
</trkpt>
<trkpt lat="31.8174800" lon="34.9943300">
<ele>244.579987</ele>
<time>2021-04-17T08:15:26.999Z</time>
</trkpt>
<trkpt lat="31.8172900" lon="34.9942200">
<ele>250.489990</ele>
<time>2021-04-17T08:15:26.999Z</time>
</trkpt>
<trkpt lat="31.8172100" lon="34.9941400">
<ele>253.600006</ele>
<time>2021-04-17T08:15:27.000Z</time>
</trkpt>
<trkpt lat="31.8171000" lon="34.9938700">
<ele>258.640015</ele>
<time>2021-04-17T08:15:27.000Z</time>
</trkpt>
<trkpt lat="31.8170100" lon="34.9935900">
<ele>262.010010</ele>
<time>2021-04-17T08:15:27.000Z</time>
</trkpt>
<trkpt lat="31.8169200" lon="34.9931300">
<ele>265.399994</ele>
<time>2021-04-17T08:15:27.000Z</time>
</trkpt>
<trkpt lat="31.8168300" lon="34.9929500">
<ele>263.209991</ele>
<time>2021-04-17T08:15:27.000Z</time>
</trkpt>
<trkpt lat="31.8167400" lon="34.9928800">
<ele>261.160004</ele>
<time>2021-04-17T08:15:27.000Z</time>
</trkpt>
<trkpt lat="31.8166300" lon="34.9928800">
<ele>259.479980</ele>
<time>2021-04-17T08:15:27.000Z</time>
</trkpt>
<trkpt lat="31.8165600" lon="34.9928900">
<ele>258.369995</ele>
<time>2021-04-17T08:15:27.000Z</time>
</trkpt>
<trkpt lat="31.8164500" lon="34.9929200">
<ele>256.619995</ele>
<time>2021-04-17T08:15:27.000Z</time>
</trkpt>
<trkpt lat="31.8163300" lon="34.9929800">
<ele>255.300003</ele>
<time>2021-04-17T08:15:27.000Z</time>
</trkpt>
<trkpt lat="31.8162300" lon="34.9930800">
<ele>254.720001</ele>
<time>2021-04-17T08:15:27.000Z</time>
</trkpt>
<trkpt lat="31.8161300" lon="34.9931100">
<ele>253.760010</ele>
<time>2021-04-17T08:15:27.000Z</time>
</trkpt>
<trkpt lat="31.8160500" lon="34.9931100">
<ele>252.639999</ele>
<time>2021-04-17T08:15:27.000Z</time>
</trkpt>
<trkpt lat="31.8159900" lon="34.9930800">
<ele>252.000000</ele>
<time>2021-04-17T08:15:27.000Z</time>
</trkpt>
<trkpt lat="31.8159400" lon="34.9930100">
<ele>252.080002</ele>
<time>2021-04-17T08:15:27.000Z</time>
</trkpt>
<trkpt lat="31.8159300" lon="34.9928900">
<ele>253.520004</ele>
<time>2021-04-17T08:15:27.000Z</time>
</trkpt>
<trkpt lat="31.8159700" lon="34.9927700">
<ele>254.709991</ele>
<time>2021-04-17T08:15:27.000Z</time>
</trkpt>
<trkpt lat="31.8160500" lon="34.9926300">
<ele>256.670013</ele>
<time>2021-04-17T08:15:27.000Z</time>
</trkpt>
<trkpt lat="31.8163800" lon="34.9921500">
<ele>264.119995</ele>
<time>2021-04-17T08:15:27.000Z</time>
</trkpt>
<trkpt lat="31.8165500" lon="34.9917200">
<ele>271.869995</ele>
<time>2021-04-17T08:15:27.000Z</time>
</trkpt>
<trkpt lat="31.8166100" lon="34.9912400">
<ele>284.350006</ele>
<time>2021-04-17T08:15:27.000Z</time>
</trkpt>
<trkpt lat="31.8166300" lon="34.9911400">
<ele>286.570007</ele>
<time>2021-04-17T08:15:27.000Z</time>
</trkpt>
<trkpt lat="31.8166800" lon="34.9910800">
<ele>288.000000</ele>
<time>2021-04-17T08:15:27.000Z</time>
</trkpt>
<trkpt lat="31.8167500" lon="34.9910400">
<ele>288.570007</ele>
<time>2021-04-17T08:15:27.000Z</time>
</trkpt>
<trkpt lat="31.8168200" lon="34.9910400">
<ele>289.270020</ele>
<time>2021-04-17T08:15:27.000Z</time>
</trkpt>
<trkpt lat="31.8169500" lon="34.9911200">
<ele>290.010010</ele>
<time>2021-04-17T08:15:27.000Z</time>
</trkpt>
<trkpt lat="31.8172500" lon="34.9914200">
<ele>293.010010</ele>
<time>2021-04-17T08:15:27.000Z</time>
</trkpt>
<trkpt lat="31.8176000" lon="34.9918500">
<ele>293.680023</ele>
<time>2021-04-17T08:15:27.001Z</time>
</trkpt>
<trkpt lat="31.8178200" lon="34.9920200">
<ele>291.149994</ele>
<time>2021-04-17T08:15:27.001Z</time>
</trkpt>
<trkpt lat="31.8178800" lon="34.9920400">
<ele>290.449982</ele>
<time>2021-04-17T08:15:27.001Z</time>
</trkpt>
<trkpt lat="31.8179600" lon="34.9920500">
<ele>289.910004</ele>
<time>2021-04-17T08:15:27.001Z</time>
</trkpt>
<trkpt lat="31.8180600" lon="34.9920200">
<ele>289.869995</ele>
<time>2021-04-17T08:15:27.001Z</time>
</trkpt>
<trkpt lat="31.8181200" lon="34.9919700">
<ele>289.959991</ele>
<time>2021-04-17T08:15:27.001Z</time>
</trkpt>
<trkpt lat="31.8182100" lon="34.9918100">
<ele>290.250000</ele>
<time>2021-04-17T08:15:27.001Z</time>
</trkpt>
<trkpt lat="31.8182600" lon="34.9918100">
<ele>289.529999</ele>
<time>2021-04-17T08:15:27.001Z</time>
</trkpt>
<trkpt lat="31.8182100" lon="34.9918100">
<ele>290.250000</ele>
<time>2021-04-17T08:15:27.001Z</time>
</trkpt>
<trkpt lat="31.8180500" lon="34.9916000">
<ele>294.020020</ele>
<time>2021-04-17T08:15:27.001Z</time>
</trkpt>
<trkpt lat="31.8179100" lon="34.9913200">
<ele>295.279999</ele>
<time>2021-04-17T08:15:27.001Z</time>
</trkpt>
<trkpt lat="31.8177000" lon="34.9907800">
<ele>298.209991</ele>
<time>2021-04-17T08:15:27.001Z</time>
</trkpt>
<trkpt lat="31.8174400" lon="34.9902800">
<ele>302.339996</ele>
<time>2021-04-17T08:15:27.001Z</time>
</trkpt>
<trkpt lat="31.8173700" lon="34.9900100">
<ele>299.220001</ele>
<time>2021-04-17T08:15:27.001Z</time>
</trkpt>
<trkpt lat="31.8172400" lon="34.9900400">
<ele>297.679993</ele>
<time>2021-04-17T08:15:27.001Z</time>
</trkpt>
<trkpt lat="31.8172100" lon="34.9900500">
<ele>297.210022</ele>
<time>2021-04-17T08:15:27.001Z</time>
</trkpt>
<trkpt lat="31.8170400" lon="34.9900900">
<ele>292.739990</ele>
<time>2021-04-17T08:15:27.001Z</time>
</trkpt>
<trkpt lat="31.8166800" lon="34.9901800">
<ele>285.679993</ele>
<time>2021-04-17T08:15:27.001Z</time>
</trkpt>
<trkpt lat="31.8159800" lon="34.9903100">
<ele>296.589996</ele>
<time>2021-04-17T08:15:27.001Z</time>
</trkpt>
<trkpt lat="31.8157500" lon="34.9903700">
<ele>298.570007</ele>
<time>2021-04-17T08:15:27.001Z</time>
</trkpt>
<trkpt lat="31.8155400" lon="34.9903200">
<ele>298.850006</ele>
<time>2021-04-17T08:15:27.001Z</time>
</trkpt>
<trkpt lat="31.8152100" lon="34.9902100">
<ele>305.049988</ele>
<time>2021-04-17T08:15:27.001Z</time>
</trkpt>
<trkpt lat="31.8148500" lon="34.9900000">
<ele>312.459991</ele>
<time>2021-04-17T08:15:27.001Z</time>
</trkpt>
<trkpt lat="31.8142200" lon="34.9896500">
<ele>319.030029</ele>
<time>2021-04-17T08:15:27.001Z</time>
</trkpt>
<trkpt lat="31.8135700" lon="34.9894000">
<ele>327.049988</ele>
<time>2021-04-17T08:15:27.001Z</time>
</trkpt>
<trkpt lat="31.8134300" lon="34.9893500">
<ele>328.559998</ele>
<time>2021-04-17T08:15:27.001Z</time>
</trkpt>
<trkpt lat="31.8126000" lon="34.9892000">
<ele>316.029999</ele>
<time>2021-04-17T08:15:27.002Z</time>
</trkpt>
<trkpt lat="31.8121700" lon="34.9891300">
<ele>307.600006</ele>
<time>2021-04-17T08:15:27.002Z</time>
</trkpt>
<trkpt lat="31.8117500" lon="34.9892600">
<ele>309.240021</ele>
<time>2021-04-17T08:15:27.002Z</time>
</trkpt>
<trkpt lat="31.8116000" lon="34.9893200">
<ele>309.549988</ele>
<time>2021-04-17T08:15:27.002Z</time>
</trkpt>
<trkpt lat="31.8112900" lon="34.9894900">
<ele>310.100006</ele>
<time>2021-04-17T08:15:27.002Z</time>
</trkpt>
<trkpt lat="31.8111300" lon="34.9895900">
<ele>309.809998</ele>
<time>2021-04-17T08:15:27.002Z</time>
</trkpt>
<trkpt lat="31.8107900" lon="34.9895400">
<ele>305.380005</ele>
<time>2021-04-17T08:15:27.002Z</time>
</trkpt>
<trkpt lat="31.8106100" lon="34.9895400">
<ele>306.940002</ele>
<time>2021-04-17T08:15:27.002Z</time>
</trkpt>
<trkpt lat="31.8104200" lon="34.9895800">
<ele>310.649994</ele>
<time>2021-04-17T08:15:27.002Z</time>
</trkpt>
<trkpt lat="31.8102300" lon="34.9896700">
<ele>313.729980</ele>
<time>2021-04-17T08:15:27.002Z</time>
</trkpt>
<trkpt lat="31.8094700" lon="34.9902500">
<ele>309.630005</ele>
<time>2021-04-17T08:15:27.002Z</time>
</trkpt>
<trkpt lat="31.8080800" lon="34.9914200">
<ele>311.570007</ele>
<time>2021-04-17T08:15:27.002Z</time>
</trkpt>
<trkpt lat="31.8078800" lon="34.9915300">
<ele>313.220001</ele>
<time>2021-04-17T08:15:27.002Z</time>
</trkpt>
<trkpt lat="31.8077000" lon="34.9914600">
<ele>314.820007</ele>
<time>2021-04-17T08:15:27.002Z</time>
</trkpt>
<trkpt lat="31.8075500" lon="34.9912900">
<ele>319.729980</ele>
<time>2021-04-17T08:15:27.002Z</time>
</trkpt>
<trkpt lat="31.8075400" lon="34.9912700">
<ele>320.050018</ele>
<time>2021-04-17T08:15:27.002Z</time>
</trkpt>
<trkpt lat="31.8073300" lon="34.9909200">
<ele>325.130005</ele>
<time>2021-04-17T08:15:27.002Z</time>
</trkpt>
<trkpt lat="31.8071900" lon="34.9907200">
<ele>326.529999</ele>
<time>2021-04-17T08:15:27.002Z</time>
</trkpt>
<trkpt lat="31.8069400" lon="34.9905300">
<ele>327.890015</ele>
<time>2021-04-17T08:15:27.002Z</time>
</trkpt>
<trkpt lat="31.8067800" lon="34.9904600">
<ele>326.659973</ele>
<time>2021-04-17T08:15:27.002Z</time>
</trkpt>
<trkpt lat="31.8066700" lon="34.9904500">
<ele>325.880005</ele>
<time>2021-04-17T08:15:27.002Z</time>
</trkpt>
<trkpt lat="31.8063400" lon="34.9904700">
<ele>320.079987</ele>
<time>2021-04-17T08:15:27.002Z</time>
</trkpt>
<trkpt lat="31.8060800" lon="34.9905000">
<ele>321.290009</ele>
<time>2021-04-17T08:15:27.002Z</time>
</trkpt>
<trkpt lat="31.8055600" lon="34.9906800">
<ele>317.549988</ele>
<time>2021-04-17T08:15:27.002Z</time>
</trkpt>
<trkpt lat="31.8043700" lon="34.9914900">
<ele>326.890015</ele>
<time>2021-04-17T08:15:27.002Z</time>
</trkpt>
<trkpt lat="31.8041800" lon="34.9915600">
<ele>329.970001</ele>
<time>2021-04-17T08:15:27.002Z</time>
</trkpt>
<trkpt lat="31.8039100" lon="34.9915300">
<ele>335.070007</ele>
<time>2021-04-17T08:15:27.002Z</time>
</trkpt>
<trkpt lat="31.8037700" lon="34.9915600">
<ele>336.279999</ele>
<time>2021-04-17T08:15:27.003Z</time>
</trkpt>
<trkpt lat="31.8037100" lon="34.9916300">
<ele>337.250000</ele>
<time>2021-04-17T08:15:27.003Z</time>
</trkpt>
<trkpt lat="31.8035900" lon="34.9918200">
<ele>340.010010</ele>
<time>2021-04-17T08:15:27.003Z</time>
</trkpt>
<trkpt lat="31.8035400" lon="34.9919200">
<ele>340.900024</ele>
<time>2021-04-17T08:15:27.003Z</time>
</trkpt>
<trkpt lat="31.8034300" lon="34.9921500">
<ele>342.779999</ele>
<time>2021-04-17T08:15:27.003Z</time>
</trkpt>
<trkpt lat="31.8033200" lon="34.9923600">
<ele>343.890015</ele>
<time>2021-04-17T08:15:27.003Z</time>
</trkpt>
<trkpt lat="31.8032000" lon="34.9925700">
<ele>344.649994</ele>
<time>2021-04-17T08:15:27.003Z</time>
</trkpt>
<trkpt lat="31.8031100" lon="34.9927000">
<ele>342.020020</ele>
<time>2021-04-17T08:15:27.003Z</time>
</trkpt>
<trkpt lat="31.8029500" lon="34.9928700">
<ele>336.979980</ele>
<time>2021-04-17T08:15:27.003Z</time>
</trkpt>
<trkpt lat="31.8028300" lon="34.9929500">
<ele>334.270020</ele>
<time>2021-04-17T08:15:27.003Z</time>
</trkpt>
<trkpt lat="31.8026900" lon="34.9930500">
<ele>332.380005</ele>
<time>2021-04-17T08:15:27.003Z</time>
</trkpt>
<trkpt lat="31.8022000" lon="34.9932800">
<ele>334.650024</ele>
<time>2021-04-17T08:15:27.003Z</time>
</trkpt>
<trkpt lat="31.8021500" lon="34.9932900">
<ele>335.269989</ele>
<time>2021-04-17T08:15:27.003Z</time>
</trkpt>
<trkpt lat="31.8020000" lon="34.9933700">
<ele>338.139984</ele>
<time>2021-04-17T08:15:27.003Z</time>
</trkpt>
<trkpt lat="31.8019100" lon="34.9933900">
<ele>339.470001</ele>
<time>2021-04-17T08:15:27.003Z</time>
</trkpt>
<trkpt lat="31.8017900" lon="34.9934700">
<ele>341.250031</ele>
<time>2021-04-17T08:15:27.003Z</time>
</trkpt>
<trkpt lat="31.8016600" lon="34.9935800">
<ele>341.869995</ele>
<time>2021-04-17T08:15:27.003Z</time>
</trkpt>
<trkpt lat="31.8015700" lon="34.9937100">
<ele>342.940002</ele>
<time>2021-04-17T08:15:27.003Z</time>
</trkpt>
<trkpt lat="31.8014300" lon="34.9939300">
<ele>344.249969</ele>
<time>2021-04-17T08:15:27.003Z</time>
</trkpt>
<trkpt lat="31.8012400" lon="34.9942900">
<ele>342.350006</ele>
<time>2021-04-17T08:15:27.003Z</time>
</trkpt>
<trkpt lat="31.8011900" lon="34.9943800">
<ele>341.750000</ele>
<time>2021-04-17T08:15:27.003Z</time>
</trkpt>
<trkpt lat="31.8011400" lon="34.9944300">
<ele>341.269989</ele>
<time>2021-04-17T08:15:27.003Z</time>
</trkpt>
<trkpt lat="31.8011000" lon="34.9944800">
<ele>341.059998</ele>
<time>2021-04-17T08:15:27.003Z</time>
</trkpt>
<trkpt lat="31.8009800" lon="34.9945800">
<ele>339.849976</ele>
<time>2021-04-17T08:15:27.003Z</time>
</trkpt>
<trkpt lat="31.8008200" lon="34.9946600">
<ele>338.230011</ele>
<time>2021-04-17T08:15:27.003Z</time>
</trkpt>
<trkpt lat="31.8006900" lon="34.9946800">
<ele>337.510010</ele>
<time>2021-04-17T08:15:27.003Z</time>
</trkpt>
<trkpt lat="31.8005700" lon="34.9946800">
<ele>336.649994</ele>
<time>2021-04-17T08:15:27.003Z</time>
</trkpt>
<trkpt lat="31.8002500" lon="34.9946200">
<ele>338.580017</ele>
<time>2021-04-17T08:15:27.004Z</time>
</trkpt>
<trkpt lat="31.8001300" lon="34.9946200">
<ele>338.380005</ele>
<time>2021-04-17T08:15:27.004Z</time>
</trkpt>
<trkpt lat="31.7999900" lon="34.9946400">
<ele>338.469971</ele>
<time>2021-04-17T08:15:27.004Z</time>
</trkpt>
<trkpt lat="31.7997600" lon="34.9947700">
<ele>339.679993</ele>
<time>2021-04-17T08:15:27.004Z</time>
</trkpt>
<trkpt lat="31.7995800" lon="34.9949700">
<ele>342.989990</ele>
<time>2021-04-17T08:15:27.004Z</time>
</trkpt>
<trkpt lat="31.7993200" lon="34.9953800">
<ele>345.759979</ele>
<time>2021-04-17T08:15:27.004Z</time>
</trkpt>
<trkpt lat="31.7991500" lon="34.9956000">
<ele>347.049988</ele>
<time>2021-04-17T08:15:27.004Z</time>
</trkpt>
<trkpt lat="31.7988000" lon="34.9959900">
<ele>347.150024</ele>
<time>2021-04-17T08:15:27.004Z</time>
</trkpt>
<trkpt lat="31.7984900" lon="34.9962800">
<ele>347.920013</ele>
<time>2021-04-17T08:15:27.004Z</time>
</trkpt>
<trkpt lat="31.7982500" lon="34.9965900">
<ele>350.490021</ele>
<time>2021-04-17T08:15:27.004Z</time>
</trkpt>
<trkpt lat="31.7980900" lon="34.9967800">
<ele>350.610016</ele>
<time>2021-04-17T08:15:27.004Z</time>
</trkpt>
<trkpt lat="31.7979800" lon="34.9969100">
<ele>350.769989</ele>
<time>2021-04-17T08:15:27.004Z</time>
</trkpt>
<trkpt lat="31.7977400" lon="34.9971300">
<ele>353.799988</ele>
<time>2021-04-17T08:15:27.004Z</time>
</trkpt>
<trkpt lat="31.7975900" lon="34.9972400">
<ele>352.580017</ele>
<time>2021-04-17T08:15:27.004Z</time>
</trkpt>
<trkpt lat="31.7974600" lon="34.9973100">
<ele>351.050018</ele>
<time>2021-04-17T08:15:27.004Z</time>
</trkpt>
<trkpt lat="31.7973700" lon="34.9973400">
<ele>351.199982</ele>
<time>2021-04-17T08:15:27.004Z</time>
</trkpt>
<trkpt lat="31.7970800" lon="34.9973900">
<ele>354.369995</ele>
<time>2021-04-17T08:15:27.004Z</time>
</trkpt>
<trkpt lat="31.7969400" lon="34.9974300">
<ele>357.080017</ele>
<time>2021-04-17T08:15:27.004Z</time>
</trkpt>
<trkpt lat="31.7967600" lon="34.9974600">
<ele>360.320007</ele>
<time>2021-04-17T08:15:27.004Z</time>
</trkpt>
<trkpt lat="31.7965100" lon="34.9974500">
<ele>365.489990</ele>
<time>2021-04-17T08:15:27.004Z</time>
</trkpt>
<trkpt lat="31.7962700" lon="34.9973600">
<ele>370.640015</ele>
<time>2021-04-17T08:15:27.004Z</time>
</trkpt>
<trkpt lat="31.7960300" lon="34.9972300">
<ele>374.850006</ele>
<time>2021-04-17T08:15:27.004Z</time>
</trkpt>
<trkpt lat="31.7958500" lon="34.9971300">
<ele>377.819977</ele>
<time>2021-04-17T08:15:27.004Z</time>
</trkpt>
<trkpt lat="31.7956000" lon="34.9969600">
<ele>381.610016</ele>
<time>2021-04-17T08:15:27.004Z</time>
</trkpt>
<trkpt lat="31.7955200" lon="34.9968900">
<ele>381.989990</ele>
<time>2021-04-17T08:15:27.004Z</time>
</trkpt>
<trkpt lat="31.7951600" lon="34.9966800">
<ele>380.739990</ele>
<time>2021-04-17T08:15:27.004Z</time>
</trkpt>
<trkpt lat="31.7949700" lon="34.9966000">
<ele>378.050018</ele>
<time>2021-04-17T08:15:27.004Z</time>
</trkpt>
<trkpt lat="31.7949000" lon="34.9965900">
<ele>377.660004</ele>
<time>2021-04-17T08:15:27.005Z</time>
</trkpt>
<trkpt lat="31.7948100" lon="34.9966000">
<ele>377.040009</ele>
<time>2021-04-17T08:15:27.005Z</time>
</trkpt>
<trkpt lat="31.7945900" lon="34.9967000">
<ele>374.869995</ele>
<time>2021-04-17T08:15:27.005Z</time>
</trkpt>
<trkpt lat="31.7942900" lon="34.9968900">
<ele>375.190002</ele>
<time>2021-04-17T08:15:27.005Z</time>
</trkpt>
<trkpt lat="31.7940200" lon="34.9970300">
<ele>376.470001</ele>
<time>2021-04-17T08:15:27.005Z</time>
</trkpt>
<trkpt lat="31.7937300" lon="34.9971900">
<ele>375.350006</ele>
<time>2021-04-17T08:15:27.005Z</time>
</trkpt>
<trkpt lat="31.7930900" lon="34.9974500">
<ele>371.929993</ele>
<time>2021-04-17T08:15:27.005Z</time>
</trkpt>
<trkpt lat="31.7928400" lon="34.9976100">
<ele>367.899994</ele>
<time>2021-04-17T08:15:27.005Z</time>
</trkpt>
<trkpt lat="31.7925700" lon="34.9977300">
<ele>367.239990</ele>
<time>2021-04-17T08:15:27.005Z</time>
</trkpt>
<trkpt lat="31.7924400" lon="34.9977500">
<ele>367.190002</ele>
<time>2021-04-17T08:15:27.005Z</time>
</trkpt>
<trkpt lat="31.7921700" lon="34.9977500">
<ele>368.430023</ele>
<time>2021-04-17T08:15:27.005Z</time>
</trkpt>
<trkpt lat="31.7919600" lon="34.9976700">
<ele>366.869995</ele>
<time>2021-04-17T08:15:27.005Z</time>
</trkpt>
<trkpt lat="31.7918100" lon="34.9977700">
<ele>367.899994</ele>
<time>2021-04-17T08:15:27.005Z</time>
</trkpt>
<trkpt lat="31.7916300" lon="34.9979500">
<ele>372.600006</ele>
<time>2021-04-17T08:15:27.005Z</time>
</trkpt>
<trkpt lat="31.7915400" lon="34.9980200">
<ele>375.020020</ele>
<time>2021-04-17T08:15:27.005Z</time>
</trkpt>
<trkpt lat="31.7914500" lon="34.9980500">
<ele>376.420013</ele>
<time>2021-04-17T08:15:27.005Z</time>
</trkpt>
<trkpt lat="31.7913600" lon="34.9980700">
<ele>377.100006</ele>
<time>2021-04-17T08:15:27.005Z</time>
</trkpt>
<trkpt lat="31.7910500" lon="34.9980100">
<ele>374.229980</ele>
<time>2021-04-17T08:15:27.005Z</time>
</trkpt>
<trkpt lat="31.7909600" lon="34.9980400">
<ele>374.320007</ele>
<time>2021-04-17T08:15:27.005Z</time>
</trkpt>
<trkpt lat="31.7908900" lon="34.9981000">
<ele>375.000000</ele>
<time>2021-04-17T08:15:27.005Z</time>
</trkpt>
<trkpt lat="31.7908600" lon="34.9981500">
<ele>375.799988</ele>
<time>2021-04-17T08:15:27.005Z</time>
</trkpt>
<trkpt lat="31.7908600" lon="34.9983200">
<ele>378.859985</ele>
<time>2021-04-17T08:15:27.005Z</time>
</trkpt>
<trkpt lat="31.7909600" lon="34.9985200">
<ele>382.819977</ele>
<time>2021-04-17T08:15:27.005Z</time>
</trkpt>
<trkpt lat="31.7910500" lon="34.9986300">
<ele>384.959991</ele>
<time>2021-04-17T08:15:27.005Z</time>
</trkpt>
<trkpt lat="31.7912100" lon="34.9987600">
<ele>387.310028</ele>
<time>2021-04-17T08:15:27.005Z</time>
</trkpt>
<trkpt lat="31.7914400" lon="34.9990000">
<ele>386.800018</ele>
<time>2021-04-17T08:15:27.005Z</time>
</trkpt>
<trkpt lat="31.7917600" lon="34.9992600">
<ele>377.309998</ele>
<time>2021-04-17T08:15:27.005Z</time>
</trkpt>
<trkpt lat="31.7919900" lon="34.9995000">
<ele>374.070007</ele>
<time>2021-04-17T08:15:27.006Z</time>
</trkpt>
<trkpt lat="31.7921000" lon="34.9995700">
<ele>374.149994</ele>
<time>2021-04-17T08:15:27.006Z</time>
</trkpt>
<trkpt lat="31.7921900" lon="34.9996000">
<ele>374.170013</ele>
<time>2021-04-17T08:15:27.006Z</time>
</trkpt>
<trkpt lat="31.7922800" lon="34.9996600">
<ele>374.320007</ele>
<time>2021-04-17T08:15:27.006Z</time>
</trkpt>
<trkpt lat="31.7923300" lon="34.9997500">
<ele>374.190002</ele>
<time>2021-04-17T08:15:27.006Z</time>
</trkpt>
<trkpt lat="31.7923800" lon="34.9999900">
<ele>373.319977</ele>
<time>2021-04-17T08:15:27.006Z</time>
</trkpt>
<trkpt lat="31.7923900" lon="35.0000200">
<ele>372.960022</ele>
<time>2021-04-17T08:15:27.006Z</time>
</trkpt>
<trkpt lat="31.7924300" lon="35.0001300">
<ele>371.470001</ele>
<time>2021-04-17T08:15:27.006Z</time>
</trkpt>
<trkpt lat="31.7924400" lon="35.0001600">
<ele>371.119995</ele>
<time>2021-04-17T08:15:27.006Z</time>
</trkpt>
<trkpt lat="31.7924400" lon="35.0001600">
<ele>371.119995</ele>
<time>2021-04-17T08:15:27.006Z</time>
</trkpt>
<trkpt lat="31.7924500" lon="35.0001600">
<ele>371.080017</ele>
<time>2021-04-17T08:15:27.006Z</time>
</trkpt>
<trkpt lat="31.7924800" lon="35.0002200">
<ele>370.459991</ele>
<time>2021-04-17T08:15:27.006Z</time>
</trkpt>
<trkpt lat="31.7925600" lon="35.0003000">
<ele>369.149994</ele>
<time>2021-04-17T08:15:27.006Z</time>
</trkpt>
<trkpt lat="31.7926800" lon="35.0003800">
<ele>367.649994</ele>
<time>2021-04-17T08:15:27.006Z</time>
</trkpt>
<trkpt lat="31.7928500" lon="35.0004600">
<ele>365.529999</ele>
<time>2021-04-17T08:15:27.006Z</time>
</trkpt>
<trkpt lat="31.7930800" lon="35.0005200">
<ele>362.500000</ele>
<time>2021-04-17T08:15:27.006Z</time>
</trkpt>
<trkpt lat="31.7935700" lon="35.0005100">
<ele>357.439972</ele>
<time>2021-04-17T08:15:27.006Z</time>
</trkpt>
<trkpt lat="31.7935700" lon="35.0005100">
<ele>357.439972</ele>
<time>2021-04-17T08:15:27.006Z</time>
</trkpt>
<trkpt lat="31.7936500" lon="35.0005100">
<ele>356.669983</ele>
<time>2021-04-17T08:15:27.006Z</time>
</trkpt>
<trkpt lat="31.7938800" lon="35.0005300">
<ele>354.890015</ele>
<time>2021-04-17T08:15:27.006Z</time>
</trkpt>
<trkpt lat="31.7940100" lon="35.0005000">
<ele>352.939972</ele>
<time>2021-04-17T08:15:27.006Z</time>
</trkpt>
<trkpt lat="31.7941000" lon="35.0005900">
<ele>352.609985</ele>
<time>2021-04-17T08:15:27.006Z</time>
</trkpt>
<trkpt lat="31.7943300" lon="35.0006800">
<ele>352.630005</ele>
<time>2021-04-17T08:15:27.006Z</time>
</trkpt>
<trkpt lat="31.7944300" lon="35.0007900">
<ele>352.859985</ele>
<time>2021-04-17T08:15:27.006Z</time>
</trkpt>
<trkpt lat="31.7945300" lon="35.0007900">
<ele>353.419983</ele>
<time>2021-04-17T08:15:27.006Z</time>
</trkpt>
<trkpt lat="31.7949100" lon="35.0006700">
<ele>355.609985</ele>
<time>2021-04-17T08:15:27.006Z</time>
</trkpt>
<trkpt lat="31.7950500" lon="35.0006400">
<ele>357.500000</ele>
<time>2021-04-17T08:15:27.007Z</time>
</trkpt>
<trkpt lat="31.7953200" lon="35.0006500">
<ele>365.040009</ele>
<time>2021-04-17T08:15:27.007Z</time>
</trkpt>
<trkpt lat="31.7954100" lon="35.0006700">
<ele>366.980011</ele>
<time>2021-04-17T08:15:27.007Z</time>
</trkpt>
<trkpt lat="31.7956600" lon="35.0007900">
<ele>372.750000</ele>
<time>2021-04-17T08:15:27.007Z</time>
</trkpt>
<trkpt lat="31.7958200" lon="35.0009300">
<ele>374.699982</ele>
<time>2021-04-17T08:15:27.007Z</time>
</trkpt>
<trkpt lat="31.7958800" lon="35.0010100">
<ele>374.489990</ele>
<time>2021-04-17T08:15:27.007Z</time>
</trkpt>
<trkpt lat="31.7959200" lon="35.0011100">
<ele>374.429993</ele>
<time>2021-04-17T08:15:27.007Z</time>
</trkpt>
<trkpt lat="31.7959100" lon="35.0012500">
<ele>374.619995</ele>
<time>2021-04-17T08:15:27.007Z</time>
</trkpt>
<trkpt lat="31.7958300" lon="35.0014500">
<ele>376.650024</ele>
<time>2021-04-17T08:15:27.007Z</time>
</trkpt>
<trkpt lat="31.7958300" lon="35.0014500">
<ele>376.650024</ele>
<time>2021-04-17T08:15:27.007Z</time>
</trkpt>
<trkpt lat="31.7958300" lon="35.0014500">
<ele>376.650024</ele>
<time>2021-04-17T08:15:27.007Z</time>
</trkpt>
<trkpt lat="31.7958100" lon="35.0015000">
<ele>377.070007</ele>
<time>2021-04-17T08:15:27.007Z</time>
</trkpt>
<trkpt lat="31.7956600" lon="35.0017200">
<ele>376.410004</ele>
<time>2021-04-17T08:15:27.007Z</time>
</trkpt>
<trkpt lat="31.7949500" lon="35.0024600">
<ele>379.660004</ele>
<time>2021-04-17T08:15:27.007Z</time>
</trkpt>
<trkpt lat="31.7948900" lon="35.0025100">
<ele>380.120026</ele>
<time>2021-04-17T08:15:27.007Z</time>
</trkpt>
<trkpt lat="31.7946200" lon="35.0027600">
<ele>383.059998</ele>
<time>2021-04-17T08:15:27.007Z</time>
</trkpt>
<trkpt lat="31.7944900" lon="35.0029100">
<ele>384.350006</ele>
<time>2021-04-17T08:15:27.007Z</time>
</trkpt>
<trkpt lat="31.7944100" lon="35.0030200">
<ele>385.019989</ele>
<time>2021-04-17T08:15:27.007Z</time>
</trkpt>
<trkpt lat="31.7940800" lon="35.0036500">
<ele>384.860016</ele>
<time>2021-04-17T08:15:27.007Z</time>
</trkpt>
<trkpt lat="31.7940000" lon="35.0038400">
<ele>382.000000</ele>
<time>2021-04-17T08:15:27.007Z</time>
</trkpt>
<trkpt lat="31.7939100" lon="35.0040200">
<ele>378.539978</ele>
<time>2021-04-17T08:15:27.007Z</time>
</trkpt>
<trkpt lat="31.7935800" lon="35.0044700">
<ele>373.250000</ele>
<time>2021-04-17T08:15:27.007Z</time>
</trkpt>
<trkpt lat="31.7935500" lon="35.0044700">
<ele>373.390015</ele>
<time>2021-04-17T08:15:27.007Z</time>
</trkpt>
<trkpt lat="31.7935200" lon="35.0044800">
<ele>373.619995</ele>
<time>2021-04-17T08:15:27.007Z</time>
</trkpt>
<trkpt lat="31.7933700" lon="35.0045200">
<ele>375.079987</ele>
<time>2021-04-17T08:15:27.007Z</time>
</trkpt>
<trkpt lat="31.7932000" lon="35.0045800">
<ele>375.739990</ele>
<time>2021-04-17T08:15:27.008Z</time>
</trkpt>
<trkpt lat="31.7930900" lon="35.0045500">
<ele>374.899994</ele>
<time>2021-04-17T08:15:27.008Z</time>
</trkpt>
<trkpt lat="31.7930600" lon="35.0046500">
<ele>375.519989</ele>
<time>2021-04-17T08:15:27.008Z</time>
</trkpt>
<trkpt lat="31.7929300" lon="35.0051800">
<ele>375.199982</ele>
<time>2021-04-17T08:15:27.008Z</time>
</trkpt>
<trkpt lat="31.7927400" lon="35.0053800">
<ele>374.910004</ele>
<time>2021-04-17T08:15:27.008Z</time>
</trkpt>
<trkpt lat="31.7927200" lon="35.0054100">
<ele>374.890015</ele>
<time>2021-04-17T08:15:27.008Z</time>
</trkpt>
<trkpt lat="31.7914600" lon="35.0065900">
<ele>376.579987</ele>
<time>2021-04-17T08:15:27.008Z</time>
</trkpt>
<trkpt lat="31.7914100" lon="35.0066400">
<ele>376.880005</ele>
<time>2021-04-17T08:15:27.008Z</time>
</trkpt>
<trkpt lat="31.7910800" lon="35.0069500">
<ele>370.539978</ele>
<time>2021-04-17T08:15:27.008Z</time>
</trkpt>
<trkpt lat="31.7907300" lon="35.0072000">
<ele>368.929993</ele>
<time>2021-04-17T08:15:27.008Z</time>
</trkpt>
<trkpt lat="31.7905600" lon="35.0073500">
<ele>370.369995</ele>
<time>2021-04-17T08:15:27.008Z</time>
</trkpt>
<trkpt lat="31.7902400" lon="35.0078800">
<ele>372.509979</ele>
<time>2021-04-17T08:15:27.008Z</time>
</trkpt>
<trkpt lat="31.7900400" lon="35.0081700">
<ele>372.559998</ele>
<time>2021-04-17T08:15:27.008Z</time>
</trkpt>
<trkpt lat="31.7899000" lon="35.0083600">
<ele>372.059998</ele>
<time>2021-04-17T08:15:27.008Z</time>
</trkpt>
<trkpt lat="31.7897800" lon="35.0084600">
<ele>372.089996</ele>
<time>2021-04-17T08:15:27.008Z</time>
</trkpt>
<trkpt lat="31.7895900" lon="35.0085500">
<ele>371.689972</ele>
<time>2021-04-17T08:15:27.008Z</time>
</trkpt>
<trkpt lat="31.7895000" lon="35.0085800">
<ele>371.730011</ele>
<time>2021-04-17T08:15:27.008Z</time>
</trkpt>
<trkpt lat="31.7890900" lon="35.0087000">
<ele>363.330017</ele>
<time>2021-04-17T08:15:27.008Z</time>
</trkpt>
<trkpt lat="31.7886900" lon="35.0088600">
<ele>358.840027</ele>
<time>2021-04-17T08:15:27.008Z</time>
</trkpt>
<trkpt lat="31.7885200" lon="35.0089100">
<ele>356.639984</ele>
<time>2021-04-17T08:15:27.008Z</time>
</trkpt>
<trkpt lat="31.7880900" lon="35.0089800">
<ele>353.289978</ele>
<time>2021-04-17T08:15:27.008Z</time>
</trkpt>
<trkpt lat="31.7877500" lon="35.0091200">
<ele>354.890015</ele>
<time>2021-04-17T08:15:27.008Z</time>
</trkpt>
<trkpt lat="31.7876200" lon="35.0091500">
<ele>356.079987</ele>
<time>2021-04-17T08:15:27.008Z</time>
</trkpt>
<trkpt lat="31.7874900" lon="35.0091600">
<ele>356.749969</ele>
<time>2021-04-17T08:15:27.008Z</time>
</trkpt>
<trkpt lat="31.7872800" lon="35.0091300">
<ele>355.540009</ele>
<time>2021-04-17T08:15:27.008Z</time>
</trkpt>
<trkpt lat="31.7869000" lon="35.0090300">
<ele>355.220001</ele>
<time>2021-04-17T08:15:27.008Z</time>
</trkpt>
<trkpt lat="31.7863600" lon="35.0089300">
<ele>344.020020</ele>
<time>2021-04-17T08:15:27.008Z</time>
</trkpt>
<trkpt lat="31.7859500" lon="35.0088900">
<ele>343.179993</ele>
<time>2021-04-17T08:15:27.009Z</time>
</trkpt>
<trkpt lat="31.7856700" lon="35.0089400">
<ele>342.779999</ele>
<time>2021-04-17T08:15:27.009Z</time>
</trkpt>
<trkpt lat="31.7855000" lon="35.0090100">
<ele>343.359985</ele>
<time>2021-04-17T08:15:27.009Z</time>
</trkpt>
<trkpt lat="31.7853400" lon="35.0091100">
<ele>346.510010</ele>
<time>2021-04-17T08:15:27.009Z</time>
</trkpt>
<trkpt lat="31.7852100" lon="35.0092200">
<ele>347.880005</ele>
<time>2021-04-17T08:15:27.009Z</time>
</trkpt>
<trkpt lat="31.7851500" lon="35.0093000">
<ele>348.600006</ele>
<time>2021-04-17T08:15:27.009Z</time>
</trkpt>
<trkpt lat="31.7850200" lon="35.0095400">
<ele>351.050018</ele>
<time>2021-04-17T08:15:27.009Z</time>
</trkpt>
<trkpt lat="31.7850200" lon="35.0095600">
<ele>351.390015</ele>
<time>2021-04-17T08:15:27.009Z</time>
</trkpt>
<trkpt lat="31.7849900" lon="35.0096800">
<ele>353.010010</ele>
<time>2021-04-17T08:15:27.009Z</time>
</trkpt>
<trkpt lat="31.7849400" lon="35.0100100">
<ele>355.989990</ele>
<time>2021-04-17T08:15:27.009Z</time>
</trkpt>
<trkpt lat="31.7848900" lon="35.0106900">
<ele>355.500000</ele>
<time>2021-04-17T08:15:27.009Z</time>
</trkpt>
<trkpt lat="31.7849000" lon="35.0107900">
<ele>356.040009</ele>
<time>2021-04-17T08:15:27.009Z</time>
</trkpt>
<trkpt lat="31.7849500" lon="35.0110100">
<ele>358.889984</ele>
<time>2021-04-17T08:15:27.009Z</time>
</trkpt>
<trkpt lat="31.7850100" lon="35.0111300">
<ele>360.380005</ele>
<time>2021-04-17T08:15:27.009Z</time>
</trkpt>
<trkpt lat="31.7851200" lon="35.0112400">
<ele>356.020020</ele>
<time>2021-04-17T08:15:27.009Z</time>
</trkpt>
<trkpt lat="31.7852700" lon="35.0113200">
<ele>351.850006</ele>
<time>2021-04-17T08:15:27.009Z</time>
</trkpt>
<trkpt lat="31.7854600" lon="35.0113700">
<ele>350.389984</ele>
<time>2021-04-17T08:15:27.009Z</time>
</trkpt>
<trkpt lat="31.7855200" lon="35.0113700">
<ele>350.360016</ele>
<time>2021-04-17T08:15:27.009Z</time>
</trkpt>
<trkpt lat="31.7857400" lon="35.0112900">
<ele>351.350006</ele>
<time>2021-04-17T08:15:27.009Z</time>
</trkpt>
<trkpt lat="31.7859200" lon="35.0111800">
<ele>351.799988</ele>
<time>2021-04-17T08:15:27.009Z</time>
</trkpt>
<trkpt lat="31.7860800" lon="35.0110500">
<ele>351.860016</ele>
<time>2021-04-17T08:15:27.009Z</time>
</trkpt>
<trkpt lat="31.7863300" lon="35.0107800">
<ele>354.059998</ele>
<time>2021-04-17T08:15:27.009Z</time>
</trkpt>
<trkpt lat="31.7864500" lon="35.0106900">
<ele>353.390015</ele>
<time>2021-04-17T08:15:27.009Z</time>
</trkpt>
<trkpt lat="31.7865500" lon="35.0106200">
<ele>353.419983</ele>
<time>2021-04-17T08:15:27.009Z</time>
</trkpt>
<trkpt lat="31.7867700" lon="35.0105400">
<ele>354.070007</ele>
<time>2021-04-17T08:15:27.009Z</time>
</trkpt>
<trkpt lat="31.7870700" lon="35.0105100">
<ele>354.980011</ele>
<time>2021-04-17T08:15:27.009Z</time>
</trkpt>
<trkpt lat="31.7876500" lon="35.0105400">
<ele>353.350006</ele>
<time>2021-04-17T08:15:27.009Z</time>
</trkpt>
<trkpt lat="31.7886500" lon="35.0104400">
<ele>353.400024</ele>
<time>2021-04-17T08:15:27.010Z</time>
</trkpt>
<trkpt lat="31.7888000" lon="35.0104600">
<ele>351.220001</ele>
<time>2021-04-17T08:15:27.010Z</time>
</trkpt>
<trkpt lat="31.7889800" lon="35.0105200">
<ele>350.450012</ele>
<time>2021-04-17T08:15:27.010Z</time>
</trkpt>
<trkpt lat="31.7892000" lon="35.0105600">
<ele>352.760010</ele>
<time>2021-04-17T08:15:27.010Z</time>
</trkpt>
<trkpt lat="31.7894500" lon="35.0106000">
<ele>351.140015</ele>
<time>2021-04-17T08:15:27.010Z</time>
</trkpt>
<trkpt lat="31.7897500" lon="35.0105200">
<ele>349.250000</ele>
<time>2021-04-17T08:15:27.010Z</time>
</trkpt>
<trkpt lat="31.7899400" lon="35.0104000">
<ele>350.209991</ele>
<time>2021-04-17T08:15:27.010Z</time>
</trkpt>
<trkpt lat="31.7901500" lon="35.0102800">
<ele>353.480011</ele>
<time>2021-04-17T08:15:27.010Z</time>
</trkpt>
<trkpt lat="31.7902500" lon="35.0102600">
<ele>354.290009</ele>
<time>2021-04-17T08:15:27.010Z</time>
</trkpt>
<trkpt lat="31.7905100" lon="35.0102900">
<ele>354.560028</ele>
<time>2021-04-17T08:15:27.010Z</time>
</trkpt>
<trkpt lat="31.7912200" lon="35.0104600">
<ele>353.339996</ele>
<time>2021-04-17T08:15:27.010Z</time>
</trkpt>
<trkpt lat="31.7917300" lon="35.0106300">
<ele>352.729980</ele>
<time>2021-04-17T08:15:27.010Z</time>
</trkpt>
<trkpt lat="31.7917300" lon="35.0106300">
<ele>352.729980</ele>
<time>2021-04-17T08:15:27.010Z</time>
</trkpt>
<trkpt lat="31.7917300" lon="35.0106300">
<ele>352.729980</ele>
<time>2021-04-17T08:15:27.010Z</time>
</trkpt>
<trkpt lat="31.7919500" lon="35.0107000">
<ele>349.910004</ele>
<time>2021-04-17T08:15:27.010Z</time>
</trkpt>
<trkpt lat="31.7921700" lon="35.0107500">
<ele>350.509979</ele>
<time>2021-04-17T08:15:27.010Z</time>
</trkpt>
<trkpt lat="31.7924300" lon="35.0108700">
<ele>349.320007</ele>
<time>2021-04-17T08:15:27.010Z</time>
</trkpt>
<trkpt lat="31.7926100" lon="35.0111000">
<ele>349.910004</ele>
<time>2021-04-17T08:15:27.010Z</time>
</trkpt>
<trkpt lat="31.7927400" lon="35.0112800">
<ele>353.119995</ele>
<time>2021-04-17T08:15:27.010Z</time>
</trkpt>
<trkpt lat="31.7929200" lon="35.0116500">
<ele>354.959991</ele>
<time>2021-04-17T08:15:27.010Z</time>
</trkpt>
<trkpt lat="31.7931900" lon="35.0120400">
<ele>353.390015</ele>
<time>2021-04-17T08:15:27.010Z</time>
</trkpt>
<trkpt lat="31.7934100" lon="35.0125600">
<ele>347.840027</ele>
<time>2021-04-17T08:15:27.010Z</time>
</trkpt>
<trkpt lat="31.7935000" lon="35.0126900">
<ele>347.729980</ele>
<time>2021-04-17T08:15:27.010Z</time>
</trkpt>
<trkpt lat="31.7935000" lon="35.0126900">
<ele>347.729980</ele>
<time>2021-04-17T08:15:27.010Z</time>
</trkpt>
<trkpt lat="31.7935000" lon="35.0126900">
<ele>347.729980</ele>
<time>2021-04-17T08:15:27.010Z</time>
</trkpt>
<trkpt lat="31.7935800" lon="35.0128000">
<ele>347.960022</ele>
<time>2021-04-17T08:15:27.010Z</time>
</trkpt>
<trkpt lat="31.7935200" lon="35.0128700">
<ele>347.899994</ele>
<time>2021-04-17T08:15:27.010Z</time>
</trkpt>
<trkpt lat="31.7934300" lon="35.0129100">
<ele>347.509979</ele>
<time>2021-04-17T08:15:27.010Z</time>
</trkpt>
<trkpt lat="31.7932900" lon="35.0129000">
<ele>346.709991</ele>
<time>2021-04-17T08:15:27.011Z</time>
</trkpt>
<trkpt lat="31.7931700" lon="35.0128300">
<ele>346.190002</ele>
<time>2021-04-17T08:15:27.011Z</time>
</trkpt>
<trkpt lat="31.7929300" lon="35.0126200">
<ele>350.280029</ele>
<time>2021-04-17T08:15:27.011Z</time>
</trkpt>
<trkpt lat="31.7927500" lon="35.0125000">
<ele>353.700012</ele>
<time>2021-04-17T08:15:27.011Z</time>
</trkpt>
<trkpt lat="31.7926000" lon="35.0124400">
<ele>352.220001</ele>
<time>2021-04-17T08:15:27.011Z</time>
</trkpt>
<trkpt lat="31.7924700" lon="35.0124300">
<ele>350.499969</ele>
<time>2021-04-17T08:15:27.011Z</time>
</trkpt>
<trkpt lat="31.7922500" lon="35.0124400">
<ele>344.920013</ele>
<time>2021-04-17T08:15:27.011Z</time>
</trkpt>
<trkpt lat="31.7920700" lon="35.0124000">
<ele>340.170013</ele>
<time>2021-04-17T08:15:27.011Z</time>
</trkpt>
<trkpt lat="31.7916400" lon="35.0122400">
<ele>338.250000</ele>
<time>2021-04-17T08:15:27.011Z</time>
</trkpt>
<trkpt lat="31.7914800" lon="35.0121100">
<ele>339.480011</ele>
<time>2021-04-17T08:15:27.011Z</time>
</trkpt>
<trkpt lat="31.7911800" lon="35.0116300">
<ele>333.330017</ele>
<time>2021-04-17T08:15:27.011Z</time>
</trkpt>
<trkpt lat="31.7909400" lon="35.0115000">
<ele>327.120026</ele>
<time>2021-04-17T08:15:27.011Z</time>
</trkpt>
<trkpt lat="31.7907400" lon="35.0114600">
<ele>322.250000</ele>
<time>2021-04-17T08:15:27.011Z</time>
</trkpt>
<trkpt lat="31.7905600" lon="35.0114600">
<ele>319.330017</ele>
<time>2021-04-17T08:15:27.011Z</time>
</trkpt>
<trkpt lat="31.7904900" lon="35.0114900">
<ele>318.779999</ele>
<time>2021-04-17T08:15:27.011Z</time>
</trkpt>
<trkpt lat="31.7904300" lon="35.0115400">
<ele>318.109985</ele>
<time>2021-04-17T08:15:27.011Z</time>
</trkpt>
<trkpt lat="31.7902700" lon="35.0118100">
<ele>313.880005</ele>
<time>2021-04-17T08:15:27.011Z</time>
</trkpt>
<trkpt lat="31.7902100" lon="35.0118800">
<ele>312.470001</ele>
<time>2021-04-17T08:15:27.011Z</time>
</trkpt>
<trkpt lat="31.7900800" lon="35.0119600">
<ele>309.339996</ele>
<time>2021-04-17T08:15:27.011Z</time>
</trkpt>
<trkpt lat="31.7899800" lon="35.0119800">
<ele>307.529999</ele>
<time>2021-04-17T08:15:27.011Z</time>
</trkpt>
<trkpt lat="31.7896500" lon="35.0119600">
<ele>304.890015</ele>
<time>2021-04-17T08:15:27.011Z</time>
</trkpt>
<trkpt lat="31.7896200" lon="35.0119400">
<ele>305.139984</ele>
<time>2021-04-17T08:15:27.011Z</time>
</trkpt>
<trkpt lat="31.7896200" lon="35.0119400">
<ele>305.139984</ele>
<time>2021-04-17T08:15:27.011Z</time>
</trkpt>
<trkpt lat="31.7896200" lon="35.0119500">
<ele>304.960022</ele>
<time>2021-04-17T08:15:27.011Z</time>
</trkpt>
<trkpt lat="31.7890900" lon="35.0117700">
<ele>320.419983</ele>
<time>2021-04-17T08:15:27.011Z</time>
</trkpt>
<trkpt lat="31.7888500" lon="35.0117100">
<ele>321.819977</ele>
<time>2021-04-17T08:15:27.011Z</time>
</trkpt>
<trkpt lat="31.7886900" lon="35.0117200">
<ele>320.029999</ele>
<time>2021-04-17T08:15:27.011Z</time>
</trkpt>
<trkpt lat="31.7885700" lon="35.0117500">
<ele>317.820007</ele>
<time>2021-04-17T08:15:27.012Z</time>
</trkpt>
<trkpt lat="31.7883300" lon="35.0119000">
<ele>308.890015</ele>
<time>2021-04-17T08:15:27.012Z</time>
</trkpt>
<trkpt lat="31.7880200" lon="35.0120200">
<ele>302.110016</ele>
<time>2021-04-17T08:15:27.012Z</time>
</trkpt>
<trkpt lat="31.7876800" lon="35.0121000">
<ele>296.720001</ele>
<time>2021-04-17T08:15:27.012Z</time>
</trkpt>
<trkpt lat="31.7875400" lon="35.0121200">
<ele>296.250000</ele>
<time>2021-04-17T08:15:27.012Z</time>
</trkpt>
<trkpt lat="31.7872600" lon="35.0120900">
<ele>299.529999</ele>
<time>2021-04-17T08:15:27.012Z</time>
</trkpt>
<trkpt lat="31.7871300" lon="35.0121000">
<ele>299.839996</ele>
<time>2021-04-17T08:15:27.012Z</time>
</trkpt>
<trkpt lat="31.7870100" lon="35.0121300">
<ele>299.410004</ele>
<time>2021-04-17T08:15:27.012Z</time>
</trkpt>
<trkpt lat="31.7866300" lon="35.0123300">
<ele>299.940002</ele>
<time>2021-04-17T08:15:27.012Z</time>
</trkpt>
<trkpt lat="31.7864500" lon="35.0123500">
<ele>301.220001</ele>
<time>2021-04-17T08:15:27.012Z</time>
</trkpt>
<trkpt lat="31.7860100" lon="35.0123500">
<ele>304.380005</ele>
<time>2021-04-17T08:15:27.012Z</time>
</trkpt>
<trkpt lat="31.7858400" lon="35.0123800">
<ele>304.279999</ele>
<time>2021-04-17T08:15:27.012Z</time>
</trkpt>
<trkpt lat="31.7854500" lon="35.0125500">
<ele>306.790009</ele>
<time>2021-04-17T08:15:27.012Z</time>
</trkpt>
<trkpt lat="31.7850600" lon="35.0126100">
<ele>303.489990</ele>
<time>2021-04-17T08:15:27.012Z</time>
</trkpt>
<trkpt lat="31.7850000" lon="35.0126400">
<ele>303.510010</ele>
<time>2021-04-17T08:15:27.012Z</time>
</trkpt>
<trkpt lat="31.7848300" lon="35.0127200">
<ele>302.589996</ele>
<time>2021-04-17T08:15:27.012Z</time>
</trkpt>
<trkpt lat="31.7847200" lon="35.0127400">
<ele>300.959991</ele>
<time>2021-04-17T08:15:27.012Z</time>
</trkpt>
<trkpt lat="31.7844200" lon="35.0127300">
<ele>302.029999</ele>
<time>2021-04-17T08:15:27.012Z</time>
</trkpt>
<trkpt lat="31.7841300" lon="35.0126300">
<ele>303.720001</ele>
<time>2021-04-17T08:15:27.012Z</time>
</trkpt>
<trkpt lat="31.7839900" lon="35.0125900">
<ele>302.489990</ele>
<time>2021-04-17T08:15:27.012Z</time>
</trkpt>
<trkpt lat="31.7833000" lon="35.0124600">
<ele>300.449982</ele>
<time>2021-04-17T08:15:27.012Z</time>
</trkpt>
<trkpt lat="31.7832200" lon="35.0124500">
<ele>299.940002</ele>
<time>2021-04-17T08:15:27.012Z</time>
</trkpt>
<trkpt lat="31.7832200" lon="35.0124500">
<ele>299.940002</ele>
<time>2021-04-17T08:15:27.012Z</time>
</trkpt>
<trkpt lat="31.7832200" lon="35.0124500">
<ele>299.940002</ele>
<time>2021-04-17T08:15:27.012Z</time>
</trkpt>
<trkpt lat="31.7831200" lon="35.0124400">
<ele>299.209991</ele>
<time>2021-04-17T08:15:27.012Z</time>
</trkpt>
<trkpt lat="31.7824300" lon="35.0125100">
<ele>290.130005</ele>
<time>2021-04-17T08:15:27.012Z</time>
</trkpt>
<trkpt lat="31.7823200" lon="35.0125400">
<ele>288.759979</ele>
<time>2021-04-17T08:15:27.012Z</time>
</trkpt>
<trkpt lat="31.7820300" lon="35.0126000">
<ele>287.830017</ele>
<time>2021-04-17T08:15:27.012Z</time>
</trkpt>
<trkpt lat="31.7818900" lon="35.0126100">
<ele>287.459991</ele>
<time>2021-04-17T08:15:27.013Z</time>
</trkpt>
<trkpt lat="31.7814800" lon="35.0125600">
<ele>287.830017</ele>
<time>2021-04-17T08:15:27.013Z</time>
</trkpt>
<trkpt lat="31.7812800" lon="35.0125400">
<ele>286.270020</ele>
<time>2021-04-17T08:15:27.013Z</time>
</trkpt>
<trkpt lat="31.7806400" lon="35.0125500">
<ele>279.399994</ele>
<time>2021-04-17T08:15:27.013Z</time>
</trkpt>
<trkpt lat="31.7804000" lon="35.0125100">
<ele>278.130005</ele>
<time>2021-04-17T08:15:27.013Z</time>
</trkpt>
<trkpt lat="31.7803000" lon="35.0124700">
<ele>277.459991</ele>
<time>2021-04-17T08:15:27.013Z</time>
</trkpt>
<trkpt lat="31.7801600" lon="35.0123700">
<ele>277.739990</ele>
<time>2021-04-17T08:15:27.013Z</time>
</trkpt>
<trkpt lat="31.7799900" lon="35.0121400">
<ele>277.559998</ele>
<time>2021-04-17T08:15:27.013Z</time>
</trkpt>
<trkpt lat="31.7798500" lon="35.0119300">
<ele>274.790009</ele>
<time>2021-04-17T08:15:27.013Z</time>
</trkpt>
<trkpt lat="31.7794300" lon="35.0112900">
<ele>267.269989</ele>
<time>2021-04-17T08:15:27.013Z</time>
</trkpt>
<trkpt lat="31.7791400" lon="35.0107000">
<ele>263.720001</ele>
<time>2021-04-17T08:15:27.013Z</time>
</trkpt>
<trkpt lat="31.7790900" lon="35.0106400">
<ele>263.059998</ele>
<time>2021-04-17T08:15:27.013Z</time>
</trkpt>
<trkpt lat="31.7790900" lon="35.0106400">
<ele>263.059998</ele>
<time>2021-04-17T08:15:27.013Z</time>
</trkpt>
<trkpt lat="31.7790700" lon="35.0106100">
<ele>262.739990</ele>
<time>2021-04-17T08:15:27.013Z</time>
</trkpt>
<trkpt lat="31.7786200" lon="35.0108200">
<ele>262.869995</ele>
<time>2021-04-17T08:15:27.013Z</time>
</trkpt>
<trkpt lat="31.7785900" lon="35.0107100">
<ele>261.730011</ele>
<time>2021-04-17T08:15:27.013Z</time>
</trkpt>
<trkpt lat="31.7784500" lon="35.0107900">
<ele>259.790009</ele>
<time>2021-04-17T08:15:27.013Z</time>
</trkpt>
<trkpt lat="31.7779500" lon="35.0111000">
<ele>255.979996</ele>
<time>2021-04-17T08:15:27.013Z</time>
</trkpt>
<trkpt lat="31.7777600" lon="35.0111900">
<ele>255.900009</ele>
<time>2021-04-17T08:15:27.013Z</time>
</trkpt>
<trkpt lat="31.7775900" lon="35.0112400">
<ele>252.410004</ele>
<time>2021-04-17T08:15:27.013Z</time>
</trkpt>
<trkpt lat="31.7774600" lon="35.0112800">
<ele>250.089996</ele>
<time>2021-04-17T08:15:27.013Z</time>
</trkpt>
<trkpt lat="31.7772700" lon="35.0113100">
<ele>247.639984</ele>
<time>2021-04-17T08:15:27.013Z</time>
</trkpt>
<trkpt lat="31.7771400" lon="35.0113300">
<ele>246.869995</ele>
<time>2021-04-17T08:15:27.013Z</time>
</trkpt>
<trkpt lat="31.7770500" lon="35.0113600">
<ele>246.869995</ele>
<time>2021-04-17T08:15:27.013Z</time>
</trkpt>
<trkpt lat="31.7769100" lon="35.0114300">
<ele>247.680008</ele>
<time>2021-04-17T08:15:27.013Z</time>
</trkpt>
<trkpt lat="31.7768600" lon="35.0114700">
<ele>248.190002</ele>
<time>2021-04-17T08:15:27.013Z</time>
</trkpt>
<trkpt lat="31.7768500" lon="35.0114600">
<ele>248.020004</ele>
<time>2021-04-17T08:15:27.013Z</time>
</trkpt>
<trkpt lat="31.7768300" lon="35.0114400">
<ele>247.690002</ele>
<time>2021-04-17T08:15:27.014Z</time>
</trkpt>
<trkpt lat="31.7768000" lon="35.0114200">
<ele>247.389999</ele>
<time>2021-04-17T08:15:27.014Z</time>
</trkpt>
<trkpt lat="31.7767700" lon="35.0114100">
<ele>247.239990</ele>
<time>2021-04-17T08:15:27.014Z</time>
</trkpt>
<trkpt lat="31.7767600" lon="35.0114000">
<ele>247.120010</ele>
<time>2021-04-17T08:15:27.014Z</time>
</trkpt>
<trkpt lat="31.7767400" lon="35.0113900">
<ele>247.009995</ele>
<time>2021-04-17T08:15:27.014Z</time>
</trkpt>
<trkpt lat="31.7767400" lon="35.0113800">
<ele>247.009995</ele>
<time>2021-04-17T08:15:27.014Z</time>
</trkpt>
<trkpt lat="31.7767200" lon="35.0113600">
<ele>247.039993</ele>
<time>2021-04-17T08:15:27.014Z</time>
</trkpt>
<trkpt lat="31.7767100" lon="35.0113800">
<ele>247.019989</ele>
<time>2021-04-17T08:15:27.014Z</time>
</trkpt>
<trkpt lat="31.7766100" lon="35.0114100">
<ele>247.339996</ele>
<time>2021-04-17T08:15:27.014Z</time>
</trkpt>
<trkpt lat="31.7765900" lon="35.0114100">
<ele>247.410004</ele>
<time>2021-04-17T08:15:27.014Z</time>
</trkpt>
<trkpt lat="31.7765900" lon="35.0114400">
<ele>247.589996</ele>
<time>2021-04-17T08:15:27.014Z</time>
</trkpt>
<trkpt lat="31.7765800" lon="35.0114400">
<ele>247.619995</ele>
<time>2021-04-17T08:15:27.014Z</time>
</trkpt>
<trkpt lat="31.7765700" lon="35.0114600">
<ele>247.769989</ele>
<time>2021-04-17T08:15:27.014Z</time>
</trkpt>
<trkpt lat="31.7765500" lon="35.0114800">
<ele>247.939987</ele>
<time>2021-04-17T08:15:27.014Z</time>
</trkpt>
<trkpt lat="31.7765300" lon="35.0115100">
<ele>248.150009</ele>
<time>2021-04-17T08:15:27.014Z</time>
</trkpt>
<trkpt lat="31.7765200" lon="35.0115500">
<ele>248.380005</ele>
<time>2021-04-17T08:15:27.014Z</time>
</trkpt>
<trkpt lat="31.7765100" lon="35.0115800">
<ele>248.550003</ele>
<time>2021-04-17T08:15:27.014Z</time>
</trkpt>
<trkpt lat="31.7764900" lon="35.0116100">
<ele>248.720001</ele>
<time>2021-04-17T08:15:27.014Z</time>
</trkpt>
<trkpt lat="31.7764800" lon="35.0116300">
<ele>248.819992</ele>
<time>2021-04-17T08:15:27.014Z</time>
</trkpt>
<trkpt lat="31.7764600" lon="35.0116400">
<ele>248.880005</ele>
<time>2021-04-17T08:15:27.014Z</time>
</trkpt>
<trkpt lat="31.7764600" lon="35.0116700">
<ele>248.979996</ele>
<time>2021-04-17T08:15:27.014Z</time>
</trkpt>
<trkpt lat="31.7764300" lon="35.0116900">
<ele>248.900009</ele>
<time>2021-04-17T08:15:27.014Z</time>
</trkpt>
<trkpt lat="31.7758400" lon="35.0119900">
<ele>260.589996</ele>
<time>2021-04-17T08:15:27.014Z</time>
</trkpt>
<trkpt lat="31.7757000" lon="35.0120800">
<ele>262.470001</ele>
<time>2021-04-17T08:15:27.014Z</time>
</trkpt>
<trkpt lat="31.7755700" lon="35.0121800">
<ele>262.360016</ele>
<time>2021-04-17T08:15:27.014Z</time>
</trkpt>
<trkpt lat="31.7754500" lon="35.0123300">
<ele>261.140015</ele>
<time>2021-04-17T08:15:27.014Z</time>
</trkpt>
<trkpt lat="31.7750800" lon="35.0128700">
<ele>263.520020</ele>
<time>2021-04-17T08:15:27.015Z</time>
</trkpt>
<trkpt lat="31.7749600" lon="35.0130800">
<ele>267.320007</ele>
<time>2021-04-17T08:15:27.015Z</time>
</trkpt>
<trkpt lat="31.7749100" lon="35.0132400">
<ele>268.799988</ele>
<time>2021-04-17T08:15:27.015Z</time>
</trkpt>
<trkpt lat="31.7749200" lon="35.0135400">
<ele>272.970001</ele>
<time>2021-04-17T08:15:27.015Z</time>
</trkpt>
<trkpt lat="31.7749800" lon="35.0142400">
<ele>272.070007</ele>
<time>2021-04-17T08:15:27.015Z</time>
</trkpt>
<trkpt lat="31.7752000" lon="35.0144600">
<ele>273.959991</ele>
<time>2021-04-17T08:15:27.015Z</time>
</trkpt>
<trkpt lat="31.7753100" lon="35.0142700">
<ele>274.589996</ele>
<time>2021-04-17T08:15:27.015Z</time>
</trkpt>
<trkpt lat="31.7752400" lon="35.0140000">
<ele>273.949982</ele>
<time>2021-04-17T08:15:27.015Z</time>
</trkpt>
<trkpt lat="31.7754100" lon="35.0138600">
<ele>272.779999</ele>
<time>2021-04-17T08:15:27.015Z</time>
</trkpt>
<trkpt lat="31.7755900" lon="35.0140000">
<ele>271.880005</ele>
<time>2021-04-17T08:15:27.015Z</time>
</trkpt>
<trkpt lat="31.7755900" lon="35.0140000">
<ele>271.880005</ele>
<time>2021-04-17T08:15:27.015Z</time>
</trkpt>
<trkpt lat="31.7755900" lon="35.0140000">
<ele>271.880005</ele>
<time>2021-04-17T08:15:27.015Z</time>
</trkpt>
<trkpt lat="31.7757000" lon="35.0140900">
<ele>271.989990</ele>
<time>2021-04-17T08:15:27.015Z</time>
</trkpt>
<trkpt lat="31.7757900" lon="35.0142100">
<ele>273.510010</ele>
<time>2021-04-17T08:15:27.015Z</time>
</trkpt>
<trkpt lat="31.7759500" lon="35.0143300">
<ele>275.369995</ele>
<time>2021-04-17T08:15:27.015Z</time>
</trkpt>
<trkpt lat="31.7761100" lon="35.0144200">
<ele>275.489990</ele>
<time>2021-04-17T08:15:27.015Z</time>
</trkpt>
<trkpt lat="31.7764800" lon="35.0145400">
<ele>265.190002</ele>
<time>2021-04-17T08:15:27.015Z</time>
</trkpt>
<trkpt lat="31.7768500" lon="35.0147700">
<ele>256.260010</ele>
<time>2021-04-17T08:15:27.015Z</time>
</trkpt>
<trkpt lat="31.7770700" lon="35.0155600">
<ele>265.899994</ele>
<time>2021-04-17T08:15:27.015Z</time>
</trkpt>
<trkpt lat="31.7773800" lon="35.0159500">
<ele>263.100006</ele>
<time>2021-04-17T08:15:27.015Z</time>
</trkpt>
<trkpt lat="31.7775100" lon="35.0160400">
<ele>261.089996</ele>
<time>2021-04-17T08:15:27.015Z</time>
</trkpt>
<trkpt lat="31.7776200" lon="35.0160600">
<ele>259.720001</ele>
<time>2021-04-17T08:15:27.015Z</time>
</trkpt>
<trkpt lat="31.7776800" lon="35.0160700">
<ele>258.960022</ele>
<time>2021-04-17T08:15:27.015Z</time>
</trkpt>
<trkpt lat="31.7779000" lon="35.0159900">
<ele>255.510010</ele>
<time>2021-04-17T08:15:27.015Z</time>
</trkpt>
<trkpt lat="31.7780200" lon="35.0159500">
<ele>254.290009</ele>
<time>2021-04-17T08:15:27.015Z</time>
</trkpt>
<trkpt lat="31.7781800" lon="35.0159500">
<ele>254.639999</ele>
<time>2021-04-17T08:15:27.015Z</time>
</trkpt>
<trkpt lat="31.7782500" lon="35.0159800">
<ele>255.069992</ele>
<time>2021-04-17T08:15:27.016Z</time>
</trkpt>
<trkpt lat="31.7784500" lon="35.0161100">
<ele>256.419983</ele>
<time>2021-04-17T08:15:27.016Z</time>
</trkpt>
<trkpt lat="31.7786500" lon="35.0162100">
<ele>258.579987</ele>
<time>2021-04-17T08:15:27.016Z</time>
</trkpt>
<trkpt lat="31.7788000" lon="35.0162200">
<ele>260.630005</ele>
<time>2021-04-17T08:15:27.016Z</time>
</trkpt>
<trkpt lat="31.7790000" lon="35.0161900">
<ele>263.000000</ele>
<time>2021-04-17T08:15:27.016Z</time>
</trkpt>
<trkpt lat="31.7790200" lon="35.0161900">
<ele>263.250000</ele>
<time>2021-04-17T08:15:27.016Z</time>
</trkpt>
<trkpt lat="31.7791500" lon="35.0161100">
<ele>263.820007</ele>
<time>2021-04-17T08:15:27.016Z</time>
</trkpt>
<trkpt lat="31.7791300" lon="35.0161800">
<ele>264.529999</ele>
<time>2021-04-17T08:15:27.016Z</time>
</trkpt>
<trkpt lat="31.7791200" lon="35.0163100">
<ele>266.119995</ele>
<time>2021-04-17T08:15:27.016Z</time>
</trkpt>
<trkpt lat="31.7790900" lon="35.0164600">
<ele>265.989990</ele>
<time>2021-04-17T08:15:27.016Z</time>
</trkpt>
<trkpt lat="31.7790600" lon="35.0166400">
<ele>264.059998</ele>
<time>2021-04-17T08:15:27.016Z</time>
</trkpt>
<trkpt lat="31.7790700" lon="35.0168900">
<ele>263.399994</ele>
<time>2021-04-17T08:15:27.016Z</time>
</trkpt>
<trkpt lat="31.7791500" lon="35.0171300">
<ele>267.209991</ele>
<time>2021-04-17T08:15:27.016Z</time>
</trkpt>
<trkpt lat="31.7792800" lon="35.0173300">
<ele>271.610016</ele>
<time>2021-04-17T08:15:27.016Z</time>
</trkpt>
<trkpt lat="31.7794200" lon="35.0174600">
<ele>276.510010</ele>
<time>2021-04-17T08:15:27.016Z</time>
</trkpt>
<trkpt lat="31.7799400" lon="35.0178600">
<ele>271.100006</ele>
<time>2021-04-17T08:15:27.016Z</time>
</trkpt>
<trkpt lat="31.7801000" lon="35.0180800">
<ele>265.239990</ele>
<time>2021-04-17T08:15:27.016Z</time>
</trkpt>
<trkpt lat="31.7801200" lon="35.0181100">
<ele>265.149994</ele>
<time>2021-04-17T08:15:27.016Z</time>
</trkpt>
<trkpt lat="31.7801200" lon="35.0181100">
<ele>265.149994</ele>
<time>2021-04-17T08:15:27.016Z</time>
</trkpt>
<trkpt lat="31.7801200" lon="35.0181100">
<ele>265.149994</ele>
<time>2021-04-17T08:15:27.016Z</time>
</trkpt>
<trkpt lat="31.7802000" lon="35.0182800">
<ele>264.330017</ele>
<time>2021-04-17T08:15:27.016Z</time>
</trkpt>
<trkpt lat="31.7803000" lon="35.0185000">
<ele>264.299988</ele>
<time>2021-04-17T08:15:27.016Z</time>
</trkpt>
<trkpt lat="31.7804400" lon="35.0187800">
<ele>263.190002</ele>
<time>2021-04-17T08:15:27.016Z</time>
</trkpt>
<trkpt lat="31.7805000" lon="35.0189800">
<ele>262.399994</ele>
<time>2021-04-17T08:15:27.016Z</time>
</trkpt>
<trkpt lat="31.7805700" lon="35.0193500">
<ele>262.559998</ele>
<time>2021-04-17T08:15:27.016Z</time>
</trkpt>
<trkpt lat="31.7805800" lon="35.0195600">
<ele>263.929993</ele>
<time>2021-04-17T08:15:27.016Z</time>
</trkpt>
<trkpt lat="31.7805700" lon="35.0197700">
<ele>264.709991</ele>
<time>2021-04-17T08:15:27.016Z</time>
</trkpt>
<trkpt lat="31.7804900" lon="35.0200600">
<ele>266.350006</ele>
<time>2021-04-17T08:15:27.017Z</time>
</trkpt>
<trkpt lat="31.7802700" lon="35.0205000">
<ele>265.980011</ele>
<time>2021-04-17T08:15:27.017Z</time>
</trkpt>
<trkpt lat="31.7797900" lon="35.0213300">
<ele>265.850006</ele>
<time>2021-04-17T08:15:27.017Z</time>
</trkpt>
<trkpt lat="31.7795600" lon="35.0217200">
<ele>264.509979</ele>
<time>2021-04-17T08:15:27.017Z</time>
</trkpt>
<trkpt lat="31.7793700" lon="35.0220800">
<ele>266.570007</ele>
<time>2021-04-17T08:15:27.017Z</time>
</trkpt>
<trkpt lat="31.7791600" lon="35.0225300">
<ele>267.299988</ele>
<time>2021-04-17T08:15:27.017Z</time>
</trkpt>
<trkpt lat="31.7788200" lon="35.0233700">
<ele>270.309998</ele>
<time>2021-04-17T08:15:27.017Z</time>
</trkpt>
<trkpt lat="31.7786600" lon="35.0237100">
<ele>273.959991</ele>
<time>2021-04-17T08:15:27.017Z</time>
</trkpt>
<trkpt lat="31.7785800" lon="35.0238500">
<ele>273.029999</ele>
<time>2021-04-17T08:15:27.017Z</time>
</trkpt>
<trkpt lat="31.7780800" lon="35.0245200">
<ele>273.149994</ele>
<time>2021-04-17T08:15:27.017Z</time>
</trkpt>
<trkpt lat="31.7780200" lon="35.0246200">
<ele>274.079987</ele>
<time>2021-04-17T08:15:27.017Z</time>
</trkpt>
<trkpt lat="31.7779500" lon="35.0248200">
<ele>276.929993</ele>
<time>2021-04-17T08:15:27.017Z</time>
</trkpt>
<trkpt lat="31.7777600" lon="35.0256000">
<ele>280.389984</ele>
<time>2021-04-17T08:15:27.017Z</time>
</trkpt>
<trkpt lat="31.7776900" lon="35.0257900">
<ele>281.419983</ele>
<time>2021-04-17T08:15:27.017Z</time>
</trkpt>
<trkpt lat="31.7776200" lon="35.0258900">
<ele>281.720001</ele>
<time>2021-04-17T08:15:27.017Z</time>
</trkpt>
<trkpt lat="31.7773800" lon="35.0260700">
<ele>284.889984</ele>
<time>2021-04-17T08:15:27.017Z</time>
</trkpt>
<trkpt lat="31.7772700" lon="35.0261800">
<ele>288.260010</ele>
<time>2021-04-17T08:15:27.017Z</time>
</trkpt>
<trkpt lat="31.7772000" lon="35.0262700">
<ele>291.419983</ele>
<time>2021-04-17T08:15:27.017Z</time>
</trkpt>
<trkpt lat="31.7771500" lon="35.0263900">
<ele>295.130005</ele>
<time>2021-04-17T08:15:27.017Z</time>
</trkpt>
<trkpt lat="31.7771300" lon="35.0265600">
<ele>297.839996</ele>
<time>2021-04-17T08:15:27.017Z</time>
</trkpt>
<trkpt lat="31.7771500" lon="35.0266800">
<ele>298.750000</ele>
<time>2021-04-17T08:15:27.017Z</time>
</trkpt>
<trkpt lat="31.7772000" lon="35.0267900">
<ele>299.260010</ele>
<time>2021-04-17T08:15:27.017Z</time>
</trkpt>
<trkpt lat="31.7772000" lon="35.0267900">
<ele>299.260010</ele>
<time>2021-04-17T08:15:27.017Z</time>
</trkpt>
<trkpt lat="31.7772000" lon="35.0267900">
<ele>299.260010</ele>
<time>2021-04-17T08:15:27.017Z</time>
</trkpt>
<trkpt lat="31.7772500" lon="35.0269100">
<ele>300.589996</ele>
<time>2021-04-17T08:15:27.017Z</time>
</trkpt>
<trkpt lat="31.7773400" lon="35.0270400">
<ele>304.130005</ele>
<time>2021-04-17T08:15:27.018Z</time>
</trkpt>
<trkpt lat="31.7774200" lon="35.0271300">
<ele>306.009979</ele>
<time>2021-04-17T08:15:27.018Z</time>
</trkpt>
<trkpt lat="31.7775400" lon="35.0272100">
<ele>306.520020</ele>
<time>2021-04-17T08:15:27.018Z</time>
</trkpt>
<trkpt lat="31.7781200" lon="35.0274400">
<ele>312.399994</ele>
<time>2021-04-17T08:15:27.018Z</time>
</trkpt>
<trkpt lat="31.7782000" lon="35.0275300">
<ele>313.299988</ele>
<time>2021-04-17T08:15:27.018Z</time>
</trkpt>
<trkpt lat="31.7782200" lon="35.0276100">
<ele>312.899994</ele>
<time>2021-04-17T08:15:27.018Z</time>
</trkpt>
<trkpt lat="31.7781600" lon="35.0282000">
<ele>309.489990</ele>
<time>2021-04-17T08:15:27.018Z</time>
</trkpt>
<trkpt lat="31.7781400" lon="35.0296400">
<ele>310.699982</ele>
<time>2021-04-17T08:15:27.018Z</time>
</trkpt>
<trkpt lat="31.7781100" lon="35.0300200">
<ele>314.490021</ele>
<time>2021-04-17T08:15:27.018Z</time>
</trkpt>
<trkpt lat="31.7780500" lon="35.0302200">
<ele>317.500000</ele>
<time>2021-04-17T08:15:27.018Z</time>
</trkpt>
<trkpt lat="31.7778900" lon="35.0305500">
<ele>316.839996</ele>
<time>2021-04-17T08:15:27.018Z</time>
</trkpt>
<trkpt lat="31.7777500" lon="35.0307500">
<ele>313.680023</ele>
<time>2021-04-17T08:15:27.018Z</time>
</trkpt>
<trkpt lat="31.7776000" lon="35.0308500">
<ele>311.519989</ele>
<time>2021-04-17T08:15:27.018Z</time>
</trkpt>
<trkpt lat="31.7774600" lon="35.0309700">
<ele>312.390015</ele>
<time>2021-04-17T08:15:27.018Z</time>
</trkpt>
<trkpt lat="31.7773200" lon="35.0311600">
<ele>316.850006</ele>
<time>2021-04-17T08:15:27.018Z</time>
</trkpt>
<trkpt lat="31.7772400" lon="35.0313500">
<ele>319.820007</ele>
<time>2021-04-17T08:15:27.018Z</time>
</trkpt>
<trkpt lat="31.7771800" lon="35.0315500">
<ele>323.809998</ele>
<time>2021-04-17T08:15:27.018Z</time>
</trkpt>
<trkpt lat="31.7770300" lon="35.0318800">
<ele>325.309998</ele>
<time>2021-04-17T08:15:27.018Z</time>
</trkpt>
<trkpt lat="31.7768400" lon="35.0320400">
<ele>325.720001</ele>
<time>2021-04-17T08:15:27.018Z</time>
</trkpt>
<trkpt lat="31.7765400" lon="35.0321900">
<ele>328.580017</ele>
<time>2021-04-17T08:15:27.018Z</time>
</trkpt>
<trkpt lat="31.7764200" lon="35.0322700">
<ele>330.450012</ele>
<time>2021-04-17T08:15:27.018Z</time>
</trkpt>
<trkpt lat="31.7763200" lon="35.0323000">
<ele>331.250000</ele>
<time>2021-04-17T08:15:27.018Z</time>
</trkpt>
<trkpt lat="31.7762800" lon="35.0322800">
<ele>330.880005</ele>
<time>2021-04-17T08:15:27.018Z</time>
</trkpt>
<trkpt lat="31.7762500" lon="35.0322100">
<ele>330.000000</ele>
<time>2021-04-17T08:15:27.018Z</time>
</trkpt>
<trkpt lat="31.7762600" lon="35.0321700">
<ele>329.900024</ele>
<time>2021-04-17T08:15:27.018Z</time>
</trkpt>
<trkpt lat="31.7762800" lon="35.0321000">
<ele>329.589996</ele>
<time>2021-04-17T08:15:27.018Z</time>
</trkpt>
<trkpt lat="31.7762800" lon="35.0320300">
<ele>329.489990</ele>
<time>2021-04-17T08:15:27.018Z</time>
</trkpt>
<trkpt lat="31.7762300" lon="35.0320100">
<ele>330.360016</ele>
<time>2021-04-17T08:15:27.018Z</time>
</trkpt>
<trkpt lat="31.7761600" lon="35.0320400">
<ele>331.500000</ele>
<time>2021-04-17T08:15:27.019Z</time>
</trkpt>
<trkpt lat="31.7760300" lon="35.0321700">
<ele>333.580017</ele>
<time>2021-04-17T08:15:27.019Z</time>
</trkpt>
<trkpt lat="31.7758100" lon="35.0323200">
<ele>338.250000</ele>
<time>2021-04-17T08:15:27.019Z</time>
</trkpt>
<trkpt lat="31.7756300" lon="35.0324000">
<ele>340.200012</ele>
<time>2021-04-17T08:15:27.019Z</time>
</trkpt>
<trkpt lat="31.7753600" lon="35.0325000">
<ele>341.700012</ele>
<time>2021-04-17T08:15:27.019Z</time>
</trkpt>
<trkpt lat="31.7752900" lon="35.0325000">
<ele>341.959991</ele>
<time>2021-04-17T08:15:27.019Z</time>
</trkpt>
<trkpt lat="31.7752600" lon="35.0324700">
<ele>342.490021</ele>
<time>2021-04-17T08:15:27.019Z</time>
</trkpt>
<trkpt lat="31.7753100" lon="35.0324000">
<ele>342.520020</ele>
<time>2021-04-17T08:15:27.019Z</time>
</trkpt>
<trkpt lat="31.7754700" lon="35.0323000">
<ele>341.750000</ele>
<time>2021-04-17T08:15:27.019Z</time>
</trkpt>
<trkpt lat="31.7756200" lon="35.0321700">
<ele>341.389984</ele>
<time>2021-04-17T08:15:27.019Z</time>
</trkpt>
<trkpt lat="31.7756500" lon="35.0320900">
<ele>342.669983</ele>
<time>2021-04-17T08:15:27.019Z</time>
</trkpt>
<trkpt lat="31.7756400" lon="35.0320600">
<ele>343.410004</ele>
<time>2021-04-17T08:15:27.019Z</time>
</trkpt>
<trkpt lat="31.7756000" lon="35.0320300">
<ele>344.559998</ele>
<time>2021-04-17T08:15:27.019Z</time>
</trkpt>
<trkpt lat="31.7752800" lon="35.0321800">
<ele>345.190033</ele>
<time>2021-04-17T08:15:27.019Z</time>
</trkpt>
<trkpt lat="31.7749200" lon="35.0323100">
<ele>350.960022</ele>
<time>2021-04-17T08:15:27.019Z</time>
</trkpt>
<trkpt lat="31.7747800" lon="35.0323900">
<ele>352.800018</ele>
<time>2021-04-17T08:15:27.019Z</time>
</trkpt>
<trkpt lat="31.7747200" lon="35.0324600">
<ele>352.279999</ele>
<time>2021-04-17T08:15:27.019Z</time>
</trkpt>
<trkpt lat="31.7747000" lon="35.0324900">
<ele>352.570007</ele>
<time>2021-04-17T08:15:27.019Z</time>
</trkpt>
<trkpt lat="31.7746600" lon="35.0326000">
<ele>353.700012</ele>
<time>2021-04-17T08:15:27.019Z</time>
</trkpt>
<trkpt lat="31.7746600" lon="35.0326000">
<ele>353.700012</ele>
<time>2021-04-17T08:15:27.019Z</time>
</trkpt>
<trkpt lat="31.7746600" lon="35.0326000">
<ele>353.700012</ele>
<time>2021-04-17T08:15:27.019Z</time>
</trkpt>
<trkpt lat="31.7746000" lon="35.0327500">
<ele>355.450012</ele>
<time>2021-04-17T08:15:27.019Z</time>
</trkpt>
<trkpt lat="31.7744700" lon="35.0332900">
<ele>365.579987</ele>
<time>2021-04-17T08:15:27.019Z</time>
</trkpt>
<trkpt lat="31.7744400" lon="35.0335300">
<ele>372.880005</ele>
<time>2021-04-17T08:15:27.019Z</time>
</trkpt>
<trkpt lat="31.7744300" lon="35.0337200">
<ele>380.230011</ele>
<time>2021-04-17T08:15:27.019Z</time>
</trkpt>
<trkpt lat="31.7744600" lon="35.0338200">
<ele>383.970001</ele>
<time>2021-04-17T08:15:27.019Z</time>
</trkpt>
<trkpt lat="31.7745000" lon="35.0338900">
<ele>387.029999</ele>
<time>2021-04-17T08:15:27.019Z</time>
</trkpt>
<trkpt lat="31.7745500" lon="35.0339400">
<ele>388.309998</ele>
<time>2021-04-17T08:15:27.020Z</time>
</trkpt>
<trkpt lat="31.7746100" lon="35.0339400">
<ele>388.429993</ele>
<time>2021-04-17T08:15:27.020Z</time>
</trkpt>
<trkpt lat="31.7746900" lon="35.0338500">
<ele>384.820007</ele>
<time>2021-04-17T08:15:27.020Z</time>
</trkpt>
<trkpt lat="31.7748200" lon="35.0335900">
<ele>372.429993</ele>
<time>2021-04-17T08:15:27.020Z</time>
</trkpt>
<trkpt lat="31.7748900" lon="35.0335100">
<ele>371.349976</ele>
<time>2021-04-17T08:15:27.020Z</time>
</trkpt>
<trkpt lat="31.7750800" lon="35.0333600">
<ele>369.809998</ele>
<time>2021-04-17T08:15:27.020Z</time>
</trkpt>
<trkpt lat="31.7753100" lon="35.0332200">
<ele>368.200012</ele>
<time>2021-04-17T08:15:27.020Z</time>
</trkpt>
<trkpt lat="31.7757500" lon="35.0333500">
<ele>380.399994</ele>
<time>2021-04-17T08:15:27.020Z</time>
</trkpt>
<trkpt lat="31.7760500" lon="35.0335300">
<ele>394.480011</ele>
<time>2021-04-17T08:15:27.020Z</time>
</trkpt>
<trkpt lat="31.7765800" lon="35.0337200">
<ele>387.740021</ele>
<time>2021-04-17T08:15:27.020Z</time>
</trkpt>
<trkpt lat="31.7768100" lon="35.0338600">
<ele>386.600006</ele>
<time>2021-04-17T08:15:27.020Z</time>
</trkpt>
<trkpt lat="31.7769200" lon="35.0339600">
<ele>388.550018</ele>
<time>2021-04-17T08:15:27.020Z</time>
</trkpt>
<trkpt lat="31.7769700" lon="35.0340200">
<ele>388.160004</ele>
<time>2021-04-17T08:15:27.020Z</time>
</trkpt>
<trkpt lat="31.7770100" lon="35.0341400">
<ele>388.640015</ele>
<time>2021-04-17T08:15:27.020Z</time>
</trkpt>
<trkpt lat="31.7771400" lon="35.0350000">
<ele>399.440002</ele>
<time>2021-04-17T08:15:27.020Z</time>
</trkpt>
<trkpt lat="31.7771800" lon="35.0352400">
<ele>405.529999</ele>
<time>2021-04-17T08:15:27.020Z</time>
</trkpt>
<trkpt lat="31.7772800" lon="35.0356300">
<ele>411.230011</ele>
<time>2021-04-17T08:15:27.020Z</time>
</trkpt>
<trkpt lat="31.7773400" lon="35.0358000">
<ele>413.019989</ele>
<time>2021-04-17T08:15:27.020Z</time>
</trkpt>
<trkpt lat="31.7774000" lon="35.0358900">
<ele>413.290009</ele>
<time>2021-04-17T08:15:27.020Z</time>
</trkpt>
<trkpt lat="31.7774100" lon="35.0359100">
<ele>413.559998</ele>
<time>2021-04-17T08:15:27.020Z</time>
</trkpt>
<trkpt lat="31.7774100" lon="35.0359100">
<ele>413.559998</ele>
<time>2021-04-17T08:15:27.020Z</time>
</trkpt>
<trkpt lat="31.7774100" lon="35.0359100">
<ele>413.559998</ele>
<time>2021-04-17T08:15:27.020Z</time>
</trkpt>
<trkpt lat="31.7777000" lon="35.0362600">
<ele>418.560028</ele>
<time>2021-04-17T08:15:27.020Z</time>
</trkpt>
<trkpt lat="31.7777800" lon="35.0363800">
<ele>420.669983</ele>
<time>2021-04-17T08:15:27.020Z</time>
</trkpt>
<trkpt lat="31.7779300" lon="35.0366900">
<ele>422.589996</ele>
<time>2021-04-17T08:15:27.020Z</time>
</trkpt>
<trkpt lat="31.7780100" lon="35.0369000">
<ele>424.910004</ele>
<time>2021-04-17T08:15:27.020Z</time>
</trkpt>
<trkpt lat="31.7781600" lon="35.0373600">
<ele>429.029999</ele>
<time>2021-04-17T08:15:27.020Z</time>
</trkpt>
<trkpt lat="31.7784700" lon="35.0380900">
<ele>426.489990</ele>
<time>2021-04-17T08:15:27.020Z</time>
</trkpt>
<trkpt lat="31.7786100" lon="35.0386400">
<ele>435.880005</ele>
<time>2021-04-17T08:15:27.021Z</time>
</trkpt>
<trkpt lat="31.7788800" lon="35.0395600">
<ele>443.820007</ele>
<time>2021-04-17T08:15:27.021Z</time>
</trkpt>
<trkpt lat="31.7789400" lon="35.0397300">
<ele>447.470001</ele>
<time>2021-04-17T08:15:27.021Z</time>
</trkpt>
<trkpt lat="31.7790200" lon="35.0398600">
<ele>446.770020</ele>
<time>2021-04-17T08:15:27.021Z</time>
</trkpt>
<trkpt lat="31.7790800" lon="35.0399200">
<ele>447.480011</ele>
<time>2021-04-17T08:15:27.021Z</time>
</trkpt>
<trkpt lat="31.7793300" lon="35.0400300">
<ele>444.910004</ele>
<time>2021-04-17T08:15:27.021Z</time>
</trkpt>
<trkpt lat="31.7794200" lon="35.0401000">
<ele>444.779999</ele>
<time>2021-04-17T08:15:27.021Z</time>
</trkpt>
<trkpt lat="31.7796700" lon="35.0404200">
<ele>460.210022</ele>
<time>2021-04-17T08:15:27.021Z</time>
</trkpt>
<trkpt lat="31.7797500" lon="35.0405000">
<ele>462.600006</ele>
<time>2021-04-17T08:15:27.021Z</time>
</trkpt>
<trkpt lat="31.7798300" lon="35.0405400">
<ele>463.049988</ele>
<time>2021-04-17T08:15:27.021Z</time>
</trkpt>
<trkpt lat="31.7801300" lon="35.0406200">
<ele>462.669983</ele>
<time>2021-04-17T08:15:27.021Z</time>
</trkpt>
<trkpt lat="31.7802600" lon="35.0406900">
<ele>463.089996</ele>
<time>2021-04-17T08:15:27.021Z</time>
</trkpt>
<trkpt lat="31.7804600" lon="35.0408700">
<ele>464.670013</ele>
<time>2021-04-17T08:15:27.021Z</time>
</trkpt>
<trkpt lat="31.7806900" lon="35.0410300">
<ele>470.879974</ele>
<time>2021-04-17T08:15:27.021Z</time>
</trkpt>
<trkpt lat="31.7810100" lon="35.0412000">
<ele>470.480011</ele>
<time>2021-04-17T08:15:27.021Z</time>
</trkpt>
<trkpt lat="31.7813500" lon="35.0413300">
<ele>456.450012</ele>
<time>2021-04-17T08:15:27.021Z</time>
</trkpt>
<trkpt lat="31.7814000" lon="35.0413700">
<ele>455.009979</ele>
<time>2021-04-17T08:15:27.021Z</time>
</trkpt>
<trkpt lat="31.7814900" lon="35.0414800">
<ele>454.080017</ele>
<time>2021-04-17T08:15:27.021Z</time>
</trkpt>
<trkpt lat="31.7816600" lon="35.0418600">
<ele>461.279999</ele>
<time>2021-04-17T08:15:27.021Z</time>
</trkpt>
<trkpt lat="31.7817500" lon="35.0419300">
<ele>461.600006</ele>
<time>2021-04-17T08:15:27.021Z</time>
</trkpt>
<trkpt lat="31.7821700" lon="35.0420900">
<ele>456.309998</ele>
<time>2021-04-17T08:15:27.021Z</time>
</trkpt>
<trkpt lat="31.7822400" lon="35.0421600">
<ele>457.019989</ele>
<time>2021-04-17T08:15:27.021Z</time>
</trkpt>
<trkpt lat="31.7822800" lon="35.0422200">
<ele>457.430023</ele>
<time>2021-04-17T08:15:27.021Z</time>
</trkpt>
<trkpt lat="31.7823200" lon="35.0423400">
<ele>458.769989</ele>
<time>2021-04-17T08:15:27.021Z</time>
</trkpt>
<trkpt lat="31.7823400" lon="35.0424800">
<ele>461.660004</ele>
<time>2021-04-17T08:15:27.021Z</time>
</trkpt>
<trkpt lat="31.7823700" lon="35.0432900">
<ele>479.290009</ele>
<time>2021-04-17T08:15:27.021Z</time>
</trkpt>
<trkpt lat="31.7824400" lon="35.0438600">
<ele>487.750000</ele>
<time>2021-04-17T08:15:27.021Z</time>
</trkpt>
<trkpt lat="31.7824700" lon="35.0439800">
<ele>486.600006</ele>
<time>2021-04-17T08:15:27.022Z</time>
</trkpt>
<trkpt lat="31.7826900" lon="35.0445900">
<ele>480.700012</ele>
<time>2021-04-17T08:15:27.022Z</time>
</trkpt>
<trkpt lat="31.7828600" lon="35.0451700">
<ele>486.399994</ele>
<time>2021-04-17T08:15:27.022Z</time>
</trkpt>
<trkpt lat="31.7828900" lon="35.0453500">
<ele>489.419983</ele>
<time>2021-04-17T08:15:27.022Z</time>
</trkpt>
<trkpt lat="31.7828800" lon="35.0455500">
<ele>493.679993</ele>
<time>2021-04-17T08:15:27.022Z</time>
</trkpt>
<trkpt lat="31.7827900" lon="35.0459600">
<ele>498.160004</ele>
<time>2021-04-17T08:15:27.022Z</time>
</trkpt>
<trkpt lat="31.7826900" lon="35.0465100">
<ele>498.440002</ele>
<time>2021-04-17T08:15:27.022Z</time>
</trkpt>
<trkpt lat="31.7826100" lon="35.0473600">
<ele>506.419983</ele>
<time>2021-04-17T08:15:27.022Z</time>
</trkpt>
<trkpt lat="31.7825900" lon="35.0478900">
<ele>509.720001</ele>
<time>2021-04-17T08:15:27.022Z</time>
</trkpt>
<trkpt lat="31.7826500" lon="35.0483500">
<ele>510.970001</ele>
<time>2021-04-17T08:15:27.022Z</time>
</trkpt>
<trkpt lat="31.7827600" lon="35.0488700">
<ele>511.809998</ele>
<time>2021-04-17T08:15:27.022Z</time>
</trkpt>
<trkpt lat="31.7830300" lon="35.0497400">
<ele>518.950012</ele>
<time>2021-04-17T08:15:27.022Z</time>
</trkpt>
<trkpt lat="31.7831100" lon="35.0500700">
<ele>520.880005</ele>
<time>2021-04-17T08:15:27.022Z</time>
</trkpt>
<trkpt lat="31.7831200" lon="35.0508500">
<ele>532.419983</ele>
<time>2021-04-17T08:15:27.022Z</time>
</trkpt>
<trkpt lat="31.7831100" lon="35.0509300">
<ele>533.830017</ele>
<time>2021-04-17T08:15:27.022Z</time>
</trkpt>
<trkpt lat="31.7831100" lon="35.0509300">
<ele>533.830017</ele>
<time>2021-04-17T08:15:27.022Z</time>
</trkpt>
<trkpt lat="31.7831100" lon="35.0509300">
<ele>533.830017</ele>
<time>2021-04-17T08:15:27.022Z</time>
</trkpt>
<trkpt lat="31.7830800" lon="35.0513700">
<ele>540.600037</ele>
<time>2021-04-17T08:15:27.022Z</time>
</trkpt>
<trkpt lat="31.7830800" lon="35.0517900">
<ele>542.799988</ele>
<time>2021-04-17T08:15:27.022Z</time>
</trkpt>
<trkpt lat="31.7830400" lon="35.0526200">
<ele>542.859985</ele>
<time>2021-04-17T08:15:27.022Z</time>
</trkpt>
<trkpt lat="31.7830400" lon="35.0529700">
<ele>541.210022</ele>
<time>2021-04-17T08:15:27.022Z</time>
</trkpt>
<trkpt lat="31.7830300" lon="35.0531000">
<ele>540.409973</ele>
<time>2021-04-17T08:15:27.022Z</time>
</trkpt>
<trkpt lat="31.7829900" lon="35.0533100">
<ele>539.179993</ele>
<time>2021-04-17T08:15:27.022Z</time>
</trkpt>
<trkpt lat="31.7829100" lon="35.0535500">
<ele>540.409973</ele>
<time>2021-04-17T08:15:27.022Z</time>
</trkpt>
<trkpt lat="31.7826800" lon="35.0540900">
<ele>547.109985</ele>
<time>2021-04-17T08:15:27.022Z</time>
</trkpt>
<trkpt lat="31.7826400" lon="35.0542300">
<ele>547.989990</ele>
<time>2021-04-17T08:15:27.022Z</time>
</trkpt>
<trkpt lat="31.7824900" lon="35.0548400">
<ele>550.469971</ele>
<time>2021-04-17T08:15:27.022Z</time>
</trkpt>
<trkpt lat="31.7823800" lon="35.0550700">
<ele>550.440002</ele>
<time>2021-04-17T08:15:27.023Z</time>
</trkpt>
<trkpt lat="31.7823000" lon="35.0551600">
<ele>549.919983</ele>
<time>2021-04-17T08:15:27.023Z</time>
</trkpt>
<trkpt lat="31.7822100" lon="35.0552300">
<ele>549.619995</ele>
<time>2021-04-17T08:15:27.023Z</time>
</trkpt>
<trkpt lat="31.7820300" lon="35.0553100">
<ele>551.440002</ele>
<time>2021-04-17T08:15:27.023Z</time>
</trkpt>
<trkpt lat="31.7818800" lon="35.0553600">
<ele>552.720032</ele>
<time>2021-04-17T08:15:27.023Z</time>
</trkpt>
<trkpt lat="31.7817500" lon="35.0553700">
<ele>554.610046</ele>
<time>2021-04-17T08:15:27.023Z</time>
</trkpt>
<trkpt lat="31.7811000" lon="35.0552800">
<ele>576.109985</ele>
<time>2021-04-17T08:15:27.023Z</time>
</trkpt>
<trkpt lat="31.7806800" lon="35.0552800">
<ele>583.119995</ele>
<time>2021-04-17T08:15:27.023Z</time>
</trkpt>
<trkpt lat="31.7803700" lon="35.0552500">
<ele>585.000000</ele>
<time>2021-04-17T08:15:27.023Z</time>
</trkpt>
<trkpt lat="31.7802800" lon="35.0552800">
<ele>584.979980</ele>
<time>2021-04-17T08:15:27.023Z</time>
</trkpt>
<trkpt lat="31.7802100" lon="35.0553500">
<ele>583.609985</ele>
<time>2021-04-17T08:15:27.023Z</time>
</trkpt>
<trkpt lat="31.7800600" lon="35.0556500">
<ele>579.829956</ele>
<time>2021-04-17T08:15:27.023Z</time>
</trkpt>
<trkpt lat="31.7796200" lon="35.0566500">
<ele>574.040039</ele>
<time>2021-04-17T08:15:27.023Z</time>
</trkpt>
<trkpt lat="31.7792700" lon="35.0573400">
<ele>574.270020</ele>
<time>2021-04-17T08:15:27.023Z</time>
</trkpt>
<trkpt lat="31.7790600" lon="35.0578000">
<ele>575.780029</ele>
<time>2021-04-17T08:15:27.023Z</time>
</trkpt>
<trkpt lat="31.7790400" lon="35.0579300">
<ele>575.229980</ele>
<time>2021-04-17T08:15:27.023Z</time>
</trkpt>
<trkpt lat="31.7790400" lon="35.0580500">
<ele>574.409973</ele>
<time>2021-04-17T08:15:27.023Z</time>
</trkpt>
<trkpt lat="31.7790900" lon="35.0581600">
<ele>574.750000</ele>
<time>2021-04-17T08:15:27.023Z</time>
</trkpt>
<trkpt lat="31.7791500" lon="35.0582100">
<ele>574.779968</ele>
<time>2021-04-17T08:15:27.023Z</time>
</trkpt>
<trkpt lat="31.7792200" lon="35.0582300">
<ele>574.190002</ele>
<time>2021-04-17T08:15:27.023Z</time>
</trkpt>
<trkpt lat="31.7793500" lon="35.0582100">
<ele>572.320007</ele>
<time>2021-04-17T08:15:27.023Z</time>
</trkpt>
<trkpt lat="31.7795800" lon="35.0581400">
<ele>570.760010</ele>
<time>2021-04-17T08:15:27.023Z</time>
</trkpt>
<trkpt lat="31.7797800" lon="35.0581200">
<ele>571.690002</ele>
<time>2021-04-17T08:15:27.023Z</time>
</trkpt>
<trkpt lat="31.7799300" lon="35.0581300">
<ele>574.340027</ele>
<time>2021-04-17T08:15:27.023Z</time>
</trkpt>
<trkpt lat="31.7800300" lon="35.0581600">
<ele>575.869995</ele>
<time>2021-04-17T08:15:27.023Z</time>
</trkpt>
<trkpt lat="31.7802000" lon="35.0582700">
<ele>578.209961</ele>
<time>2021-04-17T08:15:27.023Z</time>
</trkpt>
<trkpt lat="31.7802200" lon="35.0582900">
<ele>578.690002</ele>
<time>2021-04-17T08:15:27.023Z</time>
</trkpt>
<trkpt lat="31.7803000" lon="35.0584100">
<ele>579.570007</ele>
<time>2021-04-17T08:15:27.023Z</time>
</trkpt>
<trkpt lat="31.7803600" lon="35.0585800">
<ele>579.510010</ele>
<time>2021-04-17T08:15:27.024Z</time>
</trkpt>
<trkpt lat="31.7804100" lon="35.0588300">
<ele>582.640015</ele>
<time>2021-04-17T08:15:27.024Z</time>
</trkpt>
<trkpt lat="31.7804200" lon="35.0590400">
<ele>584.880005</ele>
<time>2021-04-17T08:15:27.024Z</time>
</trkpt>
<trkpt lat="31.7804300" lon="35.0593900">
<ele>586.020020</ele>
<time>2021-04-17T08:15:27.024Z</time>
</trkpt>
<trkpt lat="31.7804100" lon="35.0596700">
<ele>586.809998</ele>
<time>2021-04-17T08:15:27.024Z</time>
</trkpt>
<trkpt lat="31.7802600" lon="35.0608600">
<ele>583.010010</ele>
<time>2021-04-17T08:15:27.024Z</time>
</trkpt>
<trkpt lat="31.7801800" lon="35.0612100">
<ele>580.169983</ele>
<time>2021-04-17T08:15:27.024Z</time>
</trkpt>
<trkpt lat="31.7801000" lon="35.0614600">
<ele>580.539978</ele>
<time>2021-04-17T08:15:27.024Z</time>
</trkpt>
<trkpt lat="31.7799000" lon="35.0619500">
<ele>589.989990</ele>
<time>2021-04-17T08:15:27.024Z</time>
</trkpt>
<trkpt lat="31.7796700" lon="35.0624200">
<ele>590.969971</ele>
<time>2021-04-17T08:15:27.024Z</time>
</trkpt>
<trkpt lat="31.7794000" lon="35.0629100">
<ele>592.119995</ele>
<time>2021-04-17T08:15:27.024Z</time>
</trkpt>
<trkpt lat="31.7790800" lon="35.0637400">
<ele>595.339966</ele>
<time>2021-04-17T08:15:27.024Z</time>
</trkpt>
<trkpt lat="31.7789700" lon="35.0640300">
<ele>599.059998</ele>
<time>2021-04-17T08:15:27.024Z</time>
</trkpt>
<trkpt lat="31.7789300" lon="35.0642800">
<ele>601.700012</ele>
<time>2021-04-17T08:15:27.024Z</time>
</trkpt>
<trkpt lat="31.7789600" lon="35.0644100">
<ele>602.010010</ele>
<time>2021-04-17T08:15:27.024Z</time>
</trkpt>
<trkpt lat="31.7790000" lon="35.0645000">
<ele>602.600037</ele>
<time>2021-04-17T08:15:27.024Z</time>
</trkpt>
<trkpt lat="31.7790500" lon="35.0645500">
<ele>602.779968</ele>
<time>2021-04-17T08:15:27.024Z</time>
</trkpt>
<trkpt lat="31.7791000" lon="35.0645800">
<ele>602.669983</ele>
<time>2021-04-17T08:15:27.024Z</time>
</trkpt>
<trkpt lat="31.7791800" lon="35.0645800">
<ele>601.640015</ele>
<time>2021-04-17T08:15:27.024Z</time>
</trkpt>
<trkpt lat="31.7792500" lon="35.0645500">
<ele>599.529968</ele>
<time>2021-04-17T08:15:27.024Z</time>
</trkpt>
<trkpt lat="31.7804100" lon="35.0638400">
<ele>591.559998</ele>
<time>2021-04-17T08:15:27.024Z</time>
</trkpt>
<trkpt lat="31.7807900" lon="35.0636900">
<ele>596.239990</ele>
<time>2021-04-17T08:15:27.024Z</time>
</trkpt>
<trkpt lat="31.7809000" lon="35.0636900">
<ele>598.070007</ele>
<time>2021-04-17T08:15:27.024Z</time>
</trkpt>
<trkpt lat="31.7809800" lon="35.0637400">
<ele>599.289978</ele>
<time>2021-04-17T08:15:27.024Z</time>
</trkpt>
<trkpt lat="31.7810000" lon="35.0637900">
<ele>599.830017</ele>
<time>2021-04-17T08:15:27.024Z</time>
</trkpt>
<trkpt lat="31.7810000" lon="35.0637900">
<ele>599.830017</ele>
<time>2021-04-17T08:15:27.024Z</time>
</trkpt>
<trkpt lat="31.7810000" lon="35.0637900">
<ele>599.830017</ele>
<time>2021-04-17T08:15:27.024Z</time>
</trkpt>
<trkpt lat="31.7810400" lon="35.0638800">
<ele>600.919983</ele>
<time>2021-04-17T08:15:27.025Z</time>
</trkpt>
<trkpt lat="31.7810700" lon="35.0642000">
<ele>601.419983</ele>
<time>2021-04-17T08:15:27.025Z</time>
</trkpt>
<trkpt lat="31.7810700" lon="35.0643000">
<ele>601.880005</ele>
<time>2021-04-17T08:15:27.025Z</time>
</trkpt>
<trkpt lat="31.7810700" lon="35.0647600">
<ele>603.619995</ele>
<time>2021-04-17T08:15:27.025Z</time>
</trkpt>
<trkpt lat="31.7810900" lon="35.0651100">
<ele>605.219971</ele>
<time>2021-04-17T08:15:27.025Z</time>
</trkpt>
<trkpt lat="31.7810900" lon="35.0655700">
<ele>610.349976</ele>
<time>2021-04-17T08:15:27.025Z</time>
</trkpt>
<trkpt lat="31.7810700" lon="35.0657500">
<ele>612.890015</ele>
<time>2021-04-17T08:15:27.025Z</time>
</trkpt>
<trkpt lat="31.7810000" lon="35.0660900">
<ele>611.970032</ele>
<time>2021-04-17T08:15:27.025Z</time>
</trkpt>
<trkpt lat="31.7809000" lon="35.0663200">
<ele>612.520020</ele>
<time>2021-04-17T08:15:27.025Z</time>
</trkpt>
<trkpt lat="31.7807900" lon="35.0665100">
<ele>613.020020</ele>
<time>2021-04-17T08:15:27.025Z</time>
</trkpt>
<trkpt lat="31.7802700" lon="35.0672600">
<ele>606.250000</ele>
<time>2021-04-17T08:15:27.025Z</time>
</trkpt>
<trkpt lat="31.7801700" lon="35.0674500">
<ele>608.369995</ele>
<time>2021-04-17T08:15:27.025Z</time>
</trkpt>
<trkpt lat="31.7801400" lon="35.0675800">
<ele>609.270020</ele>
<time>2021-04-17T08:15:27.025Z</time>
</trkpt>
<trkpt lat="31.7801400" lon="35.0677000">
<ele>609.700012</ele>
<time>2021-04-17T08:15:27.025Z</time>
</trkpt>
<trkpt lat="31.7801600" lon="35.0678400">
<ele>608.960022</ele>
<time>2021-04-17T08:15:27.025Z</time>
</trkpt>
<trkpt lat="31.7801800" lon="35.0679000">
<ele>607.830017</ele>
<time>2021-04-17T08:15:27.025Z</time>
</trkpt>
<trkpt lat="31.7803100" lon="35.0683300">
<ele>600.559998</ele>
<time>2021-04-17T08:15:27.025Z</time>
</trkpt>
<trkpt lat="31.7803500" lon="35.0685200">
<ele>599.460022</ele>
<time>2021-04-17T08:15:27.025Z</time>
</trkpt>
<trkpt lat="31.7803600" lon="35.0687300">
<ele>598.260010</ele>
<time>2021-04-17T08:15:27.025Z</time>
</trkpt>
<trkpt lat="31.7802800" lon="35.0693300">
<ele>592.520020</ele>
<time>2021-04-17T08:15:27.025Z</time>
</trkpt>
<trkpt lat="31.7801900" lon="35.0698000">
<ele>592.580017</ele>
<time>2021-04-17T08:15:27.025Z</time>
</trkpt>
<trkpt lat="31.7801400" lon="35.0699700">
<ele>591.170044</ele>
<time>2021-04-17T08:15:27.025Z</time>
</trkpt>
<trkpt lat="31.7800600" lon="35.0701300">
<ele>590.029968</ele>
<time>2021-04-17T08:15:27.025Z</time>
</trkpt>
<trkpt lat="31.7795300" lon="35.0710800">
<ele>588.609985</ele>
<time>2021-04-17T08:15:27.025Z</time>
</trkpt>
<trkpt lat="31.7794400" lon="35.0713100">
<ele>589.070007</ele>
<time>2021-04-17T08:15:27.025Z</time>
</trkpt>
<trkpt lat="31.7794300" lon="35.0715700">
<ele>589.159973</ele>
<time>2021-04-17T08:15:27.025Z</time>
</trkpt>
<trkpt lat="31.7794600" lon="35.0721800">
<ele>589.479980</ele>
<time>2021-04-17T08:15:27.025Z</time>
</trkpt>
<trkpt lat="31.7794300" lon="35.0725000">
<ele>587.210022</ele>
<time>2021-04-17T08:15:27.025Z</time>
</trkpt>
<trkpt lat="31.7793400" lon="35.0730500">
<ele>590.839966</ele>
<time>2021-04-17T08:15:27.025Z</time>
</trkpt>
<trkpt lat="31.7793300" lon="35.0733200">
<ele>593.130005</ele>
<time>2021-04-17T08:15:27.025Z</time>
</trkpt>
<trkpt lat="31.7793600" lon="35.0734800">
<ele>594.130005</ele>
<time>2021-04-17T08:15:27.025Z</time>
</trkpt>
<trkpt lat="31.7797200" lon="35.0742000">
<ele>590.440002</ele>
<time>2021-04-17T08:15:27.026Z</time>
</trkpt>
<trkpt lat="31.7798000" lon="35.0745100">
<ele>586.540039</ele>
<time>2021-04-17T08:15:27.026Z</time>
</trkpt>
<trkpt lat="31.7798100" lon="35.0747500">
<ele>584.700012</ele>
<time>2021-04-17T08:15:27.026Z</time>
</trkpt>
<trkpt lat="31.7797900" lon="35.0749000">
<ele>583.179993</ele>
<time>2021-04-17T08:15:27.026Z</time>
</trkpt>
<trkpt lat="31.7797300" lon="35.0752500">
<ele>581.989990</ele>
<time>2021-04-17T08:15:27.026Z</time>
</trkpt>
<trkpt lat="31.7796200" lon="35.0756000">
<ele>583.030029</ele>
<time>2021-04-17T08:15:27.026Z</time>
</trkpt>
<trkpt lat="31.7795400" lon="35.0757700">
<ele>581.359985</ele>
<time>2021-04-17T08:15:27.026Z</time>
</trkpt>
<trkpt lat="31.7793500" lon="35.0760000">
<ele>577.940002</ele>
<time>2021-04-17T08:15:27.026Z</time>
</trkpt>
<trkpt lat="31.7789900" lon="35.0763100">
<ele>578.729980</ele>
<time>2021-04-17T08:15:27.026Z</time>
</trkpt>
<trkpt lat="31.7788900" lon="35.0764300">
<ele>580.280029</ele>
<time>2021-04-17T08:15:27.026Z</time>
</trkpt>
<trkpt lat="31.7788500" lon="35.0765500">
<ele>581.780029</ele>
<time>2021-04-17T08:15:27.026Z</time>
</trkpt>
<trkpt lat="31.7788600" lon="35.0766800">
<ele>582.470032</ele>
<time>2021-04-17T08:15:27.026Z</time>
</trkpt>
<trkpt lat="31.7788900" lon="35.0768000">
<ele>582.460022</ele>
<time>2021-04-17T08:15:27.026Z</time>
</trkpt>
<trkpt lat="31.7791000" lon="35.0773400">
<ele>580.619995</ele>
<time>2021-04-17T08:15:27.026Z</time>
</trkpt>
<trkpt lat="31.7791400" lon="35.0776000">
<ele>580.119995</ele>
<time>2021-04-17T08:15:27.026Z</time>
</trkpt>
<trkpt lat="31.7791500" lon="35.0779000">
<ele>578.090027</ele>
<time>2021-04-17T08:15:27.026Z</time>
</trkpt>
<trkpt lat="31.7790900" lon="35.0783700">
<ele>578.690002</ele>
<time>2021-04-17T08:15:27.026Z</time>
</trkpt>
<trkpt lat="31.7790800" lon="35.0784700">
<ele>579.029968</ele>
<time>2021-04-17T08:15:27.026Z</time>
</trkpt>
<trkpt lat="31.7791100" lon="35.0785500">
<ele>578.380005</ele>
<time>2021-04-17T08:15:27.026Z</time>
</trkpt>
<trkpt lat="31.7791800" lon="35.0786000">
<ele>576.849976</ele>
<time>2021-04-17T08:15:27.026Z</time>
</trkpt>
<trkpt lat="31.7792400" lon="35.0786100">
<ele>576.200012</ele>
<time>2021-04-17T08:15:27.026Z</time>
</trkpt>
<trkpt lat="31.7793600" lon="35.0785600">
<ele>574.270020</ele>
<time>2021-04-17T08:15:27.026Z</time>
</trkpt>
<trkpt lat="31.7801400" lon="35.0780700">
<ele>560.399963</ele>
<time>2021-04-17T08:15:27.026Z</time>
</trkpt>
<trkpt lat="31.7801400" lon="35.0780700">
<ele>560.399963</ele>
<time>2021-04-17T08:15:27.026Z</time>
</trkpt>
<trkpt lat="31.7801400" lon="35.0780700">
<ele>560.399963</ele>
<time>2021-04-17T08:15:27.026Z</time>
</trkpt>
<trkpt lat="31.7801500" lon="35.0780700">
<ele>560.479980</ele>
<time>2021-04-17T08:15:27.026Z</time>
</trkpt>
<trkpt lat="31.7803100" lon="35.0779900">
<ele>561.640015</ele>
<time>2021-04-17T08:15:27.026Z</time>
</trkpt>
<trkpt lat="31.7805300" lon="35.0779300">
<ele>566.989990</ele>
<time>2021-04-17T08:15:27.026Z</time>
</trkpt>
<trkpt lat="31.7810500" lon="35.0778600">
<ele>568.750000</ele>
<time>2021-04-17T08:15:27.026Z</time>
</trkpt>
<trkpt lat="31.7812200" lon="35.0778600">
<ele>568.659973</ele>
<time>2021-04-17T08:15:27.026Z</time>
</trkpt>
<trkpt lat="31.7814400" lon="35.0779200">
<ele>570.409973</ele>
<time>2021-04-17T08:15:27.026Z</time>
</trkpt>
<trkpt lat="31.7816700" lon="35.0780400">
<ele>570.770020</ele>
<time>2021-04-17T08:15:27.027Z</time>
</trkpt>
<trkpt lat="31.7818000" lon="35.0781700">
<ele>570.049988</ele>
<time>2021-04-17T08:15:27.027Z</time>
</trkpt>
<trkpt lat="31.7819500" lon="35.0783800">
<ele>569.489990</ele>
<time>2021-04-17T08:15:27.027Z</time>
</trkpt>
<trkpt lat="31.7823100" lon="35.0789600">
<ele>569.359985</ele>
<time>2021-04-17T08:15:27.027Z</time>
</trkpt>
<trkpt lat="31.7824900" lon="35.0791900">
<ele>572.150024</ele>
<time>2021-04-17T08:15:27.027Z</time>
</trkpt>
<trkpt lat="31.7825800" lon="35.0792700">
<ele>571.020020</ele>
<time>2021-04-17T08:15:27.027Z</time>
</trkpt>
<trkpt lat="31.7827200" lon="35.0793500">
<ele>568.570007</ele>
<time>2021-04-17T08:15:27.027Z</time>
</trkpt>
<trkpt lat="31.7830200" lon="35.0794800">
<ele>561.179993</ele>
<time>2021-04-17T08:15:27.027Z</time>
</trkpt>
<trkpt lat="31.7832700" lon="35.0796300">
<ele>554.750000</ele>
<time>2021-04-17T08:15:27.027Z</time>
</trkpt>
<trkpt lat="31.7834000" lon="35.0797700">
<ele>553.080017</ele>
<time>2021-04-17T08:15:27.027Z</time>
</trkpt>
<trkpt lat="31.7834800" lon="35.0799000">
<ele>552.750000</ele>
<time>2021-04-17T08:15:27.027Z</time>
</trkpt>
<trkpt lat="31.7835200" lon="35.0801100">
<ele>553.239990</ele>
<time>2021-04-17T08:15:27.027Z</time>
</trkpt>
<trkpt lat="31.7835400" lon="35.0804400">
<ele>553.209961</ele>
<time>2021-04-17T08:15:27.027Z</time>
</trkpt>
<trkpt lat="31.7834700" lon="35.0810600">
<ele>552.980042</ele>
<time>2021-04-17T08:15:27.027Z</time>
</trkpt>
<trkpt lat="31.7834400" lon="35.0812200">
<ele>552.619995</ele>
<time>2021-04-17T08:15:27.027Z</time>
</trkpt>
<trkpt lat="31.7830100" lon="35.0825400">
<ele>550.010010</ele>
<time>2021-04-17T08:15:27.027Z</time>
</trkpt>
<trkpt lat="31.7823300" lon="35.0844600">
<ele>556.690002</ele>
<time>2021-04-17T08:15:27.027Z</time>
</trkpt>
<trkpt lat="31.7822700" lon="35.0846800">
<ele>557.149963</ele>
<time>2021-04-17T08:15:27.027Z</time>
</trkpt>
<trkpt lat="31.7822600" lon="35.0848500">
<ele>556.979980</ele>
<time>2021-04-17T08:15:27.027Z</time>
</trkpt>
<trkpt lat="31.7822600" lon="35.0849600">
<ele>556.960022</ele>
<time>2021-04-17T08:15:27.027Z</time>
</trkpt>
<trkpt lat="31.7823100" lon="35.0852300">
<ele>561.000000</ele>
<time>2021-04-17T08:15:27.027Z</time>
</trkpt>
<trkpt lat="31.7824400" lon="35.0851100">
<ele>562.450012</ele>
<time>2021-04-17T08:15:27.027Z</time>
</trkpt>
<trkpt lat="31.7824800" lon="35.0850400">
<ele>562.799988</ele>
<time>2021-04-17T08:15:27.027Z</time>
</trkpt>
<trkpt lat="31.7826500" lon="35.0842600">
<ele>553.599976</ele>
<time>2021-04-17T08:15:27.027Z</time>
</trkpt>
<trkpt lat="31.7828600" lon="35.0837200">
<ele>550.070007</ele>
<time>2021-04-17T08:15:27.027Z</time>
</trkpt>
<trkpt lat="31.7830900" lon="35.0832300">
<ele>551.809998</ele>
<time>2021-04-17T08:15:27.027Z</time>
</trkpt>
<trkpt lat="31.7832100" lon="35.0830200">
<ele>553.739990</ele>
<time>2021-04-17T08:15:27.027Z</time>
</trkpt>
<trkpt lat="31.7836400" lon="35.0823400">
<ele>553.270020</ele>
<time>2021-04-17T08:15:27.027Z</time>
</trkpt>
<trkpt lat="31.7838700" lon="35.0819500">
<ele>550.299988</ele>
<time>2021-04-17T08:15:27.027Z</time>
</trkpt>
<trkpt lat="31.7841900" lon="35.0814900">
<ele>553.599976</ele>
<time>2021-04-17T08:15:27.027Z</time>
</trkpt>
<trkpt lat="31.7844300" lon="35.0810700">
<ele>558.229980</ele>
<time>2021-04-17T08:15:27.027Z</time>
</trkpt>
<trkpt lat="31.7847000" lon="35.0805000">
<ele>565.750000</ele>
<time>2021-04-17T08:15:27.027Z</time>
</trkpt>
<trkpt lat="31.7847000" lon="35.0805000">
<ele>565.750000</ele>
<time>2021-04-17T08:15:27.028Z</time>
</trkpt>
<trkpt lat="31.7847000" lon="35.0805000">
<ele>565.750000</ele>
<time>2021-04-17T08:15:27.028Z</time>
</trkpt>
<trkpt lat="31.7847000" lon="35.0805000">
<ele>565.750000</ele>
<time>2021-04-17T08:15:27.028Z</time>
</trkpt>
<trkpt lat="31.7848200" lon="35.0802500">
<ele>566.880005</ele>
<time>2021-04-17T08:15:27.028Z</time>
</trkpt>
<trkpt lat="31.7850400" lon="35.0798100">
<ele>571.030029</ele>
<time>2021-04-17T08:15:27.028Z</time>
</trkpt>
<trkpt lat="31.7855400" lon="35.0787200">
<ele>585.440002</ele>
<time>2021-04-17T08:15:27.028Z</time>
</trkpt>
<trkpt lat="31.7855900" lon="35.0786400">
<ele>585.659973</ele>
<time>2021-04-17T08:15:27.028Z</time>
</trkpt>
<trkpt lat="31.7856800" lon="35.0785300">
<ele>585.529968</ele>
<time>2021-04-17T08:15:27.028Z</time>
</trkpt>
<trkpt lat="31.7857200" lon="35.0785200">
<ele>585.340027</ele>
<time>2021-04-17T08:15:27.028Z</time>
</trkpt>
<trkpt lat="31.7857900" lon="35.0785200">
<ele>584.920044</ele>
<time>2021-04-17T08:15:27.028Z</time>
</trkpt>
<trkpt lat="31.7858300" lon="35.0785600">
<ele>584.390015</ele>
<time>2021-04-17T08:15:27.028Z</time>
</trkpt>
<trkpt lat="31.7859000" lon="35.0786200">
<ele>582.570007</ele>
<time>2021-04-17T08:15:27.028Z</time>
</trkpt>
<trkpt lat="31.7860800" lon="35.0788900">
<ele>579.559998</ele>
<time>2021-04-17T08:15:27.028Z</time>
</trkpt>
<trkpt lat="31.7864500" lon="35.0795500">
<ele>579.989990</ele>
<time>2021-04-17T08:15:27.028Z</time>
</trkpt>
<trkpt lat="31.7864500" lon="35.0795500">
<ele>579.989990</ele>
<time>2021-04-17T08:15:27.028Z</time>
</trkpt>
<trkpt lat="31.7864500" lon="35.0795500">
<ele>579.989990</ele>
<time>2021-04-17T08:15:27.028Z</time>
</trkpt>
<trkpt lat="31.7864500" lon="35.0795500">
<ele>579.989990</ele>
<time>2021-04-17T08:15:27.028Z</time>
</trkpt>
<trkpt lat="31.7865800" lon="35.0797700">
<ele>579.109985</ele>
<time>2021-04-17T08:15:27.028Z</time>
</trkpt>
<trkpt lat="31.7867500" lon="35.0800000">
<ele>578.400024</ele>
<time>2021-04-17T08:15:27.028Z</time>
</trkpt>
<trkpt lat="31.7870200" lon="35.0802800">
<ele>580.340027</ele>
<time>2021-04-17T08:15:27.028Z</time>
</trkpt>
<trkpt lat="31.7875500" lon="35.0807200">
<ele>592.459961</ele>
<time>2021-04-17T08:15:27.028Z</time>
</trkpt>
<trkpt lat="31.7878600" lon="35.0810100">
<ele>591.720032</ele>
<time>2021-04-17T08:15:27.028Z</time>
</trkpt>
<trkpt lat="31.7880200" lon="35.0811200">
<ele>591.400024</ele>
<time>2021-04-17T08:15:27.028Z</time>
</trkpt>
<trkpt lat="31.7888100" lon="35.0815400">
<ele>582.260010</ele>
<time>2021-04-17T08:15:27.028Z</time>
</trkpt>
<trkpt lat="31.7888600" lon="35.0815600">
<ele>581.479980</ele>
<time>2021-04-17T08:15:27.028Z</time>
</trkpt>
<trkpt lat="31.7889800" lon="35.0816100">
<ele>580.729980</ele>
<time>2021-04-17T08:15:27.028Z</time>
</trkpt>
<trkpt lat="31.7891200" lon="35.0816200">
<ele>579.969971</ele>
<time>2021-04-17T08:15:27.028Z</time>
</trkpt>
<trkpt lat="31.7895500" lon="35.0815800">
<ele>581.500000</ele>
<time>2021-04-17T08:15:27.028Z</time>
</trkpt>
<trkpt lat="31.7898100" lon="35.0816000">
<ele>582.470032</ele>
<time>2021-04-17T08:15:27.028Z</time>
</trkpt>
<trkpt lat="31.7899400" lon="35.0816500">
<ele>584.350037</ele>
<time>2021-04-17T08:15:27.028Z</time>
</trkpt>
<trkpt lat="31.7900700" lon="35.0817300">
<ele>585.330017</ele>
<time>2021-04-17T08:15:27.028Z</time>
</trkpt>
<trkpt lat="31.7906600" lon="35.0821500">
<ele>576.520020</ele>
<time>2021-04-17T08:15:27.028Z</time>
</trkpt>
<trkpt lat="31.7909500" lon="35.0824000">
<ele>568.669983</ele>
<time>2021-04-17T08:15:27.029Z</time>
</trkpt>
<trkpt lat="31.7920400" lon="35.0836400">
<ele>559.799988</ele>
<time>2021-04-17T08:15:27.029Z</time>
</trkpt>
<trkpt lat="31.7924100" lon="35.0840000">
<ele>552.869995</ele>
<time>2021-04-17T08:15:27.029Z</time>
</trkpt>
<trkpt lat="31.7925500" lon="35.0841300">
<ele>551.390015</ele>
<time>2021-04-17T08:15:27.029Z</time>
</trkpt>
<trkpt lat="31.7929800" lon="35.0845100">
<ele>547.150024</ele>
<time>2021-04-17T08:15:27.029Z</time>
</trkpt>
<trkpt lat="31.7931100" lon="35.0846500">
<ele>545.650024</ele>
<time>2021-04-17T08:15:27.029Z</time>
</trkpt>
<trkpt lat="31.7931800" lon="35.0848000">
<ele>545.400024</ele>
<time>2021-04-17T08:15:27.029Z</time>
</trkpt>
<trkpt lat="31.7931800" lon="35.0848000">
<ele>545.400024</ele>
<time>2021-04-17T08:15:27.029Z</time>
</trkpt>
<trkpt lat="31.7931800" lon="35.0848000">
<ele>545.400024</ele>
<time>2021-04-17T08:15:27.029Z</time>
</trkpt>
<trkpt lat="31.7932200" lon="35.0848700">
<ele>545.190002</ele>
<time>2021-04-17T08:15:27.029Z</time>
</trkpt>
<trkpt lat="31.7932900" lon="35.0851100">
<ele>544.330017</ele>
<time>2021-04-17T08:15:27.029Z</time>
</trkpt>
<trkpt lat="31.7935400" lon="35.0864400">
<ele>535.820007</ele>
<time>2021-04-17T08:15:27.029Z</time>
</trkpt>
<trkpt lat="31.7936400" lon="35.0874200">
<ele>530.130005</ele>
<time>2021-04-17T08:15:27.029Z</time>
</trkpt>
<trkpt lat="31.7936600" lon="35.0881400">
<ele>527.150024</ele>
<time>2021-04-17T08:15:27.029Z</time>
</trkpt>
<trkpt lat="31.7936900" lon="35.0882100">
<ele>526.780029</ele>
<time>2021-04-17T08:15:27.029Z</time>
</trkpt>
<trkpt lat="31.7936900" lon="35.0882100">
<ele>526.780029</ele>
<time>2021-04-17T08:15:27.029Z</time>
</trkpt>
<trkpt lat="31.7936900" lon="35.0882100">
<ele>526.780029</ele>
<time>2021-04-17T08:15:27.029Z</time>
</trkpt>
<trkpt lat="31.7937100" lon="35.0882800">
<ele>526.630005</ele>
<time>2021-04-17T08:15:27.029Z</time>
</trkpt>
<trkpt lat="31.7937400" lon="35.0883200">
<ele>526.520020</ele>
<time>2021-04-17T08:15:27.029Z</time>
</trkpt>
<trkpt lat="31.7937800" lon="35.0883200">
<ele>526.350037</ele>
<time>2021-04-17T08:15:27.029Z</time>
</trkpt>
<trkpt lat="31.7938400" lon="35.0882800">
<ele>525.889954</ele>
<time>2021-04-17T08:15:27.029Z</time>
</trkpt>
<trkpt lat="31.7939200" lon="35.0880900">
<ele>523.579956</ele>
<time>2021-04-17T08:15:27.029Z</time>
</trkpt>
<trkpt lat="31.7940900" lon="35.0871400">
<ele>520.429993</ele>
<time>2021-04-17T08:15:27.029Z</time>
</trkpt>
<trkpt lat="31.7942200" lon="35.0866900">
<ele>514.209961</ele>
<time>2021-04-17T08:15:27.029Z</time>
</trkpt>
<trkpt lat="31.7943300" lon="35.0863700">
<ele>509.940002</ele>
<time>2021-04-17T08:15:27.029Z</time>
</trkpt>
<trkpt lat="31.7944100" lon="35.0862300">
<ele>508.800018</ele>
<time>2021-04-17T08:15:27.029Z</time>
</trkpt>
<trkpt lat="31.7946000" lon="35.0859900">
<ele>509.559998</ele>
<time>2021-04-17T08:15:27.029Z</time>
</trkpt>
<trkpt lat="31.7946400" lon="35.0860500">
<ele>509.700012</ele>
<time>2021-04-17T08:15:27.029Z</time>
</trkpt>
<trkpt lat="31.7947000" lon="35.0860800">
<ele>509.919983</ele>
<time>2021-04-17T08:15:27.029Z</time>
</trkpt>
<trkpt lat="31.7947900" lon="35.0860700">
<ele>511.150024</ele>
<time>2021-04-17T08:15:27.029Z</time>
</trkpt>
<trkpt lat="31.7948600" lon="35.0860700">
<ele>512.330017</ele>
<time>2021-04-17T08:15:27.029Z</time>
</trkpt>
<trkpt lat="31.7949100" lon="35.0858800">
<ele>512.260010</ele>
<time>2021-04-17T08:15:27.030Z</time>
</trkpt>
<trkpt lat="31.7950900" lon="35.0854100">
<ele>509.089996</ele>
<time>2021-04-17T08:15:27.030Z</time>
</trkpt>
<trkpt lat="31.7951300" lon="35.0852600">
<ele>507.959991</ele>
<time>2021-04-17T08:15:27.030Z</time>
</trkpt>
<trkpt lat="31.7952000" lon="35.0851000">
<ele>508.100006</ele>
<time>2021-04-17T08:15:27.030Z</time>
</trkpt>
<trkpt lat="31.7952800" lon="35.0849600">
<ele>508.760010</ele>
<time>2021-04-17T08:15:27.030Z</time>
</trkpt>
<trkpt lat="31.7954300" lon="35.0847400">
<ele>510.929993</ele>
<time>2021-04-17T08:15:27.030Z</time>
</trkpt>
<trkpt lat="31.7957800" lon="35.0843600">
<ele>517.469971</ele>
<time>2021-04-17T08:15:27.030Z</time>
</trkpt>
<trkpt lat="31.7958800" lon="35.0842200">
<ele>518.789978</ele>
<time>2021-04-17T08:15:27.030Z</time>
</trkpt>
<trkpt lat="31.7959700" lon="35.0840500">
<ele>519.679993</ele>
<time>2021-04-17T08:15:27.030Z</time>
</trkpt>
<trkpt lat="31.7959900" lon="35.0839300">
<ele>520.169983</ele>
<time>2021-04-17T08:15:27.030Z</time>
</trkpt>
<trkpt lat="31.7960800" lon="35.0832800">
<ele>517.869995</ele>
<time>2021-04-17T08:15:27.030Z</time>
</trkpt>
<trkpt lat="31.7960800" lon="35.0832200">
<ele>517.839966</ele>
<time>2021-04-17T08:15:27.030Z</time>
</trkpt>
<trkpt lat="31.7960800" lon="35.0832200">
<ele>517.839966</ele>
<time>2021-04-17T08:15:27.030Z</time>
</trkpt>
<trkpt lat="31.7960800" lon="35.0832200">
<ele>517.839966</ele>
<time>2021-04-17T08:15:27.030Z</time>
</trkpt>
<trkpt lat="31.7960800" lon="35.0829700">
<ele>518.320007</ele>
<time>2021-04-17T08:15:27.030Z</time>
</trkpt>
<trkpt lat="31.7961000" lon="35.0827300">
<ele>520.530029</ele>
<time>2021-04-17T08:15:27.030Z</time>
</trkpt>
<trkpt lat="31.7960800" lon="35.0824100">
<ele>524.919983</ele>
<time>2021-04-17T08:15:27.030Z</time>
</trkpt>
<trkpt lat="31.7961100" lon="35.0821200">
<ele>528.719971</ele>
<time>2021-04-17T08:15:27.030Z</time>
</trkpt>
<trkpt lat="31.7963300" lon="35.0812000">
<ele>526.760010</ele>
<time>2021-04-17T08:15:27.030Z</time>
</trkpt>
<trkpt lat="31.7963900" lon="35.0810500">
<ele>528.029968</ele>
<time>2021-04-17T08:15:27.030Z</time>
</trkpt>
<trkpt lat="31.7965600" lon="35.0807600">
<ele>532.489990</ele>
<time>2021-04-17T08:15:27.030Z</time>
</trkpt>
<trkpt lat="31.7966000" lon="35.0806300">
<ele>534.760010</ele>
<time>2021-04-17T08:15:27.030Z</time>
</trkpt>
<trkpt lat="31.7965900" lon="35.0804900">
<ele>536.349976</ele>
<time>2021-04-17T08:15:27.030Z</time>
</trkpt>
<trkpt lat="31.7965600" lon="35.0802000">
<ele>540.480042</ele>
<time>2021-04-17T08:15:27.030Z</time>
</trkpt>
<trkpt lat="31.7965900" lon="35.0797000">
<ele>550.419983</ele>
<time>2021-04-17T08:15:27.031Z</time>
</trkpt>
<trkpt lat="31.7965700" lon="35.0795000">
<ele>553.010010</ele>
<time>2021-04-17T08:15:27.031Z</time>
</trkpt>
<trkpt lat="31.7964400" lon="35.0788000">
<ele>554.429993</ele>
<time>2021-04-17T08:15:27.031Z</time>
</trkpt>
<trkpt lat="31.7963500" lon="35.0786500">
<ele>554.659973</ele>
<time>2021-04-17T08:15:27.031Z</time>
</trkpt>
<trkpt lat="31.7962500" lon="35.0785600">
<ele>556.010010</ele>
<time>2021-04-17T08:15:27.031Z</time>
</trkpt>
<trkpt lat="31.7958500" lon="35.0782500">
<ele>562.130005</ele>
<time>2021-04-17T08:15:27.031Z</time>
</trkpt>
<trkpt lat="31.7957500" lon="35.0781900">
<ele>562.760010</ele>
<time>2021-04-17T08:15:27.031Z</time>
</trkpt>
<trkpt lat="31.7956400" lon="35.0781600">
<ele>562.799988</ele>
<time>2021-04-17T08:15:27.031Z</time>
</trkpt>
<trkpt lat="31.7951700" lon="35.0779900">
<ele>561.469971</ele>
<time>2021-04-17T08:15:27.031Z</time>
</trkpt>
<trkpt lat="31.7946100" lon="35.0778800">
<ele>556.200012</ele>
<time>2021-04-17T08:15:27.031Z</time>
</trkpt>
<trkpt lat="31.7945200" lon="35.0778500">
<ele>556.049988</ele>
<time>2021-04-17T08:15:27.031Z</time>
</trkpt>
<trkpt lat="31.7943800" lon="35.0778000">
<ele>555.609985</ele>
<time>2021-04-17T08:15:27.031Z</time>
</trkpt>
<trkpt lat="31.7940700" lon="35.0777300">
<ele>553.049988</ele>
<time>2021-04-17T08:15:27.031Z</time>
</trkpt>
<trkpt lat="31.7938700" lon="35.0776900">
<ele>551.940002</ele>
<time>2021-04-17T08:15:27.031Z</time>
</trkpt>
<trkpt lat="31.7936500" lon="35.0777100">
<ele>548.270020</ele>
<time>2021-04-17T08:15:27.031Z</time>
</trkpt>
<trkpt lat="31.7934200" lon="35.0776900">
<ele>547.739990</ele>
<time>2021-04-17T08:15:27.031Z</time>
</trkpt>
<trkpt lat="31.7932200" lon="35.0775800">
<ele>550.880005</ele>
<time>2021-04-17T08:15:27.031Z</time>
</trkpt>
<trkpt lat="31.7929100" lon="35.0773400">
<ele>554.969971</ele>
<time>2021-04-17T08:15:27.031Z</time>
</trkpt>
<trkpt lat="31.7927900" lon="35.0772100">
<ele>556.010010</ele>
<time>2021-04-17T08:15:27.031Z</time>
</trkpt>
<trkpt lat="31.7927200" lon="35.0770400">
<ele>554.690002</ele>
<time>2021-04-17T08:15:27.031Z</time>
</trkpt>
<trkpt lat="31.7926900" lon="35.0769200">
<ele>553.549988</ele>
<time>2021-04-17T08:15:27.031Z</time>
</trkpt>
<trkpt lat="31.7926700" lon="35.0767700">
<ele>551.640015</ele>
<time>2021-04-17T08:15:27.031Z</time>
</trkpt>
<trkpt lat="31.7926700" lon="35.0765900">
<ele>549.739990</ele>
<time>2021-04-17T08:15:27.031Z</time>
</trkpt>
<trkpt lat="31.7927100" lon="35.0764400">
<ele>548.890015</ele>
<time>2021-04-17T08:15:27.031Z</time>
</trkpt>
<trkpt lat="31.7929600" lon="35.0757300">
<ele>542.979980</ele>
<time>2021-04-17T08:15:27.031Z</time>
</trkpt>
<trkpt lat="31.7931300" lon="35.0753200">
<ele>546.789978</ele>
<time>2021-04-17T08:15:27.031Z</time>
</trkpt>
<trkpt lat="31.7931500" lon="35.0752000">
<ele>548.799988</ele>
<time>2021-04-17T08:15:27.032Z</time>
</trkpt>
<trkpt lat="31.7931300" lon="35.0751100">
<ele>549.700012</ele>
<time>2021-04-17T08:15:27.032Z</time>
</trkpt>
<trkpt lat="31.7930700" lon="35.0749800">
<ele>549.960022</ele>
<time>2021-04-17T08:15:27.032Z</time>
</trkpt>
<trkpt lat="31.7930000" lon="35.0748900">
<ele>549.219971</ele>
<time>2021-04-17T08:15:27.032Z</time>
</trkpt>
<trkpt lat="31.7929100" lon="35.0747700">
<ele>547.859985</ele>
<time>2021-04-17T08:15:27.032Z</time>
</trkpt>
<trkpt lat="31.7929100" lon="35.0747700">
<ele>547.859985</ele>
<time>2021-04-17T08:15:27.032Z</time>
</trkpt>
<trkpt lat="31.7929100" lon="35.0747700">
<ele>547.859985</ele>
<time>2021-04-17T08:15:27.032Z</time>
</trkpt>
<trkpt lat="31.7926500" lon="35.0743400">
<ele>544.950012</ele>
<time>2021-04-17T08:15:27.032Z</time>
</trkpt>
<trkpt lat="31.7923300" lon="35.0738800">
<ele>542.320007</ele>
<time>2021-04-17T08:15:27.032Z</time>
</trkpt>
<trkpt lat="31.7922200" lon="35.0737500">
<ele>540.419983</ele>
<time>2021-04-17T08:15:27.032Z</time>
</trkpt>
<trkpt lat="31.7917500" lon="35.0733200">
<ele>543.239990</ele>
<time>2021-04-17T08:15:27.032Z</time>
</trkpt>
<trkpt lat="31.7915600" lon="35.0731100">
<ele>544.970032</ele>
<time>2021-04-17T08:15:27.032Z</time>
</trkpt>
<trkpt lat="31.7914800" lon="35.0729900">
<ele>545.309998</ele>
<time>2021-04-17T08:15:27.032Z</time>
</trkpt>
<trkpt lat="31.7910700" lon="35.0722800">
<ele>545.900024</ele>
<time>2021-04-17T08:15:27.032Z</time>
</trkpt>
<trkpt lat="31.7905800" lon="35.0715100">
<ele>549.279968</ele>
<time>2021-04-17T08:15:27.032Z</time>
</trkpt>
<trkpt lat="31.7905000" lon="35.0713300">
<ele>547.799988</ele>
<time>2021-04-17T08:15:27.032Z</time>
</trkpt>
<trkpt lat="31.7904800" lon="35.0712200">
<ele>547.010010</ele>
<time>2021-04-17T08:15:27.032Z</time>
</trkpt>
<trkpt lat="31.7904800" lon="35.0710200">
<ele>547.339966</ele>
<time>2021-04-17T08:15:27.032Z</time>
</trkpt>
<trkpt lat="31.7905500" lon="35.0704600">
<ele>551.179993</ele>
<time>2021-04-17T08:15:27.032Z</time>
</trkpt>
<trkpt lat="31.7905400" lon="35.0702400">
<ele>551.890015</ele>
<time>2021-04-17T08:15:27.032Z</time>
</trkpt>
<trkpt lat="31.7904900" lon="35.0699700">
<ele>553.049988</ele>
<time>2021-04-17T08:15:27.032Z</time>
</trkpt>
<trkpt lat="31.7904000" lon="35.0697200">
<ele>554.010010</ele>
<time>2021-04-17T08:15:27.032Z</time>
</trkpt>
<trkpt lat="31.7903300" lon="35.0695700">
<ele>553.950012</ele>
<time>2021-04-17T08:15:27.032Z</time>
</trkpt>
<trkpt lat="31.7901500" lon="35.0693400">
<ele>553.250000</ele>
<time>2021-04-17T08:15:27.032Z</time>
</trkpt>
<trkpt lat="31.7895500" lon="35.0687100">
<ele>563.580017</ele>
<time>2021-04-17T08:15:27.032Z</time>
</trkpt>
<trkpt lat="31.7892300" lon="35.0683300">
<ele>560.369995</ele>
<time>2021-04-17T08:15:27.032Z</time>
</trkpt>
<trkpt lat="31.7891400" lon="35.0681300">
<ele>558.369995</ele>
<time>2021-04-17T08:15:27.032Z</time>
</trkpt>
<trkpt lat="31.7891100" lon="35.0679900">
<ele>557.489990</ele>
<time>2021-04-17T08:15:27.032Z</time>
</trkpt>
<trkpt lat="31.7891200" lon="35.0678800">
<ele>557.250000</ele>
<time>2021-04-17T08:15:27.033Z</time>
</trkpt>
<trkpt lat="31.7891800" lon="35.0676500">
<ele>557.320007</ele>
<time>2021-04-17T08:15:27.033Z</time>
</trkpt>
<trkpt lat="31.7895900" lon="35.0668800">
<ele>561.190002</ele>
<time>2021-04-17T08:15:27.033Z</time>
</trkpt>
<trkpt lat="31.7898700" lon="35.0662800">
<ele>572.160034</ele>
<time>2021-04-17T08:15:27.033Z</time>
</trkpt>
<trkpt lat="31.7899500" lon="35.0660500">
<ele>575.760010</ele>
<time>2021-04-17T08:15:27.033Z</time>
</trkpt>
<trkpt lat="31.7899900" lon="35.0657700">
<ele>574.179993</ele>
<time>2021-04-17T08:15:27.033Z</time>
</trkpt>
<trkpt lat="31.7900300" lon="35.0654100">
<ele>575.320007</ele>
<time>2021-04-17T08:15:27.033Z</time>
</trkpt>
<trkpt lat="31.7900100" lon="35.0643500">
<ele>575.640015</ele>
<time>2021-04-17T08:15:27.033Z</time>
</trkpt>
<trkpt lat="31.7900700" lon="35.0639200">
<ele>574.720032</ele>
<time>2021-04-17T08:15:27.033Z</time>
</trkpt>
<trkpt lat="31.7902100" lon="35.0633900">
<ele>579.959961</ele>
<time>2021-04-17T08:15:27.033Z</time>
</trkpt>
<trkpt lat="31.7902400" lon="35.0631200">
<ele>582.590027</ele>
<time>2021-04-17T08:15:27.033Z</time>
</trkpt>
<trkpt lat="31.7902400" lon="35.0630100">
<ele>583.590027</ele>
<time>2021-04-17T08:15:27.033Z</time>
</trkpt>
<trkpt lat="31.7901700" lon="35.0626700">
<ele>586.769958</ele>
<time>2021-04-17T08:15:27.033Z</time>
</trkpt>
<trkpt lat="31.7900900" lon="35.0623700">
<ele>586.859985</ele>
<time>2021-04-17T08:15:27.033Z</time>
</trkpt>
<trkpt lat="31.7900900" lon="35.0623700">
<ele>586.859985</ele>
<time>2021-04-17T08:15:27.033Z</time>
</trkpt>
<trkpt lat="31.7900900" lon="35.0623700">
<ele>586.859985</ele>
<time>2021-04-17T08:15:27.033Z</time>
</trkpt>
<trkpt lat="31.7899700" lon="35.0619500">
<ele>583.899963</ele>
<time>2021-04-17T08:15:27.033Z</time>
</trkpt>
<trkpt lat="31.7899100" lon="35.0614700">
<ele>586.580017</ele>
<time>2021-04-17T08:15:27.033Z</time>
</trkpt>
<trkpt lat="31.7898800" lon="35.0610100">
<ele>588.200012</ele>
<time>2021-04-17T08:15:27.033Z</time>
</trkpt>
<trkpt lat="31.7898100" lon="35.0606400">
<ele>587.019958</ele>
<time>2021-04-17T08:15:27.033Z</time>
</trkpt>
<trkpt lat="31.7897600" lon="35.0604300">
<ele>586.830017</ele>
<time>2021-04-17T08:15:27.033Z</time>
</trkpt>
<trkpt lat="31.7896700" lon="35.0601700">
<ele>588.859985</ele>
<time>2021-04-17T08:15:27.033Z</time>
</trkpt>
<trkpt lat="31.7895200" lon="35.0599100">
<ele>590.640015</ele>
<time>2021-04-17T08:15:27.033Z</time>
</trkpt>
<trkpt lat="31.7893200" lon="35.0596900">
<ele>589.630005</ele>
<time>2021-04-17T08:15:27.033Z</time>
</trkpt>
<trkpt lat="31.7888500" lon="35.0592200">
<ele>588.770020</ele>
<time>2021-04-17T08:15:27.034Z</time>
</trkpt>
<trkpt lat="31.7887700" lon="35.0591200">
<ele>586.700012</ele>
<time>2021-04-17T08:15:27.034Z</time>
</trkpt>
<trkpt lat="31.7886100" lon="35.0588000">
<ele>582.260010</ele>
<time>2021-04-17T08:15:27.034Z</time>
</trkpt>
<trkpt lat="31.7883300" lon="35.0580500">
<ele>582.690002</ele>
<time>2021-04-17T08:15:27.034Z</time>
</trkpt>
<trkpt lat="31.7882900" lon="35.0578200">
<ele>578.410034</ele>
<time>2021-04-17T08:15:27.034Z</time>
</trkpt>
<trkpt lat="31.7882100" lon="35.0570600">
<ele>573.190002</ele>
<time>2021-04-17T08:15:27.034Z</time>
</trkpt>
<trkpt lat="31.7881700" lon="35.0568300">
<ele>571.770020</ele>
<time>2021-04-17T08:15:27.034Z</time>
</trkpt>
<trkpt lat="31.7881600" lon="35.0566600">
<ele>570.579956</ele>
<time>2021-04-17T08:15:27.034Z</time>
</trkpt>
<trkpt lat="31.7881700" lon="35.0565500">
<ele>570.070007</ele>
<time>2021-04-17T08:15:27.034Z</time>
</trkpt>
<trkpt lat="31.7882000" lon="35.0564100">
<ele>569.950012</ele>
<time>2021-04-17T08:15:27.034Z</time>
</trkpt>
<trkpt lat="31.7883500" lon="35.0559400">
<ele>564.609985</ele>
<time>2021-04-17T08:15:27.034Z</time>
</trkpt>
<trkpt lat="31.7884100" lon="35.0555300">
<ele>559.149963</ele>
<time>2021-04-17T08:15:27.034Z</time>
</trkpt>
<trkpt lat="31.7884400" lon="35.0554500">
<ele>558.869995</ele>
<time>2021-04-17T08:15:27.034Z</time>
</trkpt>
<trkpt lat="31.7885700" lon="35.0553000">
<ele>558.849976</ele>
<time>2021-04-17T08:15:27.034Z</time>
</trkpt>
<trkpt lat="31.7887000" lon="35.0552400">
<ele>559.100037</ele>
<time>2021-04-17T08:15:27.034Z</time>
</trkpt>
<trkpt lat="31.7888300" lon="35.0552000">
<ele>559.459961</ele>
<time>2021-04-17T08:15:27.034Z</time>
</trkpt>
<trkpt lat="31.7889600" lon="35.0552000">
<ele>560.320007</ele>
<time>2021-04-17T08:15:27.034Z</time>
</trkpt>
<trkpt lat="31.7892100" lon="35.0552200">
<ele>562.530029</ele>
<time>2021-04-17T08:15:27.034Z</time>
</trkpt>
<trkpt lat="31.7896000" lon="35.0553200">
<ele>571.510010</ele>
<time>2021-04-17T08:15:27.034Z</time>
</trkpt>
<trkpt lat="31.7900900" lon="35.0554100">
<ele>579.289978</ele>
<time>2021-04-17T08:15:27.034Z</time>
</trkpt>
<trkpt lat="31.7902600" lon="35.0554200">
<ele>579.080017</ele>
<time>2021-04-17T08:15:27.034Z</time>
</trkpt>
<trkpt lat="31.7903100" lon="35.0553700">
<ele>578.989990</ele>
<time>2021-04-17T08:15:27.034Z</time>
</trkpt>
<trkpt lat="31.7903200" lon="35.0552800">
<ele>577.940002</ele>
<time>2021-04-17T08:15:27.034Z</time>
</trkpt>
<trkpt lat="31.7902900" lon="35.0552100">
<ele>577.320007</ele>
<time>2021-04-17T08:15:27.034Z</time>
</trkpt>
<trkpt lat="31.7900000" lon="35.0548300">
<ele>577.840027</ele>
<time>2021-04-17T08:15:27.034Z</time>
</trkpt>
<trkpt lat="31.7896300" lon="35.0542600">
<ele>569.010010</ele>
<time>2021-04-17T08:15:27.034Z</time>
</trkpt>
<trkpt lat="31.7893000" lon="35.0536500">
<ele>560.510010</ele>
<time>2021-04-17T08:15:27.034Z</time>
</trkpt>
<trkpt lat="31.7891900" lon="35.0533400">
<ele>554.739990</ele>
<time>2021-04-17T08:15:27.035Z</time>
</trkpt>
<trkpt lat="31.7891800" lon="35.0530800">
<ele>552.559998</ele>
<time>2021-04-17T08:15:27.035Z</time>
</trkpt>
<trkpt lat="31.7892000" lon="35.0530000">
<ele>552.820007</ele>
<time>2021-04-17T08:15:27.035Z</time>
</trkpt>
<trkpt lat="31.7892900" lon="35.0528200">
<ele>553.289978</ele>
<time>2021-04-17T08:15:27.035Z</time>
</trkpt>
<trkpt lat="31.7893600" lon="35.0527300">
<ele>552.479980</ele>
<time>2021-04-17T08:15:27.035Z</time>
</trkpt>
<trkpt lat="31.7894900" lon="35.0526400">
<ele>551.270020</ele>
<time>2021-04-17T08:15:27.035Z</time>
</trkpt>
<trkpt lat="31.7896800" lon="35.0525400">
<ele>548.149963</ele>
<time>2021-04-17T08:15:27.035Z</time>
</trkpt>
<trkpt lat="31.7897500" lon="35.0525300">
<ele>547.540039</ele>
<time>2021-04-17T08:15:27.035Z</time>
</trkpt>
<trkpt lat="31.7901200" lon="35.0523700">
<ele>544.059998</ele>
<time>2021-04-17T08:15:27.035Z</time>
</trkpt>
<trkpt lat="31.7901900" lon="35.0523600">
<ele>544.339966</ele>
<time>2021-04-17T08:15:27.035Z</time>
</trkpt>
<trkpt lat="31.7903900" lon="35.0522700">
<ele>546.789978</ele>
<time>2021-04-17T08:15:27.035Z</time>
</trkpt>
<trkpt lat="31.7905500" lon="35.0521900">
<ele>552.280029</ele>
<time>2021-04-17T08:15:27.035Z</time>
</trkpt>
<trkpt lat="31.7906500" lon="35.0520700">
<ele>557.000000</ele>
<time>2021-04-17T08:15:27.035Z</time>
</trkpt>
<trkpt lat="31.7905900" lon="35.0519100">
<ele>557.220032</ele>
<time>2021-04-17T08:15:27.035Z</time>
</trkpt>
<trkpt lat="31.7904500" lon="35.0516700">
<ele>559.179993</ele>
<time>2021-04-17T08:15:27.035Z</time>
</trkpt>
<trkpt lat="31.7902100" lon="35.0511400">
<ele>562.760010</ele>
<time>2021-04-17T08:15:27.035Z</time>
</trkpt>
<trkpt lat="31.7901500" lon="35.0510400">
<ele>562.969971</ele>
<time>2021-04-17T08:15:27.035Z</time>
</trkpt>
<trkpt lat="31.7900000" lon="35.0509300">
<ele>561.559998</ele>
<time>2021-04-17T08:15:27.035Z</time>
</trkpt>
<trkpt lat="31.7895100" lon="35.0507700">
<ele>560.059998</ele>
<time>2021-04-17T08:15:27.035Z</time>
</trkpt>
<trkpt lat="31.7893100" lon="35.0506600">
<ele>557.600037</ele>
<time>2021-04-17T08:15:27.035Z</time>
</trkpt>
<trkpt lat="31.7891000" lon="35.0504300">
<ele>552.320007</ele>
<time>2021-04-17T08:15:27.035Z</time>
</trkpt>
<trkpt lat="31.7890300" lon="35.0502800">
<ele>548.599976</ele>
<time>2021-04-17T08:15:27.035Z</time>
</trkpt>
<trkpt lat="31.7889400" lon="35.0499200">
<ele>545.130005</ele>
<time>2021-04-17T08:15:27.035Z</time>
</trkpt>
<trkpt lat="31.7889600" lon="35.0496200">
<ele>544.700012</ele>
<time>2021-04-17T08:15:27.035Z</time>
</trkpt>
<trkpt lat="31.7890700" lon="35.0492200">
<ele>544.489990</ele>
<time>2021-04-17T08:15:27.035Z</time>
</trkpt>
<trkpt lat="31.7893700" lon="35.0484300">
<ele>544.250000</ele>
<time>2021-04-17T08:15:27.035Z</time>
</trkpt>
<trkpt lat="31.7893700" lon="35.0484300">
<ele>544.250000</ele>
<time>2021-04-17T08:15:27.035Z</time>
</trkpt>
<trkpt lat="31.7893800" lon="35.0484300">
<ele>544.450012</ele>
<time>2021-04-17T08:15:27.035Z</time>
</trkpt>
<trkpt lat="31.7894800" lon="35.0481700">
<ele>547.429993</ele>
<time>2021-04-17T08:15:27.035Z</time>
</trkpt>
<trkpt lat="31.7895200" lon="35.0480100">
<ele>549.809998</ele>
<time>2021-04-17T08:15:27.035Z</time>
</trkpt>
<trkpt lat="31.7895200" lon="35.0478000">
<ele>551.460022</ele>
<time>2021-04-17T08:15:27.036Z</time>
</trkpt>
<trkpt lat="31.7894500" lon="35.0476000">
<ele>553.289978</ele>
<time>2021-04-17T08:15:27.036Z</time>
</trkpt>
<trkpt lat="31.7893200" lon="35.0474000">
<ele>555.420044</ele>
<time>2021-04-17T08:15:27.036Z</time>
</trkpt>
<trkpt lat="31.7889200" lon="35.0469700">
<ele>564.209961</ele>
<time>2021-04-17T08:15:27.036Z</time>
</trkpt>
<trkpt lat="31.7884900" lon="35.0465700">
<ele>553.750000</ele>
<time>2021-04-17T08:15:27.036Z</time>
</trkpt>
<trkpt lat="31.7884500" lon="35.0465100">
<ele>551.839966</ele>
<time>2021-04-17T08:15:27.036Z</time>
</trkpt>
<trkpt lat="31.7884200" lon="35.0464300">
<ele>550.150024</ele>
<time>2021-04-17T08:15:27.036Z</time>
</trkpt>
<trkpt lat="31.7884200" lon="35.0463500">
<ele>549.479980</ele>
<time>2021-04-17T08:15:27.036Z</time>
</trkpt>
<trkpt lat="31.7884400" lon="35.0462200">
<ele>549.010010</ele>
<time>2021-04-17T08:15:27.036Z</time>
</trkpt>
<trkpt lat="31.7885200" lon="35.0459800">
<ele>545.960022</ele>
<time>2021-04-17T08:15:27.036Z</time>
</trkpt>
<trkpt lat="31.7885900" lon="35.0458300">
<ele>541.700012</ele>
<time>2021-04-17T08:15:27.036Z</time>
</trkpt>
<trkpt lat="31.7886800" lon="35.0457000">
<ele>539.859985</ele>
<time>2021-04-17T08:15:27.036Z</time>
</trkpt>
<trkpt lat="31.7890600" lon="35.0452400">
<ele>540.989990</ele>
<time>2021-04-17T08:15:27.036Z</time>
</trkpt>
<trkpt lat="31.7891700" lon="35.0450700">
<ele>542.640015</ele>
<time>2021-04-17T08:15:27.036Z</time>
</trkpt>
<trkpt lat="31.7892400" lon="35.0449300">
<ele>544.649963</ele>
<time>2021-04-17T08:15:27.036Z</time>
</trkpt>
<trkpt lat="31.7893000" lon="35.0447300">
<ele>546.309998</ele>
<time>2021-04-17T08:15:27.036Z</time>
</trkpt>
<trkpt lat="31.7893800" lon="35.0443600">
<ele>546.979980</ele>
<time>2021-04-17T08:15:27.036Z</time>
</trkpt>
<trkpt lat="31.7895000" lon="35.0439500">
<ele>547.840027</ele>
<time>2021-04-17T08:15:27.036Z</time>
</trkpt>
<trkpt lat="31.7896400" lon="35.0435600">
<ele>549.980042</ele>
<time>2021-04-17T08:15:27.036Z</time>
</trkpt>
<trkpt lat="31.7895100" lon="35.0432600">
<ele>548.270020</ele>
<time>2021-04-17T08:15:27.036Z</time>
</trkpt>
<trkpt lat="31.7893800" lon="35.0431200">
<ele>546.549988</ele>
<time>2021-04-17T08:15:27.036Z</time>
</trkpt>
<trkpt lat="31.7889900" lon="35.0429000">
<ele>544.919983</ele>
<time>2021-04-17T08:15:27.036Z</time>
</trkpt>
<trkpt lat="31.7886500" lon="35.0427600">
<ele>545.739990</ele>
<time>2021-04-17T08:15:27.036Z</time>
</trkpt>
<trkpt lat="31.7884900" lon="35.0426700">
<ele>545.559998</ele>
<time>2021-04-17T08:15:27.036Z</time>
</trkpt>
<trkpt lat="31.7881300" lon="35.0423900">
<ele>541.970032</ele>
<time>2021-04-17T08:15:27.036Z</time>
</trkpt>
<trkpt lat="31.7880500" lon="35.0423000">
<ele>541.330017</ele>
<time>2021-04-17T08:15:27.036Z</time>
</trkpt>
<trkpt lat="31.7879600" lon="35.0421700">
<ele>540.869995</ele>
<time>2021-04-17T08:15:27.036Z</time>
</trkpt>
<trkpt lat="31.7878800" lon="35.0420200">
<ele>540.010010</ele>
<time>2021-04-17T08:15:27.036Z</time>
</trkpt>
<trkpt lat="31.7878100" lon="35.0417800">
<ele>538.830017</ele>
<time>2021-04-17T08:15:27.036Z</time>
</trkpt>
<trkpt lat="31.7877800" lon="35.0413600">
<ele>537.149963</ele>
<time>2021-04-17T08:15:27.036Z</time>
</trkpt>
<trkpt lat="31.7877800" lon="35.0413600">
<ele>537.149963</ele>
<time>2021-04-17T08:15:27.036Z</time>
</trkpt>
<trkpt lat="31.7877800" lon="35.0413600">
<ele>537.149963</ele>
<time>2021-04-17T08:15:27.037Z</time>
</trkpt>
<trkpt lat="31.7877600" lon="35.0410600">
<ele>537.659973</ele>
<time>2021-04-17T08:15:27.037Z</time>
</trkpt>
<trkpt lat="31.7875800" lon="35.0399300">
<ele>532.429993</ele>
<time>2021-04-17T08:15:27.037Z</time>
</trkpt>
<trkpt lat="31.7875100" lon="35.0396900">
<ele>532.109985</ele>
<time>2021-04-17T08:15:27.037Z</time>
</trkpt>
<trkpt lat="31.7874000" lon="35.0393800">
<ele>532.109985</ele>
<time>2021-04-17T08:15:27.037Z</time>
</trkpt>
<trkpt lat="31.7872800" lon="35.0391600">
<ele>533.599976</ele>
<time>2021-04-17T08:15:27.037Z</time>
</trkpt>
<trkpt lat="31.7867300" lon="35.0384900">
<ele>542.359985</ele>
<time>2021-04-17T08:15:27.037Z</time>
</trkpt>
<trkpt lat="31.7865600" lon="35.0383300">
<ele>548.200012</ele>
<time>2021-04-17T08:15:27.037Z</time>
</trkpt>
<trkpt lat="31.7860500" lon="35.0380000">
<ele>551.900024</ele>
<time>2021-04-17T08:15:27.037Z</time>
</trkpt>
<trkpt lat="31.7854400" lon="35.0376400">
<ele>550.889954</ele>
<time>2021-04-17T08:15:27.037Z</time>
</trkpt>
<trkpt lat="31.7851000" lon="35.0374900">
<ele>543.470032</ele>
<time>2021-04-17T08:15:27.037Z</time>
</trkpt>
<trkpt lat="31.7848100" lon="35.0374300">
<ele>538.340027</ele>
<time>2021-04-17T08:15:27.037Z</time>
</trkpt>
<trkpt lat="31.7846000" lon="35.0374100">
<ele>534.900024</ele>
<time>2021-04-17T08:15:27.037Z</time>
</trkpt>
<trkpt lat="31.7838400" lon="35.0374000">
<ele>518.760010</ele>
<time>2021-04-17T08:15:27.037Z</time>
</trkpt>
<trkpt lat="31.7837300" lon="35.0373800">
<ele>518.369995</ele>
<time>2021-04-17T08:15:27.037Z</time>
</trkpt>
<trkpt lat="31.7836300" lon="35.0373300">
<ele>519.020020</ele>
<time>2021-04-17T08:15:27.037Z</time>
</trkpt>
<trkpt lat="31.7834400" lon="35.0372200">
<ele>526.359985</ele>
<time>2021-04-17T08:15:27.037Z</time>
</trkpt>
<trkpt lat="31.7829100" lon="35.0367700">
<ele>523.340027</ele>
<time>2021-04-17T08:15:27.037Z</time>
</trkpt>
<trkpt lat="31.7828600" lon="35.0366600">
<ele>519.580017</ele>
<time>2021-04-17T08:15:27.037Z</time>
</trkpt>
<trkpt lat="31.7828400" lon="35.0365800">
<ele>517.839966</ele>
<time>2021-04-17T08:15:27.037Z</time>
</trkpt>
<trkpt lat="31.7828800" lon="35.0364000">
<ele>516.830017</ele>
<time>2021-04-17T08:15:27.037Z</time>
</trkpt>
<trkpt lat="31.7829200" lon="35.0361400">
<ele>514.970032</ele>
<time>2021-04-17T08:15:27.037Z</time>
</trkpt>
<trkpt lat="31.7830500" lon="35.0357300">
<ele>513.669983</ele>
<time>2021-04-17T08:15:27.037Z</time>
</trkpt>
<trkpt lat="31.7831400" lon="35.0353100">
<ele>516.890015</ele>
<time>2021-04-17T08:15:27.037Z</time>
</trkpt>
<trkpt lat="31.7831500" lon="35.0352000">
<ele>518.399963</ele>
<time>2021-04-17T08:15:27.037Z</time>
</trkpt>
<trkpt lat="31.7831300" lon="35.0350400">
<ele>518.720032</ele>
<time>2021-04-17T08:15:27.037Z</time>
</trkpt>
<trkpt lat="31.7830500" lon="35.0347700">
<ele>516.140015</ele>
<time>2021-04-17T08:15:27.037Z</time>
</trkpt>
<trkpt lat="31.7828900" lon="35.0343600">
<ele>516.929993</ele>
<time>2021-04-17T08:15:27.037Z</time>
</trkpt>
<trkpt lat="31.7826700" lon="35.0336200">
<ele>513.500000</ele>
<time>2021-04-17T08:15:27.037Z</time>
</trkpt>
<trkpt lat="31.7826100" lon="35.0334900">
<ele>512.809998</ele>
<time>2021-04-17T08:15:27.037Z</time>
</trkpt>
<trkpt lat="31.7825300" lon="35.0333600">
<ele>510.420013</ele>
<time>2021-04-17T08:15:27.038Z</time>
</trkpt>
<trkpt lat="31.7822900" lon="35.0331200">
<ele>511.790009</ele>
<time>2021-04-17T08:15:27.038Z</time>
</trkpt>
<trkpt lat="31.7816300" lon="35.0326000">
<ele>505.230011</ele>
<time>2021-04-17T08:15:27.038Z</time>
</trkpt>
<trkpt lat="31.7815500" lon="35.0325200">
<ele>503.169983</ele>
<time>2021-04-17T08:15:27.038Z</time>
</trkpt>
<trkpt lat="31.7815000" lon="35.0324500">
<ele>501.999969</ele>
<time>2021-04-17T08:15:27.038Z</time>
</trkpt>
<trkpt lat="31.7814600" lon="35.0323500">
<ele>501.650024</ele>
<time>2021-04-17T08:15:27.038Z</time>
</trkpt>
<trkpt lat="31.7814400" lon="35.0322000">
<ele>502.369995</ele>
<time>2021-04-17T08:15:27.038Z</time>
</trkpt>
<trkpt lat="31.7814000" lon="35.0316300">
<ele>500.739990</ele>
<time>2021-04-17T08:15:27.038Z</time>
</trkpt>
<trkpt lat="31.7813600" lon="35.0312800">
<ele>496.160004</ele>
<time>2021-04-17T08:15:27.038Z</time>
</trkpt>
<trkpt lat="31.7813700" lon="35.0311900">
<ele>495.400024</ele>
<time>2021-04-17T08:15:27.038Z</time>
</trkpt>
<trkpt lat="31.7814000" lon="35.0311100">
<ele>494.809998</ele>
<time>2021-04-17T08:15:27.038Z</time>
</trkpt>
<trkpt lat="31.7814600" lon="35.0310400">
<ele>492.059998</ele>
<time>2021-04-17T08:15:27.038Z</time>
</trkpt>
<trkpt lat="31.7815100" lon="35.0310200">
<ele>490.919983</ele>
<time>2021-04-17T08:15:27.038Z</time>
</trkpt>
<trkpt lat="31.7815800" lon="35.0310200">
<ele>490.080017</ele>
<time>2021-04-17T08:15:27.038Z</time>
</trkpt>
<trkpt lat="31.7818600" lon="35.0310600">
<ele>488.630005</ele>
<time>2021-04-17T08:15:27.038Z</time>
</trkpt>
<trkpt lat="31.7821100" lon="35.0310700">
<ele>487.839996</ele>
<time>2021-04-17T08:15:27.038Z</time>
</trkpt>
<trkpt lat="31.7823400" lon="35.0310400">
<ele>488.709991</ele>
<time>2021-04-17T08:15:27.038Z</time>
</trkpt>
<trkpt lat="31.7825400" lon="35.0309600">
<ele>490.160004</ele>
<time>2021-04-17T08:15:27.038Z</time>
</trkpt>
<trkpt lat="31.7826700" lon="35.0308500">
<ele>491.510010</ele>
<time>2021-04-17T08:15:27.038Z</time>
</trkpt>
<trkpt lat="31.7827200" lon="35.0307800">
<ele>492.419983</ele>
<time>2021-04-17T08:15:27.038Z</time>
</trkpt>
<trkpt lat="31.7827900" lon="35.0306300">
<ele>494.599976</ele>
<time>2021-04-17T08:15:27.038Z</time>
</trkpt>
<trkpt lat="31.7828200" lon="35.0305100">
<ele>496.090027</ele>
<time>2021-04-17T08:15:27.038Z</time>
</trkpt>
<trkpt lat="31.7828500" lon="35.0302300">
<ele>497.899994</ele>
<time>2021-04-17T08:15:27.038Z</time>
</trkpt>
<trkpt lat="31.7828200" lon="35.0298800">
<ele>497.880005</ele>
<time>2021-04-17T08:15:27.038Z</time>
</trkpt>
<trkpt lat="31.7826900" lon="35.0292300">
<ele>491.190002</ele>
<time>2021-04-17T08:15:27.038Z</time>
</trkpt>
<trkpt lat="31.7826700" lon="35.0290500">
<ele>486.899994</ele>
<time>2021-04-17T08:15:27.038Z</time>
</trkpt>
<trkpt lat="31.7826700" lon="35.0289700">
<ele>484.879974</ele>
<time>2021-04-17T08:15:27.038Z</time>
</trkpt>
<trkpt lat="31.7826900" lon="35.0288900">
<ele>483.079987</ele>
<time>2021-04-17T08:15:27.038Z</time>
</trkpt>
<trkpt lat="31.7827500" lon="35.0287800">
<ele>481.740021</ele>
<time>2021-04-17T08:15:27.038Z</time>
</trkpt>
<trkpt lat="31.7829100" lon="35.0286000">
<ele>481.299988</ele>
<time>2021-04-17T08:15:27.038Z</time>
</trkpt>
<trkpt lat="31.7829100" lon="35.0286000">
<ele>481.299988</ele>
<time>2021-04-17T08:15:27.038Z</time>
</trkpt>
<trkpt lat="31.7829100" lon="35.0286000">
<ele>481.299988</ele>
<time>2021-04-17T08:15:27.038Z</time>
</trkpt>
<trkpt lat="31.7829800" lon="35.0285200">
<ele>481.830017</ele>
<time>2021-04-17T08:15:27.039Z</time>
</trkpt>
<trkpt lat="31.7831900" lon="35.0282700">
<ele>481.260010</ele>
<time>2021-04-17T08:15:27.039Z</time>
</trkpt>
<trkpt lat="31.7832400" lon="35.0282300">
<ele>481.289978</ele>
<time>2021-04-17T08:15:27.039Z</time>
</trkpt>
<trkpt lat="31.7833300" lon="35.0281900">
<ele>481.470001</ele>
<time>2021-04-17T08:15:27.039Z</time>
</trkpt>
<trkpt lat="31.7833900" lon="35.0282000">
<ele>481.320007</ele>
<time>2021-04-17T08:15:27.039Z</time>
</trkpt>
<trkpt lat="31.7835500" lon="35.0282800">
<ele>481.029999</ele>
<time>2021-04-17T08:15:27.039Z</time>
</trkpt>
<trkpt lat="31.7838000" lon="35.0284600">
<ele>481.889984</ele>
<time>2021-04-17T08:15:27.039Z</time>
</trkpt>
<trkpt lat="31.7838500" lon="35.0285000">
<ele>481.850006</ele>
<time>2021-04-17T08:15:27.039Z</time>
</trkpt>
<trkpt lat="31.7841400" lon="35.0285500">
<ele>475.450012</ele>
<time>2021-04-17T08:15:27.039Z</time>
</trkpt>
<trkpt lat="31.7842300" lon="35.0286000">
<ele>474.479980</ele>
<time>2021-04-17T08:15:27.039Z</time>
</trkpt>
<trkpt lat="31.7843300" lon="35.0286800">
<ele>474.819977</ele>
<time>2021-04-17T08:15:27.039Z</time>
</trkpt>
<trkpt lat="31.7846400" lon="35.0290500">
<ele>473.619995</ele>
<time>2021-04-17T08:15:27.039Z</time>
</trkpt>
<trkpt lat="31.7847900" lon="35.0291300">
<ele>470.350006</ele>
<time>2021-04-17T08:15:27.039Z</time>
</trkpt>
<trkpt lat="31.7848600" lon="35.0291500">
<ele>469.309998</ele>
<time>2021-04-17T08:15:27.039Z</time>
</trkpt>
<trkpt lat="31.7850100" lon="35.0291300">
<ele>466.500000</ele>
<time>2021-04-17T08:15:27.039Z</time>
</trkpt>
<trkpt lat="31.7851700" lon="35.0290600">
<ele>465.839996</ele>
<time>2021-04-17T08:15:27.039Z</time>
</trkpt>
<trkpt lat="31.7856200" lon="35.0288100">
<ele>458.039978</ele>
<time>2021-04-17T08:15:27.039Z</time>
</trkpt>
<trkpt lat="31.7857600" lon="35.0287700">
<ele>459.789978</ele>
<time>2021-04-17T08:15:27.039Z</time>
</trkpt>
<trkpt lat="31.7864000" lon="35.0287600">
<ele>471.940002</ele>
<time>2021-04-17T08:15:27.039Z</time>
</trkpt>
<trkpt lat="31.7865100" lon="35.0287800">
<ele>469.779999</ele>
<time>2021-04-17T08:15:27.039Z</time>
</trkpt>
<trkpt lat="31.7866500" lon="35.0288300">
<ele>468.229980</ele>
<time>2021-04-17T08:15:27.039Z</time>
</trkpt>
<trkpt lat="31.7874000" lon="35.0293500">
<ele>478.940002</ele>
<time>2021-04-17T08:15:27.039Z</time>
</trkpt>
<trkpt lat="31.7880100" lon="35.0297000">
<ele>471.070007</ele>
<time>2021-04-17T08:15:27.039Z</time>
</trkpt>
<trkpt lat="31.7883900" lon="35.0300300">
<ele>455.989990</ele>
<time>2021-04-17T08:15:27.039Z</time>
</trkpt>
<trkpt lat="31.7885800" lon="35.0302500">
<ele>450.379974</ele>
<time>2021-04-17T08:15:27.039Z</time>
</trkpt>
<trkpt lat="31.7887300" lon="35.0304800">
<ele>447.700012</ele>
<time>2021-04-17T08:15:27.039Z</time>
</trkpt>
<trkpt lat="31.7887800" lon="35.0305400">
<ele>446.940002</ele>
<time>2021-04-17T08:15:27.039Z</time>
</trkpt>
<trkpt lat="31.7888300" lon="35.0305700">
<ele>446.179993</ele>
<time>2021-04-17T08:15:27.039Z</time>
</trkpt>
<trkpt lat="31.7889100" lon="35.0305600">
<ele>445.490021</ele>
<time>2021-04-17T08:15:27.039Z</time>
</trkpt>
<trkpt lat="31.7889600" lon="35.0305000">
<ele>446.640015</ele>
<time>2021-04-17T08:15:27.039Z</time>
</trkpt>
<trkpt lat="31.7890100" lon="35.0303800">
<ele>448.170013</ele>
<time>2021-04-17T08:15:27.039Z</time>
</trkpt>
<trkpt lat="31.7890300" lon="35.0301900">
<ele>449.699982</ele>
<time>2021-04-17T08:15:27.039Z</time>
</trkpt>
<trkpt lat="31.7890400" lon="35.0300500">
<ele>451.059998</ele>
<time>2021-04-17T08:15:27.040Z</time>
</trkpt>
<trkpt lat="31.7890300" lon="35.0299800">
<ele>451.480011</ele>
<time>2021-04-17T08:15:27.040Z</time>
</trkpt>
<trkpt lat="31.7888900" lon="35.0294800">
<ele>457.290009</ele>
<time>2021-04-17T08:15:27.040Z</time>
</trkpt>
<trkpt lat="31.7885600" lon="35.0286700">
<ele>459.109985</ele>
<time>2021-04-17T08:15:27.040Z</time>
</trkpt>
<trkpt lat="31.7884800" lon="35.0285500">
<ele>460.640015</ele>
<time>2021-04-17T08:15:27.040Z</time>
</trkpt>
<trkpt lat="31.7882300" lon="35.0282400">
<ele>461.859985</ele>
<time>2021-04-17T08:15:27.040Z</time>
</trkpt>
<trkpt lat="31.7877400" lon="35.0275700">
<ele>463.000031</ele>
<time>2021-04-17T08:15:27.040Z</time>
</trkpt>
<trkpt lat="31.7870900" lon="35.0269900">
<ele>462.209991</ele>
<time>2021-04-17T08:15:27.040Z</time>
</trkpt>
<trkpt lat="31.7868900" lon="35.0268300">
<ele>459.799988</ele>
<time>2021-04-17T08:15:27.040Z</time>
</trkpt>
<trkpt lat="31.7866500" lon="35.0265900">
<ele>454.229980</ele>
<time>2021-04-17T08:15:27.040Z</time>
</trkpt>
<trkpt lat="31.7866000" lon="35.0265500">
<ele>453.759979</ele>
<time>2021-04-17T08:15:27.040Z</time>
</trkpt>
<trkpt lat="31.7866000" lon="35.0265500">
<ele>453.759979</ele>
<time>2021-04-17T08:15:27.040Z</time>
</trkpt>
<trkpt lat="31.7866000" lon="35.0265500">
<ele>453.759979</ele>
<time>2021-04-17T08:15:27.040Z</time>
</trkpt>
<trkpt lat="31.7861800" lon="35.0261800">
<ele>454.070007</ele>
<time>2021-04-17T08:15:27.040Z</time>
</trkpt>
<trkpt lat="31.7859600" lon="35.0260200">
<ele>449.000031</ele>
<time>2021-04-17T08:15:27.040Z</time>
</trkpt>
<trkpt lat="31.7858700" lon="35.0259400">
<ele>446.919983</ele>
<time>2021-04-17T08:15:27.040Z</time>
</trkpt>
<trkpt lat="31.7858200" lon="35.0258700">
<ele>446.479980</ele>
<time>2021-04-17T08:15:27.040Z</time>
</trkpt>
<trkpt lat="31.7857400" lon="35.0257200">
<ele>440.730011</ele>
<time>2021-04-17T08:15:27.040Z</time>
</trkpt>
<trkpt lat="31.7856900" lon="35.0255500">
<ele>436.410004</ele>
<time>2021-04-17T08:15:27.040Z</time>
</trkpt>
<trkpt lat="31.7856100" lon="35.0252400">
<ele>436.559998</ele>
<time>2021-04-17T08:15:27.040Z</time>
</trkpt>
<trkpt lat="31.7854200" lon="35.0242600">
<ele>436.140015</ele>
<time>2021-04-17T08:15:27.040Z</time>
</trkpt>
<trkpt lat="31.7853600" lon="35.0239900">
<ele>436.910004</ele>
<time>2021-04-17T08:15:27.040Z</time>
</trkpt>
<trkpt lat="31.7852800" lon="35.0238100">
<ele>437.619995</ele>
<time>2021-04-17T08:15:27.040Z</time>
</trkpt>
<trkpt lat="31.7851800" lon="35.0236200">
<ele>440.189972</ele>
<time>2021-04-17T08:15:27.040Z</time>
</trkpt>
<trkpt lat="31.7850600" lon="35.0234700">
<ele>440.760010</ele>
<time>2021-04-17T08:15:27.040Z</time>
</trkpt>
<trkpt lat="31.7844100" lon="35.0228300">
<ele>438.819977</ele>
<time>2021-04-17T08:15:27.040Z</time>
</trkpt>
<trkpt lat="31.7843000" lon="35.0226900">
<ele>434.759979</ele>
<time>2021-04-17T08:15:27.040Z</time>
</trkpt>
<trkpt lat="31.7842500" lon="35.0226200">
<ele>431.239990</ele>
<time>2021-04-17T08:15:27.040Z</time>
</trkpt>
<trkpt lat="31.7842300" lon="35.0225500">
<ele>427.920013</ele>
<time>2021-04-17T08:15:27.040Z</time>
</trkpt>
<trkpt lat="31.7842500" lon="35.0224400">
<ele>423.919983</ele>
<time>2021-04-17T08:15:27.040Z</time>
</trkpt>
<trkpt lat="31.7843400" lon="35.0223000">
<ele>419.549988</ele>
<time>2021-04-17T08:15:27.040Z</time>
</trkpt>
<trkpt lat="31.7845000" lon="35.0221200">
<ele>416.429993</ele>
<time>2021-04-17T08:15:27.041Z</time>
</trkpt>
<trkpt lat="31.7845900" lon="35.0220200">
<ele>415.709991</ele>
<time>2021-04-17T08:15:27.041Z</time>
</trkpt>
<trkpt lat="31.7847400" lon="35.0219100">
<ele>414.620026</ele>
<time>2021-04-17T08:15:27.041Z</time>
</trkpt>
<trkpt lat="31.7849700" lon="35.0218100">
<ele>413.980011</ele>
<time>2021-04-17T08:15:27.041Z</time>
</trkpt>
<trkpt lat="31.7853000" lon="35.0217000">
<ele>414.950012</ele>
<time>2021-04-17T08:15:27.041Z</time>
</trkpt>
<trkpt lat="31.7854900" lon="35.0215900">
<ele>417.589996</ele>
<time>2021-04-17T08:15:27.041Z</time>
</trkpt>
<trkpt lat="31.7857500" lon="35.0214700">
<ele>419.599976</ele>
<time>2021-04-17T08:15:27.041Z</time>
</trkpt>
<trkpt lat="31.7861200" lon="35.0211100">
<ele>418.959991</ele>
<time>2021-04-17T08:15:27.041Z</time>
</trkpt>
<trkpt lat="31.7862200" lon="35.0210100">
<ele>418.019989</ele>
<time>2021-04-17T08:15:27.041Z</time>
</trkpt>
<trkpt lat="31.7864300" lon="35.0207200">
<ele>414.610016</ele>
<time>2021-04-17T08:15:27.041Z</time>
</trkpt>
<trkpt lat="31.7865900" lon="35.0205500">
<ele>411.940002</ele>
<time>2021-04-17T08:15:27.041Z</time>
</trkpt>
<trkpt lat="31.7867300" lon="35.0204300">
<ele>410.410004</ele>
<time>2021-04-17T08:15:27.041Z</time>
</trkpt>
<trkpt lat="31.7868600" lon="35.0203500">
<ele>408.429993</ele>
<time>2021-04-17T08:15:27.041Z</time>
</trkpt>
<trkpt lat="31.7869900" lon="35.0203100">
<ele>406.610016</ele>
<time>2021-04-17T08:15:27.041Z</time>
</trkpt>
<trkpt lat="31.7870600" lon="35.0203200">
<ele>405.769989</ele>
<time>2021-04-17T08:15:27.041Z</time>
</trkpt>
<trkpt lat="31.7871500" lon="35.0203600">
<ele>405.070007</ele>
<time>2021-04-17T08:15:27.041Z</time>
</trkpt>
<trkpt lat="31.7872700" lon="35.0204700">
<ele>404.390015</ele>
<time>2021-04-17T08:15:27.041Z</time>
</trkpt>
<trkpt lat="31.7874000" lon="35.0206200">
<ele>402.559998</ele>
<time>2021-04-17T08:15:27.041Z</time>
</trkpt>
<trkpt lat="31.7875200" lon="35.0207200">
<ele>401.010010</ele>
<time>2021-04-17T08:15:27.041Z</time>
</trkpt>
<trkpt lat="31.7876700" lon="35.0208100">
<ele>399.600006</ele>
<time>2021-04-17T08:15:27.041Z</time>
</trkpt>
<trkpt lat="31.7878700" lon="35.0208900">
<ele>400.240021</ele>
<time>2021-04-17T08:15:27.041Z</time>
</trkpt>
<trkpt lat="31.7880900" lon="35.0209400">
<ele>403.150024</ele>
<time>2021-04-17T08:15:27.041Z</time>
</trkpt>
<trkpt lat="31.7883100" lon="35.0209400">
<ele>404.190002</ele>
<time>2021-04-17T08:15:27.041Z</time>
</trkpt>
<trkpt lat="31.7883900" lon="35.0209200">
<ele>403.950012</ele>
<time>2021-04-17T08:15:27.041Z</time>
</trkpt>
<trkpt lat="31.7884700" lon="35.0208700">
<ele>403.150024</ele>
<time>2021-04-17T08:15:27.041Z</time>
</trkpt>
<trkpt lat="31.7885600" lon="35.0207600">
<ele>402.139984</ele>
<time>2021-04-17T08:15:27.041Z</time>
</trkpt>
<trkpt lat="31.7886500" lon="35.0205400">
<ele>401.310028</ele>
<time>2021-04-17T08:15:27.041Z</time>
</trkpt>
<trkpt lat="31.7887400" lon="35.0200600">
<ele>391.980011</ele>
<time>2021-04-17T08:15:27.041Z</time>
</trkpt>
<trkpt lat="31.7888400" lon="35.0198200">
<ele>387.470001</ele>
<time>2021-04-17T08:15:27.041Z</time>
</trkpt>
<trkpt lat="31.7889200" lon="35.0196900">
<ele>385.080017</ele>
<time>2021-04-17T08:15:27.041Z</time>
</trkpt>
<trkpt lat="31.7889700" lon="35.0196400">
<ele>383.639984</ele>
<time>2021-04-17T08:15:27.041Z</time>
</trkpt>
<trkpt lat="31.7891100" lon="35.0195700">
<ele>380.869995</ele>
<time>2021-04-17T08:15:27.041Z</time>
</trkpt>
<trkpt lat="31.7891400" lon="35.0195500">
<ele>380.190002</ele>
<time>2021-04-17T08:15:27.042Z</time>
</trkpt>
<trkpt lat="31.7891400" lon="35.0195500">
<ele>380.190002</ele>
<time>2021-04-17T08:15:27.042Z</time>
</trkpt>
<trkpt lat="31.7891400" lon="35.0195500">
<ele>380.190002</ele>
<time>2021-04-17T08:15:27.042Z</time>
</trkpt>
<trkpt lat="31.7900500" lon="35.0192000">
<ele>374.810028</ele>
<time>2021-04-17T08:15:27.042Z</time>
</trkpt>
<trkpt lat="31.7901900" lon="35.0191500">
<ele>375.089996</ele>
<time>2021-04-17T08:15:27.042Z</time>
</trkpt>
<trkpt lat="31.7903200" lon="35.0191400">
<ele>375.700012</ele>
<time>2021-04-17T08:15:27.042Z</time>
</trkpt>
<trkpt lat="31.7905300" lon="35.0191600">
<ele>376.829987</ele>
<time>2021-04-17T08:15:27.042Z</time>
</trkpt>
<trkpt lat="31.7909400" lon="35.0192900">
<ele>375.950012</ele>
<time>2021-04-17T08:15:27.042Z</time>
</trkpt>
<trkpt lat="31.7911000" lon="35.0193300">
<ele>372.649994</ele>
<time>2021-04-17T08:15:27.042Z</time>
</trkpt>
<trkpt lat="31.7912600" lon="35.0193400">
<ele>372.159973</ele>
<time>2021-04-17T08:15:27.042Z</time>
</trkpt>
<trkpt lat="31.7914300" lon="35.0193600">
<ele>371.389984</ele>
<time>2021-04-17T08:15:27.042Z</time>
</trkpt>
<trkpt lat="31.7921900" lon="35.0193500">
<ele>362.829987</ele>
<time>2021-04-17T08:15:27.042Z</time>
</trkpt>
<trkpt lat="31.7923200" lon="35.0193000">
<ele>363.510010</ele>
<time>2021-04-17T08:15:27.042Z</time>
</trkpt>
<trkpt lat="31.7925500" lon="35.0191400">
<ele>364.320007</ele>
<time>2021-04-17T08:15:27.042Z</time>
</trkpt>
<trkpt lat="31.7926400" lon="35.0190200">
<ele>363.230011</ele>
<time>2021-04-17T08:15:27.042Z</time>
</trkpt>
<trkpt lat="31.7926600" lon="35.0189000">
<ele>363.009979</ele>
<time>2021-04-17T08:15:27.042Z</time>
</trkpt>
<trkpt lat="31.7926400" lon="35.0187800">
<ele>362.990021</ele>
<time>2021-04-17T08:15:27.042Z</time>
</trkpt>
<trkpt lat="31.7924500" lon="35.0183600">
<ele>362.650024</ele>
<time>2021-04-17T08:15:27.042Z</time>
</trkpt>
<trkpt lat="31.7921800" lon="35.0175800">
<ele>352.709991</ele>
<time>2021-04-17T08:15:27.042Z</time>
</trkpt>
<trkpt lat="31.7921300" lon="35.0169300">
<ele>345.690002</ele>
<time>2021-04-17T08:15:27.042Z</time>
</trkpt>
<trkpt lat="31.7921400" lon="35.0164300">
<ele>346.210022</ele>
<time>2021-04-17T08:15:27.042Z</time>
</trkpt>
<trkpt lat="31.7921900" lon="35.0161100">
<ele>342.380005</ele>
<time>2021-04-17T08:15:27.042Z</time>
</trkpt>
<trkpt lat="31.7922400" lon="35.0159600">
<ele>337.579987</ele>
<time>2021-04-17T08:15:27.042Z</time>
</trkpt>
<trkpt lat="31.7923000" lon="35.0158700">
<ele>334.940002</ele>
<time>2021-04-17T08:15:27.042Z</time>
</trkpt>
<trkpt lat="31.7923800" lon="35.0157600">
<ele>333.989990</ele>
<time>2021-04-17T08:15:27.042Z</time>
</trkpt>
<trkpt lat="31.7924700" lon="35.0156900">
<ele>333.779999</ele>
<time>2021-04-17T08:15:27.042Z</time>
</trkpt>
<trkpt lat="31.7926400" lon="35.0156200">
<ele>332.040009</ele>
<time>2021-04-17T08:15:27.042Z</time>
</trkpt>
<trkpt lat="31.7927300" lon="35.0155500">
<ele>330.269989</ele>
<time>2021-04-17T08:15:27.042Z</time>
</trkpt>
<trkpt lat="31.7927900" lon="35.0154900">
<ele>329.099976</ele>
<time>2021-04-17T08:15:27.042Z</time>
</trkpt>
<trkpt lat="31.7927600" lon="35.0154500">
<ele>328.660004</ele>
<time>2021-04-17T08:15:27.042Z</time>
</trkpt>
<trkpt lat="31.7927600" lon="35.0154500">
<ele>328.660004</ele>
<time>2021-04-17T08:15:27.043Z</time>
</trkpt>
<trkpt lat="31.7927600" lon="35.0154500">
<ele>328.660004</ele>
<time>2021-04-17T08:15:27.043Z</time>
</trkpt>
<trkpt lat="31.7927900" lon="35.0154900">
<ele>329.099976</ele>
<time>2021-04-17T08:15:27.043Z</time>
</trkpt>
<trkpt lat="31.7928900" lon="35.0153800">
<ele>327.880005</ele>
<time>2021-04-17T08:15:27.043Z</time>
</trkpt>
<trkpt lat="31.7930900" lon="35.0153000">
<ele>327.200012</ele>
<time>2021-04-17T08:15:27.043Z</time>
</trkpt>
<trkpt lat="31.7932400" lon="35.0152700">
<ele>326.229980</ele>
<time>2021-04-17T08:15:27.043Z</time>
</trkpt>
<trkpt lat="31.7936500" lon="35.0153300">
<ele>327.910004</ele>
<time>2021-04-17T08:15:27.043Z</time>
</trkpt>
<trkpt lat="31.7938100" lon="35.0153400">
<ele>327.959991</ele>
<time>2021-04-17T08:15:27.043Z</time>
</trkpt>
<trkpt lat="31.7939900" lon="35.0153400">
<ele>328.020020</ele>
<time>2021-04-17T08:15:27.043Z</time>
</trkpt>
<trkpt lat="31.7948000" lon="35.0154900">
<ele>319.149994</ele>
<time>2021-04-17T08:15:27.043Z</time>
</trkpt>
<trkpt lat="31.7950400" lon="35.0156500">
<ele>313.670013</ele>
<time>2021-04-17T08:15:27.043Z</time>
</trkpt>
<trkpt lat="31.7951100" lon="35.0157200">
<ele>313.590027</ele>
<time>2021-04-17T08:15:27.043Z</time>
</trkpt>
<trkpt lat="31.7956900" lon="35.0154900">
<ele>307.750000</ele>
<time>2021-04-17T08:15:27.043Z</time>
</trkpt>
<trkpt lat="31.7957600" lon="35.0154800">
<ele>307.540009</ele>
<time>2021-04-17T08:15:27.043Z</time>
</trkpt>
<trkpt lat="31.7959200" lon="35.0154800">
<ele>307.950012</ele>
<time>2021-04-17T08:15:27.043Z</time>
</trkpt>
<trkpt lat="31.7971900" lon="35.0156100">
<ele>305.799988</ele>
<time>2021-04-17T08:15:27.043Z</time>
</trkpt>
<trkpt lat="31.7972500" lon="35.0156100">
<ele>305.750000</ele>
<time>2021-04-17T08:15:27.043Z</time>
</trkpt>
<trkpt lat="31.7973200" lon="35.0155900">
<ele>305.649994</ele>
<time>2021-04-17T08:15:27.043Z</time>
</trkpt>
<trkpt lat="31.7973600" lon="35.0155600">
<ele>305.110016</ele>
<time>2021-04-17T08:15:27.043Z</time>
</trkpt>
<trkpt lat="31.7973700" lon="35.0155700">
<ele>305.450012</ele>
<time>2021-04-17T08:15:27.043Z</time>
</trkpt>
<trkpt lat="31.7973800" lon="35.0155800">
<ele>305.790009</ele>
<time>2021-04-17T08:15:27.043Z</time>
</trkpt>
<trkpt lat="31.7973900" lon="35.0155900">
<ele>306.130005</ele>
<time>2021-04-17T08:15:27.043Z</time>
</trkpt>
<trkpt lat="31.7974100" lon="35.0156100">
<ele>306.790009</ele>
<time>2021-04-17T08:15:27.043Z</time>
</trkpt>
<trkpt lat="31.7974300" lon="35.0156100">
<ele>306.920013</ele>
<time>2021-04-17T08:15:27.043Z</time>
</trkpt>
<trkpt lat="31.7974400" lon="35.0156200">
<ele>307.239990</ele>
<time>2021-04-17T08:15:27.043Z</time>
</trkpt>
<trkpt lat="31.7974600" lon="35.0156200">
<ele>307.369995</ele>
<time>2021-04-17T08:15:27.043Z</time>
</trkpt>
<trkpt lat="31.7974800" lon="35.0156200">
<ele>307.500000</ele>
<time>2021-04-17T08:15:27.043Z</time>
</trkpt>
<trkpt lat="31.7975000" lon="35.0156100">
<ele>307.369995</ele>
<time>2021-04-17T08:15:27.043Z</time>
</trkpt>
<trkpt lat="31.7975200" lon="35.0156100">
<ele>307.769989</ele>
<time>2021-04-17T08:15:27.043Z</time>
</trkpt>
<trkpt lat="31.7975300" lon="35.0155900">
<ele>307.449982</ele>
<time>2021-04-17T08:15:27.043Z</time>
</trkpt>
<trkpt lat="31.7975500" lon="35.0155800">
<ele>307.559998</ele>
<time>2021-04-17T08:15:27.043Z</time>
</trkpt>
<trkpt lat="31.7975600" lon="35.0155700">
<ele>307.480011</ele>
<time>2021-04-17T08:15:27.043Z</time>
</trkpt>
<trkpt lat="31.7975700" lon="35.0155500">
<ele>307.059998</ele>
<time>2021-04-17T08:15:27.044Z</time>
</trkpt>
<trkpt lat="31.7975800" lon="35.0155300">
<ele>306.520020</ele>
<time>2021-04-17T08:15:27.044Z</time>
</trkpt>
<trkpt lat="31.7975800" lon="35.0155000">
<ele>305.440002</ele>
<time>2021-04-17T08:15:27.044Z</time>
</trkpt>
<trkpt lat="31.7975800" lon="35.0154800">
<ele>304.720001</ele>
<time>2021-04-17T08:15:27.044Z</time>
</trkpt>
<trkpt lat="31.7976000" lon="35.0154400">
<ele>303.860016</ele>
<time>2021-04-17T08:15:27.044Z</time>
</trkpt>
<trkpt lat="31.7976100" lon="35.0154100">
<ele>303.140015</ele>
<time>2021-04-17T08:15:27.044Z</time>
</trkpt>
<trkpt lat="31.7976300" lon="35.0153800">
<ele>302.829987</ele>
<time>2021-04-17T08:15:27.044Z</time>
</trkpt>
<trkpt lat="31.7976500" lon="35.0153500">
<ele>302.619995</ele>
<time>2021-04-17T08:15:27.044Z</time>
</trkpt>
<trkpt lat="31.7976700" lon="35.0153300">
<ele>302.790009</ele>
<time>2021-04-17T08:15:27.044Z</time>
</trkpt>
<trkpt lat="31.7977000" lon="35.0153100">
<ele>303.450012</ele>
<time>2021-04-17T08:15:27.044Z</time>
</trkpt>
<trkpt lat="31.7977200" lon="35.0152900">
<ele>303.790009</ele>
<time>2021-04-17T08:15:27.044Z</time>
</trkpt>
<trkpt lat="31.7977500" lon="35.0152700">
<ele>304.690002</ele>
<time>2021-04-17T08:15:27.044Z</time>
</trkpt>
<trkpt lat="31.7977700" lon="35.0152500">
<ele>305.190002</ele>
<time>2021-04-17T08:15:27.044Z</time>
</trkpt>
<trkpt lat="31.7978300" lon="35.0152100">
<ele>305.339996</ele>
<time>2021-04-17T08:15:27.044Z</time>
</trkpt>
<trkpt lat="31.7980100" lon="35.0151200">
<ele>305.669983</ele>
<time>2021-04-17T08:15:27.044Z</time>
</trkpt>
<trkpt lat="31.7980600" lon="35.0151000">
<ele>305.730011</ele>
<time>2021-04-17T08:15:27.044Z</time>
</trkpt>
<trkpt lat="31.7980900" lon="35.0150700">
<ele>304.789978</ele>
<time>2021-04-17T08:15:27.044Z</time>
</trkpt>
<trkpt lat="31.7981300" lon="35.0150400">
<ele>303.800018</ele>
<time>2021-04-17T08:15:27.044Z</time>
</trkpt>
<trkpt lat="31.7981500" lon="35.0150100">
<ele>303.119995</ele>
<time>2021-04-17T08:15:27.044Z</time>
</trkpt>
<trkpt lat="31.7981800" lon="35.0149700">
<ele>301.850006</ele>
<time>2021-04-17T08:15:27.044Z</time>
</trkpt>
<trkpt lat="31.7981900" lon="35.0149300">
<ele>300.660004</ele>
<time>2021-04-17T08:15:27.044Z</time>
</trkpt>
<trkpt lat="31.7981900" lon="35.0149300">
<ele>300.660004</ele>
<time>2021-04-17T08:15:27.044Z</time>
</trkpt>
<trkpt lat="31.7981800" lon="35.0149700">
<ele>301.850006</ele>
<time>2021-04-17T08:15:27.044Z</time>
</trkpt>
<trkpt lat="31.7982000" lon="35.0149300">
<ele>300.540009</ele>
<time>2021-04-17T08:15:27.044Z</time>
</trkpt>
<trkpt lat="31.7982100" lon="35.0148800">
<ele>299.070007</ele>
<time>2021-04-17T08:15:27.044Z</time>
</trkpt>
<trkpt lat="31.7982200" lon="35.0148400">
<ele>297.850006</ele>
<time>2021-04-17T08:15:27.044Z</time>
</trkpt>
<trkpt lat="31.7982300" lon="35.0147900">
<ele>296.350006</ele>
<time>2021-04-17T08:15:27.044Z</time>
</trkpt>
<trkpt lat="31.7982300" lon="35.0147400">
<ele>294.980011</ele>
<time>2021-04-17T08:15:27.044Z</time>
</trkpt>
<trkpt lat="31.7982700" lon="35.0142700">
<ele>296.929993</ele>
<time>2021-04-17T08:15:27.044Z</time>
</trkpt>
<trkpt lat="31.7982800" lon="35.0142300">
<ele>297.529999</ele>
<time>2021-04-17T08:15:27.044Z</time>
</trkpt>
<trkpt lat="31.7982800" lon="35.0141900">
<ele>298.309998</ele>
<time>2021-04-17T08:15:27.044Z</time>
</trkpt>
<trkpt lat="31.7982900" lon="35.0141500">
<ele>298.730011</ele>
<time>2021-04-17T08:15:27.045Z</time>
</trkpt>
<trkpt lat="31.7982900" lon="35.0141200">
<ele>298.929993</ele>
<time>2021-04-17T08:15:27.045Z</time>
</trkpt>
<trkpt lat="31.7983000" lon="35.0140800">
<ele>299.070007</ele>
<time>2021-04-17T08:15:27.045Z</time>
</trkpt>
<trkpt lat="31.7983000" lon="35.0140500">
<ele>299.269989</ele>
<time>2021-04-17T08:15:27.045Z</time>
</trkpt>
<trkpt lat="31.7983100" lon="35.0140100">
<ele>299.419983</ele>
<time>2021-04-17T08:15:27.045Z</time>
</trkpt>
<trkpt lat="31.7983200" lon="35.0139800">
<ele>299.500000</ele>
<time>2021-04-17T08:15:27.045Z</time>
</trkpt>
<trkpt lat="31.7983300" lon="35.0139500">
<ele>299.600006</ele>
<time>2021-04-17T08:15:27.045Z</time>
</trkpt>
<trkpt lat="31.7983600" lon="35.0138700">
<ele>299.309998</ele>
<time>2021-04-17T08:15:27.045Z</time>
</trkpt>
<trkpt lat="31.7985100" lon="35.0134100">
<ele>297.739990</ele>
<time>2021-04-17T08:15:27.045Z</time>
</trkpt>
<trkpt lat="31.7985500" lon="35.0133400">
<ele>298.160004</ele>
<time>2021-04-17T08:15:27.045Z</time>
</trkpt>
<trkpt lat="31.7985900" lon="35.0132900">
<ele>298.720001</ele>
<time>2021-04-17T08:15:27.045Z</time>
</trkpt>
<trkpt lat="31.7986400" lon="35.0132600">
<ele>298.609985</ele>
<time>2021-04-17T08:15:27.045Z</time>
</trkpt>
<trkpt lat="31.7987000" lon="35.0132300">
<ele>298.089996</ele>
<time>2021-04-17T08:15:27.045Z</time>
</trkpt>
<trkpt lat="31.7987500" lon="35.0132200">
<ele>297.429993</ele>
<time>2021-04-17T08:15:27.045Z</time>
</trkpt>
<trkpt lat="31.7988100" lon="35.0132200">
<ele>296.480011</ele>
<time>2021-04-17T08:15:27.045Z</time>
</trkpt>
<trkpt lat="31.7988600" lon="35.0132200">
<ele>295.679993</ele>
<time>2021-04-17T08:15:27.045Z</time>
</trkpt>
<trkpt lat="31.7989200" lon="35.0132300">
<ele>294.440002</ele>
<time>2021-04-17T08:15:27.045Z</time>
</trkpt>
<trkpt lat="31.7990100" lon="35.0132600">
<ele>292.179993</ele>
<time>2021-04-17T08:15:27.045Z</time>
</trkpt>
<trkpt lat="31.7991500" lon="35.0126500">
<ele>297.600006</ele>
<time>2021-04-17T08:15:27.045Z</time>
</trkpt>
<trkpt lat="31.7991600" lon="35.0126200">
<ele>297.960022</ele>
<time>2021-04-17T08:15:27.045Z</time>
</trkpt>
<trkpt lat="31.7991700" lon="35.0126000">
<ele>298.130005</ele>
<time>2021-04-17T08:15:27.045Z</time>
</trkpt>
<trkpt lat="31.7991800" lon="35.0125800">
<ele>298.269989</ele>
<time>2021-04-17T08:15:27.045Z</time>
</trkpt>
<trkpt lat="31.7991900" lon="35.0125500">
<ele>298.600006</ele>
<time>2021-04-17T08:15:27.045Z</time>
</trkpt>
<trkpt lat="31.7992100" lon="35.0125300">
<ele>298.519989</ele>
<time>2021-04-17T08:15:27.045Z</time>
</trkpt>
<trkpt lat="31.7992200" lon="35.0125100">
<ele>298.669983</ele>
<time>2021-04-17T08:15:27.045Z</time>
</trkpt>
<trkpt lat="31.7992300" lon="35.0125000">
<ele>298.630005</ele>
<time>2021-04-17T08:15:27.045Z</time>
</trkpt>
<trkpt lat="31.7992500" lon="35.0124800">
<ele>298.649994</ele>
<time>2021-04-17T08:15:27.045Z</time>
</trkpt>
<trkpt lat="31.7992600" lon="35.0124700">
<ele>298.669983</ele>
<time>2021-04-17T08:15:27.045Z</time>
</trkpt>
<trkpt lat="31.7992900" lon="35.0124500">
<ele>298.500000</ele>
<time>2021-04-17T08:15:27.045Z</time>
</trkpt>
<trkpt lat="31.7993000" lon="35.0124400">
<ele>298.519989</ele>
<time>2021-04-17T08:15:27.045Z</time>
</trkpt>
<trkpt lat="31.7993200" lon="35.0124300">
<ele>298.339996</ele>
<time>2021-04-17T08:15:27.045Z</time>
</trkpt>
<trkpt lat="31.7993300" lon="35.0124200">
<ele>298.369995</ele>
<time>2021-04-17T08:15:27.045Z</time>
</trkpt>
<trkpt lat="31.7993400" lon="35.0124100">
<ele>298.399994</ele>
<time>2021-04-17T08:15:27.046Z</time>
</trkpt>
<trkpt lat="31.7993500" lon="35.0123900">
<ele>298.679993</ele>
<time>2021-04-17T08:15:27.046Z</time>
</trkpt>
<trkpt lat="31.7993600" lon="35.0123700">
<ele>298.959991</ele>
<time>2021-04-17T08:15:27.046Z</time>
</trkpt>
<trkpt lat="31.7993700" lon="35.0123500">
<ele>299.239990</ele>
<time>2021-04-17T08:15:27.046Z</time>
</trkpt>
<trkpt lat="31.7993800" lon="35.0123400">
<ele>299.289978</ele>
<time>2021-04-17T08:15:27.046Z</time>
</trkpt>
<trkpt lat="31.7994000" lon="35.0123300">
<ele>299.149994</ele>
<time>2021-04-17T08:15:27.046Z</time>
</trkpt>
<trkpt lat="31.7994100" lon="35.0123200">
<ele>299.200012</ele>
<time>2021-04-17T08:15:27.046Z</time>
</trkpt>
<trkpt lat="31.7994200" lon="35.0123200">
<ele>299.010010</ele>
<time>2021-04-17T08:15:27.046Z</time>
</trkpt>
<trkpt lat="31.7994400" lon="35.0123100">
<ele>298.869995</ele>
<time>2021-04-17T08:15:27.046Z</time>
</trkpt>
<trkpt lat="31.7994500" lon="35.0123000">
<ele>298.949982</ele>
<time>2021-04-17T08:15:27.046Z</time>
</trkpt>
<trkpt lat="31.7994700" lon="35.0123000">
<ele>298.609985</ele>
<time>2021-04-17T08:15:27.046Z</time>
</trkpt>
<trkpt lat="31.7994800" lon="35.0122900">
<ele>298.679993</ele>
<time>2021-04-17T08:15:27.046Z</time>
</trkpt>
<trkpt lat="31.7995700" lon="35.0122900">
<ele>297.140015</ele>
<time>2021-04-17T08:15:27.046Z</time>
</trkpt>
<trkpt lat="31.8003300" lon="35.0122200">
<ele>294.729980</ele>
<time>2021-04-17T08:15:27.046Z</time>
</trkpt>
<trkpt lat="31.8003300" lon="35.0122200">
<ele>294.729980</ele>
<time>2021-04-17T08:15:27.046Z</time>
</trkpt>
<trkpt lat="31.8003300" lon="35.0122200">
<ele>294.729980</ele>
<time>2021-04-17T08:15:27.046Z</time>
</trkpt>
<trkpt lat="31.8008400" lon="35.0121700">
<ele>291.860016</ele>
<time>2021-04-17T08:15:27.046Z</time>
</trkpt>
<trkpt lat="31.8009400" lon="35.0121600">
<ele>289.910004</ele>
<time>2021-04-17T08:15:27.046Z</time>
</trkpt>
<trkpt lat="31.8010400" lon="35.0121400">
<ele>288.329987</ele>
<time>2021-04-17T08:15:27.046Z</time>
</trkpt>
<trkpt lat="31.8011300" lon="35.0121100">
<ele>287.750000</ele>
<time>2021-04-17T08:15:27.046Z</time>
</trkpt>
<trkpt lat="31.8012300" lon="35.0120800">
<ele>287.929993</ele>
<time>2021-04-17T08:15:27.046Z</time>
</trkpt>
<trkpt lat="31.8013100" lon="35.0120400">
<ele>288.179993</ele>
<time>2021-04-17T08:15:27.046Z</time>
</trkpt>
<trkpt lat="31.8014000" lon="35.0120000">
<ele>288.119995</ele>
<time>2021-04-17T08:15:27.046Z</time>
</trkpt>
<trkpt lat="31.8014700" lon="35.0119500">
<ele>288.339996</ele>
<time>2021-04-17T08:15:27.046Z</time>
</trkpt>
<trkpt lat="31.8015400" lon="35.0118900">
<ele>288.299988</ele>
<time>2021-04-17T08:15:27.046Z</time>
</trkpt>
<trkpt lat="31.8015700" lon="35.0118700">
<ele>288.230011</ele>
<time>2021-04-17T08:15:27.046Z</time>
</trkpt>
<trkpt lat="31.8016000" lon="35.0118300">
<ele>288.299988</ele>
<time>2021-04-17T08:15:27.046Z</time>
</trkpt>
<trkpt lat="31.8016600" lon="35.0117600">
<ele>288.380005</ele>
<time>2021-04-17T08:15:27.046Z</time>
</trkpt>
<trkpt lat="31.8016700" lon="35.0117500">
<ele>288.339996</ele>
<time>2021-04-17T08:15:27.046Z</time>
</trkpt>
<trkpt lat="31.8016800" lon="35.0117300">
<ele>288.329987</ele>
<time>2021-04-17T08:15:27.046Z</time>
</trkpt>
<trkpt lat="31.8016900" lon="35.0117200">
<ele>288.250000</ele>
<time>2021-04-17T08:15:27.047Z</time>
</trkpt>
<trkpt lat="31.8017100" lon="35.0117000">
<ele>288.100006</ele>
<time>2021-04-17T08:15:27.047Z</time>
</trkpt>
<trkpt lat="31.8017200" lon="35.0116900">
<ele>288.029999</ele>
<time>2021-04-17T08:15:27.047Z</time>
</trkpt>
<trkpt lat="31.8017300" lon="35.0116800">
<ele>287.970001</ele>
<time>2021-04-17T08:15:27.047Z</time>
</trkpt>
<trkpt lat="31.8017500" lon="35.0116700">
<ele>287.770020</ele>
<time>2021-04-17T08:15:27.047Z</time>
</trkpt>
<trkpt lat="31.8017600" lon="35.0116600">
<ele>287.669983</ele>
<time>2021-04-17T08:15:27.047Z</time>
</trkpt>
<trkpt lat="31.8017700" lon="35.0116500">
<ele>287.559998</ele>
<time>2021-04-17T08:15:27.047Z</time>
</trkpt>
<trkpt lat="31.8017800" lon="35.0116500">
<ele>287.420013</ele>
<time>2021-04-17T08:15:27.047Z</time>
</trkpt>
<trkpt lat="31.8018000" lon="35.0116500">
<ele>287.139984</ele>
<time>2021-04-17T08:15:27.047Z</time>
</trkpt>
<trkpt lat="31.8018200" lon="35.0116400">
<ele>286.899994</ele>
<time>2021-04-17T08:15:27.047Z</time>
</trkpt>
<trkpt lat="31.8018300" lon="35.0116300">
<ele>286.799988</ele>
<time>2021-04-17T08:15:27.047Z</time>
</trkpt>
<trkpt lat="31.8018500" lon="35.0116200">
<ele>286.579987</ele>
<time>2021-04-17T08:15:27.047Z</time>
</trkpt>
<trkpt lat="31.8018600" lon="35.0116100">
<ele>286.500000</ele>
<time>2021-04-17T08:15:27.047Z</time>
</trkpt>
<trkpt lat="31.8018700" lon="35.0116000">
<ele>286.420013</ele>
<time>2021-04-17T08:15:27.047Z</time>
</trkpt>
<trkpt lat="31.8018800" lon="35.0115800">
<ele>286.410004</ele>
<time>2021-04-17T08:15:27.047Z</time>
</trkpt>
<trkpt lat="31.8018900" lon="35.0115700">
<ele>286.339996</ele>
<time>2021-04-17T08:15:27.047Z</time>
</trkpt>
<trkpt lat="31.8019000" lon="35.0115600">
<ele>286.290009</ele>
<time>2021-04-17T08:15:27.047Z</time>
</trkpt>
<trkpt lat="31.8019100" lon="35.0115500">
<ele>286.230011</ele>
<time>2021-04-17T08:15:27.047Z</time>
</trkpt>
<trkpt lat="31.8019200" lon="35.0115500">
<ele>286.119995</ele>
<time>2021-04-17T08:15:27.047Z</time>
</trkpt>
<trkpt lat="31.8019300" lon="35.0115400">
<ele>286.070007</ele>
<time>2021-04-17T08:15:27.047Z</time>
</trkpt>
<trkpt lat="31.8019400" lon="35.0115300">
<ele>286.029999</ele>
<time>2021-04-17T08:15:27.047Z</time>
</trkpt>
<trkpt lat="31.8019500" lon="35.0115200">
<ele>286.029999</ele>
<time>2021-04-17T08:15:27.047Z</time>
</trkpt>
<trkpt lat="31.8019600" lon="35.0115200">
<ele>285.970001</ele>
<time>2021-04-17T08:15:27.047Z</time>
</trkpt>
<trkpt lat="31.8019800" lon="35.0115100">
<ele>285.940002</ele>
<time>2021-04-17T08:15:27.047Z</time>
</trkpt>
<trkpt lat="31.8019900" lon="35.0115100">
<ele>285.889984</ele>
<time>2021-04-17T08:15:27.047Z</time>
</trkpt>
<trkpt lat="31.8020300" lon="35.0114900">
<ele>285.850006</ele>
<time>2021-04-17T08:15:27.047Z</time>
</trkpt>
<trkpt lat="31.8020800" lon="35.0114700">
<ele>285.790009</ele>
<time>2021-04-17T08:15:27.047Z</time>
</trkpt>
<trkpt lat="31.8021300" lon="35.0114400">
<ele>285.839996</ele>
<time>2021-04-17T08:15:27.048Z</time>
</trkpt>
<trkpt lat="31.8021700" lon="35.0114100">
<ele>285.970001</ele>
<time>2021-04-17T08:15:27.048Z</time>
</trkpt>
<trkpt lat="31.8022100" lon="35.0113700">
<ele>286.109985</ele>
<time>2021-04-17T08:15:27.048Z</time>
</trkpt>
<trkpt lat="31.8022500" lon="35.0113400">
<ele>285.480011</ele>
<time>2021-04-17T08:15:27.048Z</time>
</trkpt>
<trkpt lat="31.8022900" lon="35.0113000">
<ele>284.609985</ele>
<time>2021-04-17T08:15:27.048Z</time>
</trkpt>
<trkpt lat="31.8023200" lon="35.0112600">
<ele>284.000000</ele>
<time>2021-04-17T08:15:27.048Z</time>
</trkpt>
<trkpt lat="31.8023600" lon="35.0112100">
<ele>283.170013</ele>
<time>2021-04-17T08:15:27.048Z</time>
</trkpt>
<trkpt lat="31.8023900" lon="35.0111700">
<ele>282.559998</ele>
<time>2021-04-17T08:15:27.048Z</time>
</trkpt>
<trkpt lat="31.8026800" lon="35.0106700">
<ele>279.639984</ele>
<time>2021-04-17T08:15:27.048Z</time>
</trkpt>
<trkpt lat="31.8027300" lon="35.0105500">
<ele>277.720001</ele>
<time>2021-04-17T08:15:27.048Z</time>
</trkpt>
<trkpt lat="31.8027400" lon="35.0104400">
<ele>277.300018</ele>
<time>2021-04-17T08:15:27.048Z</time>
</trkpt>
<trkpt lat="31.8027400" lon="35.0103600">
<ele>277.260010</ele>
<time>2021-04-17T08:15:27.048Z</time>
</trkpt>
<trkpt lat="31.8026700" lon="35.0100800">
<ele>278.500000</ele>
<time>2021-04-17T08:15:27.048Z</time>
</trkpt>
<trkpt lat="31.8026500" lon="35.0099700">
<ele>278.730011</ele>
<time>2021-04-17T08:15:27.048Z</time>
</trkpt>
<trkpt lat="31.8026400" lon="35.0098600">
<ele>279.220001</ele>
<time>2021-04-17T08:15:27.048Z</time>
</trkpt>
<trkpt lat="31.8026600" lon="35.0093500">
<ele>278.760010</ele>
<time>2021-04-17T08:15:27.048Z</time>
</trkpt>
<trkpt lat="31.8026600" lon="35.0092200">
<ele>278.089996</ele>
<time>2021-04-17T08:15:27.048Z</time>
</trkpt>
<trkpt lat="31.8026500" lon="35.0091100">
<ele>278.029999</ele>
<time>2021-04-17T08:15:27.048Z</time>
</trkpt>
<trkpt lat="31.8026400" lon="35.0090200">
<ele>278.200012</ele>
<time>2021-04-17T08:15:27.048Z</time>
</trkpt>
<trkpt lat="31.8026200" lon="35.0088600">
<ele>278.610016</ele>
<time>2021-04-17T08:15:27.048Z</time>
</trkpt>
<trkpt lat="31.8025400" lon="35.0084500">
<ele>279.579987</ele>
<time>2021-04-17T08:15:27.048Z</time>
</trkpt>
<trkpt lat="31.8025400" lon="35.0084500">
<ele>279.579987</ele>
<time>2021-04-17T08:15:27.048Z</time>
</trkpt>
<trkpt lat="31.8025400" lon="35.0084500">
<ele>279.579987</ele>
<time>2021-04-17T08:15:27.048Z</time>
</trkpt>
<trkpt lat="31.8024700" lon="35.0081300">
<ele>282.380005</ele>
<time>2021-04-17T08:15:27.048Z</time>
</trkpt>
<trkpt lat="31.8035700" lon="35.0077000">
<ele>267.769989</ele>
<time>2021-04-17T08:15:27.048Z</time>
</trkpt>
<trkpt lat="31.8036600" lon="35.0076600">
<ele>266.679993</ele>
<time>2021-04-17T08:15:27.049Z</time>
</trkpt>
<trkpt lat="31.8040400" lon="35.0073900">
<ele>264.149994</ele>
<time>2021-04-17T08:15:27.049Z</time>
</trkpt>
<trkpt lat="31.8041200" lon="35.0073300">
<ele>264.220001</ele>
<time>2021-04-17T08:15:27.049Z</time>
</trkpt>
<trkpt lat="31.8042000" lon="35.0072500">
<ele>263.980011</ele>
<time>2021-04-17T08:15:27.049Z</time>
</trkpt>
<trkpt lat="31.8042700" lon="35.0071700">
<ele>263.820007</ele>
<time>2021-04-17T08:15:27.049Z</time>
</trkpt>
<trkpt lat="31.8044500" lon="35.0069600">
<ele>263.850006</ele>
<time>2021-04-17T08:15:27.049Z</time>
</trkpt>
<trkpt lat="31.8045900" lon="35.0067700">
<ele>263.260010</ele>
<time>2021-04-17T08:15:27.049Z</time>
</trkpt>
<trkpt lat="31.8047800" lon="35.0064400">
<ele>264.750000</ele>
<time>2021-04-17T08:15:27.049Z</time>
</trkpt>
<trkpt lat="31.8048800" lon="35.0061400">
<ele>265.579987</ele>
<time>2021-04-17T08:15:27.049Z</time>
</trkpt>
<trkpt lat="31.8049100" lon="35.0059600">
<ele>265.299988</ele>
<time>2021-04-17T08:15:27.049Z</time>
</trkpt>
<trkpt lat="31.8049100" lon="35.0058400">
<ele>265.299988</ele>
<time>2021-04-17T08:15:27.049Z</time>
</trkpt>
<trkpt lat="31.8049100" lon="35.0058400">
<ele>265.299988</ele>
<time>2021-04-17T08:15:27.049Z</time>
</trkpt>
<trkpt lat="31.8049100" lon="35.0058400">
<ele>265.299988</ele>
<time>2021-04-17T08:15:27.049Z</time>
</trkpt>
<trkpt lat="31.8049200" lon="35.0057000">
<ele>265.429993</ele>
<time>2021-04-17T08:15:27.049Z</time>
</trkpt>
<trkpt lat="31.8049000" lon="35.0054100">
<ele>266.350006</ele>
<time>2021-04-17T08:15:27.049Z</time>
</trkpt>
<trkpt lat="31.8049000" lon="35.0051900">
<ele>266.519989</ele>
<time>2021-04-17T08:15:27.049Z</time>
</trkpt>
<trkpt lat="31.8048600" lon="35.0049200">
<ele>267.809998</ele>
<time>2021-04-17T08:15:27.049Z</time>
</trkpt>
<trkpt lat="31.8048500" lon="35.0048100">
<ele>268.410004</ele>
<time>2021-04-17T08:15:27.049Z</time>
</trkpt>
<trkpt lat="31.8048600" lon="35.0046700">
<ele>269.549988</ele>
<time>2021-04-17T08:15:27.049Z</time>
</trkpt>
<trkpt lat="31.8048900" lon="35.0045700">
<ele>271.160004</ele>
<time>2021-04-17T08:15:27.049Z</time>
</trkpt>
<trkpt lat="31.8049700" lon="35.0044500">
<ele>273.079987</ele>
<time>2021-04-17T08:15:27.049Z</time>
</trkpt>
<trkpt lat="31.8051200" lon="35.0043600">
<ele>272.960022</ele>
<time>2021-04-17T08:15:27.049Z</time>
</trkpt>
<trkpt lat="31.8054700" lon="35.0042500">
<ele>270.580017</ele>
<time>2021-04-17T08:15:27.049Z</time>
</trkpt>
<trkpt lat="31.8056100" lon="35.0042200">
<ele>270.230011</ele>
<time>2021-04-17T08:15:27.050Z</time>
</trkpt>
<trkpt lat="31.8057200" lon="35.0042200">
<ele>269.360016</ele>
<time>2021-04-17T08:15:27.050Z</time>
</trkpt>
<trkpt lat="31.8058600" lon="35.0042400">
<ele>267.250000</ele>
<time>2021-04-17T08:15:27.050Z</time>
</trkpt>
<trkpt lat="31.8064000" lon="35.0044300">
<ele>259.940002</ele>
<time>2021-04-17T08:15:27.050Z</time>
</trkpt>
<trkpt lat="31.8066700" lon="35.0045000">
<ele>255.929993</ele>
<time>2021-04-17T08:15:27.050Z</time>
</trkpt>
<trkpt lat="31.8067000" lon="35.0046500">
<ele>252.669998</ele>
<time>2021-04-17T08:15:27.050Z</time>
</trkpt>
<trkpt lat="31.8067600" lon="35.0048100">
<ele>251.060013</ele>
<time>2021-04-17T08:15:27.050Z</time>
</trkpt>
<trkpt lat="31.8068500" lon="35.0049400">
<ele>251.550003</ele>
<time>2021-04-17T08:15:27.050Z</time>
</trkpt>
<trkpt lat="31.8069100" lon="35.0049900">
<ele>251.960007</ele>
<time>2021-04-17T08:15:27.050Z</time>
</trkpt>
<trkpt lat="31.8069100" lon="35.0049900">
<ele>251.960007</ele>
<time>2021-04-17T08:15:27.050Z</time>
</trkpt>
<trkpt lat="31.8069100" lon="35.0049900">
<ele>251.960007</ele>
<time>2021-04-17T08:15:27.050Z</time>
</trkpt>
<trkpt lat="31.8074600" lon="35.0046900">
<ele>250.750000</ele>
<time>2021-04-17T08:15:27.050Z</time>
</trkpt>
<trkpt lat="31.8076700" lon="35.0047000">
<ele>255.040009</ele>
<time>2021-04-17T08:15:27.050Z</time>
</trkpt>
<trkpt lat="31.8078400" lon="35.0047500">
<ele>258.010010</ele>
<time>2021-04-17T08:15:27.050Z</time>
</trkpt>
<trkpt lat="31.8080000" lon="35.0048600">
<ele>258.089996</ele>
<time>2021-04-17T08:15:27.050Z</time>
</trkpt>
<trkpt lat="31.8081800" lon="35.0049500">
<ele>257.200012</ele>
<time>2021-04-17T08:15:27.050Z</time>
</trkpt>
<trkpt lat="31.8082600" lon="35.0049900">
<ele>256.709991</ele>
<time>2021-04-17T08:15:27.050Z</time>
</trkpt>
<trkpt lat="31.8086600" lon="35.0050000">
<ele>258.350006</ele>
<time>2021-04-17T08:15:27.050Z</time>
</trkpt>
<trkpt lat="31.8088300" lon="35.0050500">
<ele>259.829987</ele>
<time>2021-04-17T08:15:27.050Z</time>
</trkpt>
<trkpt lat="31.8090600" lon="35.0051600">
<ele>260.410004</ele>
<time>2021-04-17T08:15:27.050Z</time>
</trkpt>
<trkpt lat="31.8092400" lon="35.0051700">
<ele>259.760010</ele>
<time>2021-04-17T08:15:27.050Z</time>
</trkpt>
<trkpt lat="31.8093300" lon="35.0051100">
<ele>258.179993</ele>
<time>2021-04-17T08:15:27.050Z</time>
</trkpt>
<trkpt lat="31.8093900" lon="35.0050600">
<ele>257.079987</ele>
<time>2021-04-17T08:15:27.050Z</time>
</trkpt>
<trkpt lat="31.8094400" lon="35.0049500">
<ele>255.320007</ele>
<time>2021-04-17T08:15:27.050Z</time>
</trkpt>
<trkpt lat="31.8095400" lon="35.0047200">
<ele>252.669998</ele>
<time>2021-04-17T08:15:27.050Z</time>
</trkpt>
<trkpt lat="31.8096500" lon="35.0045600">
<ele>252.739990</ele>
<time>2021-04-17T08:15:27.050Z</time>
</trkpt>
<trkpt lat="31.8100700" lon="35.0040300">
<ele>245.649994</ele>
<time>2021-04-17T08:15:27.050Z</time>
</trkpt>
<trkpt lat="31.8101900" lon="35.0039400">
<ele>242.830002</ele>
<time>2021-04-17T08:15:27.051Z</time>
</trkpt>
<trkpt lat="31.8103800" lon="35.0038500">
<ele>243.740005</ele>
<time>2021-04-17T08:15:27.051Z</time>
</trkpt>
<trkpt lat="31.8106900" lon="35.0037500">
<ele>248.479996</ele>
<time>2021-04-17T08:15:27.051Z</time>
</trkpt>
<trkpt lat="31.8107700" lon="35.0037500">
<ele>248.770004</ele>
<time>2021-04-17T08:15:27.051Z</time>
</trkpt>
<trkpt lat="31.8109400" lon="35.0038000">
<ele>251.210007</ele>
<time>2021-04-17T08:15:27.051Z</time>
</trkpt>
<trkpt lat="31.8110400" lon="35.0038500">
<ele>253.370010</ele>
<time>2021-04-17T08:15:27.051Z</time>
</trkpt>
<trkpt lat="31.8112500" lon="35.0040100">
<ele>255.399994</ele>
<time>2021-04-17T08:15:27.051Z</time>
</trkpt>
<trkpt lat="31.8113800" lon="35.0041500">
<ele>255.859985</ele>
<time>2021-04-17T08:15:27.051Z</time>
</trkpt>
<trkpt lat="31.8114600" lon="35.0042400">
<ele>255.580002</ele>
<time>2021-04-17T08:15:27.051Z</time>
</trkpt>
<trkpt lat="31.8115200" lon="35.0043900">
<ele>256.429993</ele>
<time>2021-04-17T08:15:27.051Z</time>
</trkpt>
<trkpt lat="31.8115500" lon="35.0044700">
<ele>256.899994</ele>
<time>2021-04-17T08:15:27.051Z</time>
</trkpt>
<trkpt lat="31.8116200" lon="35.0051000">
<ele>260.089996</ele>
<time>2021-04-17T08:15:27.051Z</time>
</trkpt>
<trkpt lat="31.8116900" lon="35.0052900">
<ele>259.619995</ele>
<time>2021-04-17T08:15:27.051Z</time>
</trkpt>
<trkpt lat="31.8117900" lon="35.0054100">
<ele>257.540009</ele>
<time>2021-04-17T08:15:27.051Z</time>
</trkpt>
<trkpt lat="31.8119300" lon="35.0054200">
<ele>255.210007</ele>
<time>2021-04-17T08:15:27.051Z</time>
</trkpt>
<trkpt lat="31.8120000" lon="35.0053800">
<ele>255.259995</ele>
<time>2021-04-17T08:15:27.051Z</time>
</trkpt>
<trkpt lat="31.8120700" lon="35.0053700">
<ele>255.340012</ele>
<time>2021-04-17T08:15:27.051Z</time>
</trkpt>
<trkpt lat="31.8121200" lon="35.0053400">
<ele>255.550003</ele>
<time>2021-04-17T08:15:27.051Z</time>
</trkpt>
<trkpt lat="31.8121300" lon="35.0054000">
<ele>255.119995</ele>
<time>2021-04-17T08:15:27.051Z</time>
</trkpt>
<trkpt lat="31.8121300" lon="35.0054000">
<ele>255.119995</ele>
<time>2021-04-17T08:15:27.051Z</time>
</trkpt>
<trkpt lat="31.8121300" lon="35.0054000">
<ele>255.119995</ele>
<time>2021-04-17T08:15:27.051Z</time>
</trkpt>
<trkpt lat="31.8123700" lon="35.0068400">
<ele>261.480011</ele>
<time>2021-04-17T08:15:27.051Z</time>
</trkpt>
<trkpt lat="31.8123400" lon="35.0072300">
<ele>260.979980</ele>
<time>2021-04-17T08:15:27.051Z</time>
</trkpt>
<trkpt lat="31.8123100" lon="35.0080400">
<ele>260.549988</ele>
<time>2021-04-17T08:15:27.051Z</time>
</trkpt>
<trkpt lat="31.8123000" lon="35.0085900">
<ele>260.880005</ele>
<time>2021-04-17T08:15:27.051Z</time>
</trkpt>
<trkpt lat="31.8122700" lon="35.0089200">
<ele>261.950012</ele>
<time>2021-04-17T08:15:27.051Z</time>
</trkpt>
<trkpt lat="31.8122200" lon="35.0098600">
<ele>266.479980</ele>
<time>2021-04-17T08:15:27.051Z</time>
</trkpt>
<trkpt lat="31.8121700" lon="35.0102300">
<ele>267.779999</ele>
<time>2021-04-17T08:15:27.052Z</time>
</trkpt>
<trkpt lat="31.8121400" lon="35.0104800">
<ele>268.979980</ele>
<time>2021-04-17T08:15:27.052Z</time>
</trkpt>
<trkpt lat="31.8121500" lon="35.0105700">
<ele>269.830017</ele>
<time>2021-04-17T08:15:27.052Z</time>
</trkpt>
<trkpt lat="31.8120900" lon="35.0107100">
<ele>270.260010</ele>
<time>2021-04-17T08:15:27.052Z</time>
</trkpt>
<trkpt lat="31.8119800" lon="35.0111200">
<ele>275.480011</ele>
<time>2021-04-17T08:15:27.052Z</time>
</trkpt>
<trkpt lat="31.8117500" lon="35.0121400">
<ele>278.899994</ele>
<time>2021-04-17T08:15:27.052Z</time>
</trkpt>
<trkpt lat="31.8115100" lon="35.0129000">
<ele>276.059998</ele>
<time>2021-04-17T08:15:27.052Z</time>
</trkpt>
<trkpt lat="31.8114600" lon="35.0131400">
<ele>275.850006</ele>
<time>2021-04-17T08:15:27.052Z</time>
</trkpt>
</trkseg>
</trk>
</gpx>
